GFSSGP_prec_cthk_000.txt.gz
RH
3 4 6 9 14 18 20 24 24 22 31 40 38 37 42 43 46 55 58 63 52 46 44 41 42 44 45 45 46 46 49 49 51 49 49 49 53 56 60 64 64 65 57 55 54 49 56 69 70
3 5 9 18 25 26 25 22 25 27 40 42 40 44 42 51 48 44 49 52 51 49 47 40 38 37 38 41 40 39 38 43 44 40 38 40 42 49 54 53 58 56 51 47 51 48 52 57 70
5 11 14 22 28 30 28 25 25 32 33 31 40 41 41 46 45 42 41 41 40 40 39 37 37 36 34 32 33 33 35 35 36 34 34 33 38 42 43 44 49 47 46 45 45 46 48 49 63
12 16 17 21 26 24 26 33 31 32 37 39 42 46 44 42 39 34 34 36 37 33 31 28 30 30 30 31 33 34 33 33 31 28 24 26 31 34 36 37 35 35 39 44 43 50 54 50 56
14 17 21 19 19 21 25 26 32 34 36 35 37 42 41 39 34 34 38 31 33 29 31 31 31 31 30 30 32 33 30 29 25 26 23 23 24 27 28 28 28 30 28 31 35 43 50 55 57
18 18 18 18 18 19 20 19 19 25 29 32 32 34 40 40 35 35 40 40 39 33 32 31 36 35 33 31 28 25 22 19 21 21 20 22 23 24 25 23 23 25 27 28 28 27 29 29 32
17 17 19 18 18 19 14 11 14 16 18 20 18 22 38 47 49 45 42 38 34 31 31 32 33 31 30 24 24 22 20 20 20 19 21 22 22 23 23 24 24 24 25 28 32 34 36 38 40
17 15 15 15 16 14 12 12 12 13 12 15 17 19 22 31 37 48 45 44 36 34 32 35 28 24 23 23 26 27 28 30 32 32 23 21 22 25 25 18 16 15 19 21 24 25 26 32 44
14 15 16 18 16 14 13 13 14 12 13 15 18 20 24 29 35 42 39 38 42 44 45 40 33 29 31 31 28 26 28 32 34 30 22 19 20 19 17 14 11 12 12 12 15 17 21 28 32
16 17 17 17 15 12 10 10 9 10 12 16 19 20 22 23 25 23 22 31 34 45 44 38 33 23 19 17 17 17 16 19 22 19 16 17 16 16 14 12 12 12 12 11 13 15 19 23 30
14 16 17 15 11 9 9 9 9 9 12 14 18 17 17 17 16 15 23 30 35 39 38 30 26 17 14 13 15 16 16 18 19 18 18 18 17 16 16 16 16 16 16 15 18 19 19 21 26
10 8 8 8 6 6 7 7 9 10 10 11 12 14 17 19 19 20 26 25 28 29 25 24 20 18 16 15 16 17 21 25 24 26 26 25 23 22 22 20 20 21 20 20 23 24 24 23 23
12 14 16 16 17 13 11 13 12 14 13 13 13 17 17 18 19 22 27 26 25 25 25 23 22 21 20 19 21 26 29 30 31 31 30 30 28 29 29 29 29 29 28 28 28 28 29 30 29
19 17 18 18 18 18 16 15 17 17 16 17 18 20 21 21 21 22 24 26 25 25 23 21 20 22 24 24 26 31 33 33 34 35 35 32 32 32 33 34 35 36 35 34 32 31 31 31 31
21 21 19 21 20 19 19 19 17 17 17 18 19 20 23 23 24 26 26 26 26 26 25 27 27 27 26 26 27 31 31 32 31 31 31 33 34 34 35 35 37 38 39 40 40 39 38 38 37
22 20 22 21 21 20 20 21 20 18 16 16 18 19 20 20 22 23 24 26 28 28 28 28 28 28 27 27 28 30 33 36 37 37 38 38 38 39 39 38 40 40 41 42 44 45 46 46 47
19 20 21 21 21 22 21 20 19 19 19 18 17 18 18 19 19 20 21 23 25 26 27 29 30 31 32 33 35 36 38 40 42 42 43 43 43 45 46 46 46 47 48 49 50 51 51 51 51
20 19 20 24 24 24 22 21 20 19 19 17 16 17 19 20 22 23 24 26 28 30 32 33 34 34 37 38 40 42 44 44 45 46 47 48 50 53 53 52 52 54 54 54 55 56 56 57 57
20 19 23 24 24 23 22 24 21 21 21 19 18 18 21 23 24 26 28 29 32 35 37 38 38 40 43 44 46 47 48 48 48 49 49 51 53 55 56 56 56 57 57 57 59 60 61 62 62
21 21 24 22 23 25 24 23 20 20 22 23 24 22 28 29 29 29 32 36 38 41 41 44 47 48 50 49 49 50 50 50 51 53 54 55 56 58 59 60 60 61 61 61 61 63 64 65 65
22 22 23 27 27 28 27 24 22 23 24 26 27 28 30 32 34 32 34 37 41 41 42 45 49 52 53 52 50 49 49 50 51 53 54 56 55 57 59 61 64 65 64 65 66 66 66 64 65
24 23 26 29 31 36 31 39 30 29 29 30 31 31 33 36 36 36 39 40 41 41 43 44 48 50 51 52 53 53 52 53 56 57 58 59 59 59 60 62 63 65 68 70 70 69 66 63 64
26 26 28 30 36 37 38 40 37 36 35 34 37 39 40 40 40 43 44 46 46 47 49 53 55 56 58 61 59 55 53 51 54 57 60 60 61 60 61 62 62 64 66 67 68 71 73 70 71
29 29 31 38 40 48 40 42 48 45 44 46 47 45 44 46 52 57 57 54 55 56 58 58 60 64 65 67 68 61 56 55 59 62 64 64 68 68 74 71 66 69 68 70 73 78 78 80 81
34 37 49 49 56 56 45 45 43 46 48 49 52 55 58 62 65 62 60 60 60 63 64 69 73 75 74 78 71 66 60 58 58 60 60 63 68 70 80 72 73 75 74 79 84 85 80 86 86
41 42 55 59 64 57 44 47 46 46 50 52 55 60 66 66 64 60 60 64 68 70 71 73 74 72 69 66 65 61 58 58 58 57 55 54 64 67 72 73 71 75 84 85 92 86 96 98 90
44 49 47 55 68 69 56 48 43 50 55 57 58 62 62 60 60 60 65 68 68 68 74 76 71 66 61 56 55 55 55 55 55 52 50 48 52 60 67 77 88 89 97 98 95 94 92 90 86
47 47 60 69 77 84 67 58 56 53 57 58 64 61 60 60 65 64 64 67 68 67 69 69 71 66 61 58 57 54 54 52 52 49 50 55 60 67 75 86 94 98 96 94 92 88 85 81 77
51 60 64 67 76 86 90 70 54 55 64 68 69 67 66 68 66 65 66 69 72 71 68 66 62 61 57 55 54 52 51 50 49 51 58 64 68 75 84 85 86 89 88 85 84 81 77 74 70
55 59 65 80 77 79 87 66 52 59 60 65 65 67 70 70 68 70 70 71 68 63 62 61 59 57 55 52 50 50 50 51 55 59 64 70 73 76 80 82 85 79 75 72 69 66 60 53 47

GFSSGP_prec_cthk_003.txt.gz
RH
3 4 6 11 14 14 20 20 21 22 42 45 43 45 47 46 46 49 48 52 53 40 35 41 41 48 47 48 48 51 50 52 54 56 55 56 54 52 51 47 48 52 55 55 55 52 47 48 48
3 5 12 15 19 19 21 20 25 32 41 43 44 46 45 49 47 46 46 51 50 45 43 42 39 40 41 41 42 43 44 47 47 46 44 46 48 48 47 51 51 49 49 48 50 48 46 46 46
7 13 15 21 24 22 24 23 30 34 35 35 46 48 49 48 45 43 43 45 41 39 39 39 37 36 36 36 35 36 36 39 40 38 38 36 39 37 35 37 42 42 41 40 43 43 42 44 46
11 12 17 22 21 23 30 32 33 35 39 42 46 49 50 48 35 31 35 37 35 35 33 29 29 29 28 27 28 30 30 32 32 32 30 27 26 26 21 22 24 26 29 34 39 40 39 42 48
13 15 16 20 21 21 25 27 26 27 31 31 30 34 36 36 30 32 36 38 36 31 29 28 28 27 27 29 32 31 32 30 26 23 19 20 21 21 21 22 23 23 25 29 29 33 36 44 47
14 14 18 19 18 16 15 17 18 24 26 26 26 29 34 37 34 37 39 34 33 32 31 29 28 28 29 26 25 25 24 23 22 21 21 20 20 21 22 21 21 22 24 26 28 26 24 25 29
14 14 17 18 15 15 14 12 12 12 14 17 19 23 33 37 37 40 43 37 33 29 28 29 27 24 24 21 21 22 23 23 25 26 28 23 19 21 23 24 20 17 19 22 26 25 25 28 31
13 15 15 13 13 13 13 13 13 12 13 14 14 20 28 28 28 32 40 44 41 33 35 34 28 27 25 27 29 25 22 22 25 28 21 17 18 18 16 13 12 11 14 15 17 18 20 22 23
13 14 14 14 15 14 13 13 12 12 13 12 15 17 19 23 26 28 33 32 33 34 38 37 36 34 26 22 19 17 16 19 22 22 18 16 18 17 14 12 11 12 12 13 15 16 17 19 24
12 13 13 13 12 10 9 9 8 8 12 14 14 14 15 19 22 23 24 24 27 33 39 32 30 25 20 18 15 17 16 17 19 22 20 19 20 18 17 16 16 15 15 14 15 17 18 21 23
12 13 13 11 9 9 9 9 8 8 11 12 12 13 15 18 19 23 24 26 26 32 33 37 29 27 20 18 16 16 17 20 25 25 25 25 25 24 22 21 21 20 20 20 18 20 21 22 24
8 9 11 13 11 8 9 9 9 10 9 9 12 14 16 18 16 17 21 26 29 29 35 30 26 23 22 21 19 20 26 30 32 32 31 30 29 28 28 29 29 27 27 26 26 26 27 27 27
14 15 16 16 16 16 14 15 13 15 14 14 16 19 20 21 22 25 29 29 27 30 31 30 28 26 25 24 24 26 30 33 34 34 34 33 33 31 30 31 32 32 33 33 32 30 30 30 30
16 16 19 20 20 18 17 16 17 17 16 15 17 20 21 22 24 26 29 29 29 31 32 32 31 30 30 30 29 29 31 34 36 38 39 40 39 36 34 34 35 36 36 37 36 36 35 34 33
19 19 19 19 20 19 18 19 20 18 17 16 16 18 20 21 24 24 25 25 29 31 31 31 31 31 29 30 30 33 35 38 40 41 41 42 42 42 42 41 42 41 41 41 41 40 40 40 40
19 20 20 20 20 20 19 19 19 18 18 17 16 18 19 20 21 23 25 26 28 30 32 33 36 37 37 37 38 40 41 42 44 45 45 46 45 45 44 44 44 44 44 45 45 45 46 47 47
19 20 21 21 22 22 20 18 18 19 19 18 16 17 19 21 23 25 27 30 32 35 38 40 40 41 40 40 41 42 44 44 45 46 46 47 47 47 48 49 50 49 50 51 51 51 52 52 51
20 18 20 23 23 23 21 19 20 21 20 20 18 20 22 25 28 29 31 32 36 39 42 44 44 45 46 46 47 47 47 45 45 46 46 47 48 49 50 52 52 52 53 54 54 55 55 56 56
20 22 22 23 22 23 23 24 21 20 21 22 21 21 24 27 30 31 31 34 39 41 43 44 45 48 50 50 49 47 49 48 46 45 46 49 51 52 52 52 53 54 53 54 55 57 59 59 59
22 23 22 20 23 26 26 24 21 22 22 23 25 27 27 29 32 32 35 39 43 44 44 45 49 52 55 54 51 52 52 51 50 50 50 51 53 54 55 56 56 56 56 55 56 56 58 60 59
22 22 23 27 28 28 29 26 25 26 25 27 29 30 32 34 37 39 42 43 45 47 50 52 53 53 54 55 58 58 56 55 52 51 48 50 52 52 53 56 57 59 60 59 58 56 53 55 56
25 24 26 29 32 36 31 36 35 30 31 33 33 34 36 38 39 40 43 45 49 52 51 51 53 56 55 56 56 56 56 55 54 52 49 49 54 56 57 56 57 60 63 68 68 66 61 62 60
27 26 29 31 37 38 36 39 37 36 35 36 38 40 41 40 41 44 46 51 55 52 55 57 59 60 60 62 62 61 59 54 49 47 45 46 49 53 55 58 58 63 67 68 78 75 69 69 67
29 30 33 39 40 46 40 42 41 41 42 42 44 46 47 48 50 52 56 60 58 59 60 61 63 62 62 64 62 59 57 52 48 47 48 49 50 51 54 59 61 63 69 72 83 78 69 70 74
34 35 47 47 54 52 43 43 43 45 48 50 54 56 56 57 57 57 59 61 64 65 62 62 61 61 59 58 56 58 56 53 52 52 52 50 48 47 45 47 53 66 66 74 80 77 77 81 84
39 41 53 53 62 56 45 51 48 48 53 56 61 60 58 58 61 63 66 64 67 65 62 61 61 60 57 55 53 53 54 54 53 51 48 45 42 42 43 47 56 65 68 78 70 74 84 91 92
43 50 47 58 68 68 57 52 47 51 57 58 57 56 59 60 66 67 67 66 67 63 61 58 56 54 52 51 51 51 50 48 45 46 45 42 42 44 49 55 61 66 71 77 87 97 96 98 96
46 48 58 66 73 75 62 56 51 51 57 51 53 57 58 62 65 66 66 70 67 64 61 60 60 60 58 57 53 47 44 39 39 42 44 47 51 55 60 65 69 78 86 86 89 89 88 88 88
52 58 59 62 70 74 79 62 52 52 53 55 59 63 65 68 69 70 72 74 71 69 65 61 61 61 57 53 51 43 38 36 38 43 46 52 56 61 66 71 75 79 76 75 79 75 72 71 70
49 56 59 70 67 69 75 60 51 57 60 63 67 70 68 66 68 72 75 77 74 72 69 62 60 57 54 51 50 46 41 37 40 41 44 53 63 73 78 75 74 76 79 78 72 67 63 58 53

GFSSGP_prec_cthk_006.txt.gz
RH
4 4 8 11 11 15 17 19 20 28 40 41 42 42 45 50 49 49 44 53 48 43 40 43 48 51 51 57 58 55 54 53 53 56 55 55 56 53 54 53 48 44 46 53 59 58 52 51 49
3 9 12 13 15 18 18 23 32 33 39 43 45 47 48 52 46 46 48 50 49 43 41 40 39 38 38 40 42 40 37 43 42 44 43 45 47 46 45 47 42 40 43 49 52 54 49 52 51
9 12 14 16 19 19 22 26 37 41 41 46 49 51 52 53 47 44 42 41 38 36 36 36 34 35 34 33 33 31 31 34 35 34 35 34 35 38 42 42 41 33 30 35 39 43 46 50 47
13 14 15 19 22 24 24 30 36 39 40 42 45 45 44 42 39 35 33 30 30 29 31 32 30 29 29 29 28 28 27 27 27 28 24 22 19 21 23 22 19 17 20 25 31 37 42 45 44
12 13 17 22 21 24 25 27 30 31 29 29 31 35 30 30 29 29 28 26 27 26 31 30 31 30 32 32 30 26 24 22 20 22 21 20 20 19 19 19 21 22 23 24 25 28 35 41 40
12 14 18 19 18 19 22 21 19 22 23 26 26 25 27 31 31 31 32 31 28 28 28 29 28 29 25 23 23 22 20 22 24 25 27 26 22 21 20 20 21 20 19 21 24 28 28 27 31
12 14 16 16 17 16 14 12 11 12 14 18 20 24 25 33 34 31 32 35 36 33 32 32 33 33 27 25 25 23 20 17 20 23 24 19 18 18 18 17 14 11 11 14 17 19 21 25 28
12 14 15 16 16 14 13 12 12 12 15 17 17 23 25 24 30 30 32 39 35 28 35 38 37 36 32 24 19 14 11 14 17 20 19 16 16 17 16 13 10 9 10 11 12 13 12 13 14
14 15 15 13 13 12 12 12 11 10 12 12 14 16 17 19 24 25 27 26 24 29 36 32 30 23 19 16 14 12 11 13 16 20 20 21 23 24 21 18 15 14 14 13 12 12 14 15 16
13 14 12 11 9 9 8 8 8 9 11 13 13 13 13 16 20 22 26 22 20 24 26 26 30 25 20 18 16 13 13 16 21 23 26 26 26 26 25 23 23 21 20 18 17 15 16 17 18
11 11 11 8 8 9 10 10 9 9 11 11 10 13 15 18 18 22 24 23 23 26 28 32 33 26 23 21 21 20 19 24 28 31 30 30 29 29 28 27 27 26 25 24 24 22 21 22 21
8 11 12 11 9 9 10 11 10 12 11 12 13 15 17 20 21 24 25 25 28 28 32 37 31 27 25 25 26 27 27 30 32 35 34 34 34 34 33 33 32 32 30 30 29 28 27 26 27
13 16 18 18 17 16 14 16 16 17 15 14 16 19 20 22 22 25 28 31 32 34 35 34 30 29 29 29 28 28 29 32 34 37 39 40 41 42 42 40 39 39 38 38 37 36 34 31 29
15 16 18 20 20 18 17 17 18 17 16 16 17 18 20 21 21 25 26 28 29 31 32 32 31 32 33 34 34 34 36 38 40 41 43 45 46 44 43 43 42 41 41 42 42 42 41 39 37
18 18 18 19 20 19 19 20 18 18 19 17 16 18 19 20 22 24 27 29 30 33 38 38 39 40 41 39 37 38 39 39 40 41 42 44 45 45 44 43 42 42 42 42 43 44 44 43 43
19 18 20 21 21 21 20 21 19 18 19 20 17 18 21 22 24 26 27 30 33 36 40 41 42 43 43 42 43 44 45 44 43 43 42 42 42 43 43 43 43 45 45 46 46 47 48 48 48
20 19 20 22 23 24 22 21 19 19 19 20 19 19 23 27 28 28 29 32 35 41 45 45 45 44 44 46 46 46 45 45 45 43 43 43 42 43 44 44 45 46 46 47 47 48 49 50 51
20 19 20 20 22 24 24 22 22 21 22 22 20 22 24 28 30 30 31 34 35 40 45 48 49 48 48 50 50 49 50 50 49 48 46 45 45 46 45 45 46 48 48 48 48 49 50 51 52
20 22 23 20 21 23 25 26 22 21 23 24 24 25 24 27 30 31 33 35 37 43 49 51 50 51 52 54 54 53 53 50 50 50 48 49 48 48 49 48 47 49 50 52 51 50 51 52 53
21 23 22 22 23 25 28 27 23 24 24 25 26 27 28 29 30 32 34 37 43 48 53 54 53 58 56 55 55 56 56 56 55 56 53 49 48 46 47 49 49 49 50 52 52 54 55 55 56
24 22 24 26 27 28 30 28 28 26 27 28 29 30 30 31 33 36 39 44 47 52 56 58 57 56 54 56 59 58 57 57 57 58 56 53 48 46 46 48 50 51 52 51 52 53 54 55 55
27 24 26 28 31 34 32 35 33 31 30 32 33 34 34 35 37 42 46 49 51 53 55 56 56 55 55 55 55 54 54 55 55 55 53 51 48 46 47 49 51 55 57 55 55 55 61 60 61
29 28 28 29 33 36 38 38 35 35 34 35 37 38 38 39 43 47 50 52 53 53 55 57 58 57 55 56 57 56 56 56 54 51 46 46 46 48 47 48 48 47 50 52 55 60 63 64 65
29 29 30 36 39 45 41 43 39 38 40 41 40 40 42 46 49 52 55 58 59 59 61 61 61 60 59 59 61 62 59 53 49 47 44 42 39 37 36 36 38 39 43 46 54 61 63 67 67
35 34 41 45 52 51 42 42 39 39 43 43 43 47 49 51 52 54 57 60 64 63 65 67 67 65 63 63 62 59 58 57 52 46 40 36 35 33 31 29 29 32 37 43 50 59 65 65 77
41 42 52 48 61 57 45 46 46 46 46 48 50 51 54 56 59 62 66 68 66 67 68 70 71 72 69 63 58 56 55 53 49 42 40 38 38 35 30 31 34 38 43 49 57 65 71 78 91
45 50 49 58 64 63 51 46 48 49 50 50 52 56 58 58 62 66 69 68 70 72 73 71 69 68 68 64 63 61 58 50 48 48 44 41 43 43 44 46 50 56 57 61 71 80 89 89 98
46 47 53 59 67 66 56 49 49 52 51 53 55 56 60 62 65 67 69 70 69 69 67 69 69 65 63 63 60 53 55 55 48 43 40 44 47 48 53 57 58 65 69 71 75 82 81 79 86
51 55 55 56 65 73 78 61 51 52 53 54 56 58 60 63 67 68 68 68 70 71 71 70 68 63 54 55 56 60 60 50 42 39 39 41 45 47 52 59 66 76 77 78 75 75 79 80 75
50 53 55 62 61 72 74 62 50 55 57 56 59 59 61 65 67 68 70 71 75 70 67 64 60 59 55 57 63 66 61 53 50 44 43 44 51 57 61 73 85 82 81 82 84 82 79 75 70

GFSSGP_prec_cthk_009.txt.gz
RH
5 5 8 10 11 15 17 22 25 36 43 43 42 40 41 46 44 44 41 43 44 43 41 43 45 47 53 54 54 52 48 47 46 46 44 45 47 51 51 49 52 54 51 48 47 50 56 62 55
5 8 10 11 13 16 22 22 26 38 42 45 44 44 44 44 43 41 47 42 40 39 37 34 33 34 36 35 36 36 38 40 40 38 37 37 37 39 39 45 43 46 45 43 41 38 41 43 46
10 11 11 13 16 17 26 30 39 40 41 44 46 45 41 42 39 42 42 38 35 31 28 29 30 32 32 31 31 31 32 33 32 27 26 22 22 23 27 32 34 34 27 23 22 24 28 37 41
12 13 15 19 22 22 27 33 35 36 41 42 39 36 32 29 27 28 29 28 26 24 23 24 27 27 30 31 31 31 30 27 23 22 20 21 22 22 23 23 20 19 19 21 22 25 28 31 37
12 15 19 23 23 27 30 32 34 32 31 31 27 26 25 28 27 27 27 25 24 24 23 24 26 27 28 27 27 25 21 20 22 21 22 24 24 22 23 25 24 24 24 22 23 24 25 28 32
15 16 19 23 23 23 25 25 25 24 23 24 23 23 26 27 28 26 25 26 27 25 27 28 28 29 27 25 22 21 21 21 17 18 20 18 14 15 17 19 21 19 15 14 18 23 25 24 24
15 15 16 17 16 17 16 14 14 15 17 19 19 23 26 26 26 24 24 26 28 31 30 29 30 29 28 27 24 20 14 12 14 18 19 16 15 15 17 17 14 9 9 10 12 15 17 17 21
15 15 16 15 15 15 14 13 12 14 17 18 17 18 22 22 24 25 25 28 31 32 31 34 31 27 21 17 15 12 9 11 14 17 18 18 19 21 24 21 17 14 13 12 11 12 13 13 14
16 16 14 13 13 12 12 11 10 10 13 13 16 16 15 19 21 23 26 28 25 26 36 30 27 24 19 16 14 11 11 13 16 19 22 23 23 24 25 24 23 22 20 18 17 16 14 15 17
13 13 13 11 9 9 8 8 8 9 12 14 14 12 12 14 19 21 25 23 22 28 26 26 29 25 21 20 20 18 18 20 24 27 28 29 29 29 29 28 27 27 27 26 24 23 21 18 18
11 12 9 8 8 8 9 9 9 9 10 10 10 13 15 18 20 22 25 24 25 29 30 32 35 27 25 27 28 27 26 26 27 29 31 32 32 32 33 33 33 33 34 34 33 32 30 27 25
9 10 11 10 7 9 10 10 12 14 10 13 15 17 19 23 24 26 30 29 29 32 35 36 36 30 29 28 28 29 30 32 34 36 37 39 40 41 41 41 41 39 38 38 38 37 38 37 35
11 14 15 15 15 14 13 14 16 17 15 15 17 19 22 22 23 28 29 31 32 33 35 35 36 32 34 34 33 33 35 36 37 37 39 40 42 42 43 43 42 42 41 41 41 41 41 41 40
13 15 17 18 17 17 16 17 20 19 18 17 17 19 20 21 23 25 27 30 31 36 40 41 42 37 37 37 36 37 38 39 40 40 40 39 40 40 40 41 40 40 40 40 40 41 42 42 42
16 16 18 19 21 20 19 21 20 20 21 20 18 19 22 23 25 26 30 34 36 38 42 42 42 38 38 39 40 41 40 39 40 40 40 39 39 40 39 39 39 40 40 41 42 42 43 43 43
18 18 19 21 22 23 22 22 22 21 19 21 21 19 23 26 27 29 32 35 37 39 43 47 46 46 45 43 45 46 44 44 44 44 43 43 43 41 41 42 42 43 43 43 43 43 43 44 45
18 17 19 21 23 24 24 24 22 21 21 21 21 20 22 26 28 31 33 34 35 40 43 49 51 49 47 47 48 49 48 49 50 51 50 49 49 46 46 45 46 47 46 45 45 45 44 44 44
20 20 21 20 20 23 24 23 22 20 22 22 20 20 22 26 30 32 30 32 36 39 44 49 50 49 50 49 51 52 51 52 52 51 52 52 51 50 47 43 41 44 46 46 46 46 46 45 44
20 22 23 21 22 22 25 25 22 22 23 24 23 22 24 27 29 30 32 34 35 39 44 49 51 52 52 54 52 53 53 53 52 51 51 52 51 50 48 44 41 41 42 45 47 47 48 47 50
21 22 21 22 23 24 26 25 23 24 26 27 28 29 29 29 31 32 34 37 42 46 49 51 54 56 55 58 57 55 53 53 53 53 52 51 49 46 43 41 40 41 42 45 48 51 50 50 50
25 22 24 25 25 26 28 27 28 27 28 29 30 31 32 34 34 36 39 44 49 52 55 57 57 56 56 56 57 57 56 56 58 58 56 52 50 47 45 44 44 44 43 43 46 49 51 53 53
26 25 27 27 29 30 32 30 31 30 30 32 34 35 36 37 39 43 46 51 53 56 58 60 61 60 60 62 63 62 59 57 56 54 52 48 48 48 46 41 37 37 36 36 39 43 45 53 57
30 29 29 30 31 33 35 32 32 33 33 34 36 38 39 40 45 49 52 54 55 57 60 60 64 65 68 69 68 67 66 63 60 56 50 49 47 43 37 34 33 31 30 28 28 30 32 39 49
32 31 32 34 36 39 39 37 36 37 38 38 38 40 43 48 50 53 55 57 58 61 64 67 69 70 70 70 69 66 65 64 60 60 56 53 46 41 41 38 33 29 28 29 31 33 37 40 43
35 32 35 40 44 41 39 39 38 41 41 42 45 49 50 52 53 56 59 60 64 67 68 71 71 68 66 69 70 70 65 61 57 55 50 47 44 45 42 40 38 34 29 27 30 36 41 48 56
41 40 45 43 48 46 42 44 43 44 47 50 52 52 55 59 62 63 65 68 69 70 71 70 68 67 68 67 66 67 65 61 56 54 53 53 48 44 45 47 48 45 42 45 45 49 54 60 67
43 48 45 52 61 57 44 46 48 47 48 52 53 57 61 64 65 65 65 66 68 70 71 72 74 73 68 64 59 53 54 55 54 58 55 48 46 46 50 53 55 60 58 63 68 69 75 76 81
43 45 46 51 57 56 45 47 44 50 52 52 55 57 57 58 59 59 62 64 67 71 71 69 69 68 65 63 60 60 61 60 63 51 49 50 50 53 55 62 63 66 71 74 78 78 83 77 76
49 51 53 53 60 65 71 46 45 48 50 53 55 56 54 55 58 61 63 64 63 64 65 66 68 71 68 64 64 67 65 62 55 51 49 48 49 59 61 66 71 78 81 86 85 84 86 87 83
49 50 51 54 52 58 65 50 44 52 54 57 56 56 58 59 61 61 60 60 63 65 65 66 67 66 64 62 63 60 59 56 53 48 48 55 59 60 64 71 75 84 88 91 93 94 92 90 86

GFSSGP_prec_cthk_012.txt.gz
RH
6 6 9 10 12 17 22 24 27 36 34 36 34 35 35 36 39 51 44 36 41 46 50 48 47 47 50 50 47 42 39 42 45 45 45 47 45 46 48 48 46 49 49 49 47 48 46 48 54
6 8 10 10 14 19 25 24 31 35 36 36 34 35 36 37 39 39 40 38 39 39 41 41 35 30 28 30 35 36 37 38 38 40 37 34 32 33 34 37 37 35 39 43 40 36 29 30 33
8 9 10 13 17 25 25 29 34 37 36 38 38 38 37 37 36 36 35 33 29 29 28 27 25 26 27 27 27 28 29 28 28 24 22 22 25 26 28 29 32 30 25 21 20 21 23 26 30
10 10 12 18 19 23 27 33 32 35 38 38 35 32 29 31 31 33 27 23 23 24 23 21 22 24 24 25 26 26 26 26 21 21 23 24 25 24 23 22 22 22 22 21 21 23 26 31 33
12 14 18 21 23 22 28 32 35 34 35 34 28 24 23 32 29 27 27 25 24 24 23 23 25 26 26 26 23 21 20 19 20 16 17 19 19 17 16 17 19 19 20 20 20 21 23 26 26
14 17 22 24 23 24 26 27 26 25 23 22 24 23 30 28 27 27 24 24 26 24 25 25 24 21 22 22 22 20 17 15 14 16 18 19 16 15 17 18 17 14 10 10 11 14 19 23 24
17 20 22 22 23 22 19 18 23 21 20 20 21 25 27 30 28 25 23 23 25 29 27 26 24 23 23 19 15 13 11 11 14 17 19 17 16 17 20 21 20 15 11 11 12 12 13 13 12
16 16 17 17 16 15 14 13 12 17 19 17 19 20 23 27 23 22 22 25 29 32 33 30 27 21 16 15 14 11 9 11 13 16 19 21 21 22 24 25 23 22 20 18 16 15 14 13 15
16 15 14 13 14 13 12 12 10 11 15 13 16 22 22 25 22 24 26 27 29 30 32 29 26 19 17 17 17 14 13 16 19 22 24 26 30 28 28 29 28 27 26 27 27 26 24 20 17
14 14 13 12 11 11 9 9 8 11 12 15 15 14 16 19 22 24 28 26 25 29 31 26 26 23 21 23 25 25 23 28 27 28 27 29 30 32 32 32 31 31 32 32 32 32 31 30 33
13 14 11 7 7 8 7 8 8 10 11 11 14 16 19 21 25 27 32 29 28 31 31 32 32 27 28 31 31 33 33 33 34 33 35 38 37 41 42 45 45 44 42 42 41 39 41 38 37
11 9 8 6 8 9 10 10 12 11 11 12 15 20 22 26 30 31 32 36 39 36 37 37 36 31 30 35 37 37 39 41 43 46 41 43 46 47 46 47 47 47 47 46 47 47 42 40 40
10 12 12 13 13 11 12 14 17 15 14 15 17 22 23 29 31 33 35 39 41 38 40 39 43 41 37 37 38 37 39 44 43 45 45 39 44 44 43 43 43 43 44 44 45 45 45 44 42
14 16 17 17 18 16 16 17 17 17 17 15 16 21 25 26 28 29 32 36 39 43 48 46 45 43 39 40 39 40 41 43 43 46 44 39 39 43 43 43 43 43 45 44 44 45 44 45 45
15 18 19 20 21 19 18 20 19 18 18 19 18 20 24 26 28 30 33 37 42 46 50 50 48 48 45 45 45 45 47 46 48 48 45 45 44 44 41 44 44 44 44 43 44 45 44 43 44
17 18 20 20 20 20 21 23 20 21 21 20 21 20 23 26 31 34 37 38 41 43 45 49 48 52 48 47 49 50 51 50 51 51 51 50 49 48 46 49 47 45 42 44 45 44 44 43 42
15 17 17 19 20 21 21 23 22 21 20 21 21 21 23 27 33 35 35 38 41 40 41 47 53 53 49 49 52 52 53 53 56 55 53 50 49 48 48 46 45 44 42 40 41 43 43 43 44
17 17 17 18 19 18 20 22 19 20 20 22 23 22 23 28 34 35 38 36 36 38 41 51 57 54 52 54 55 55 53 55 57 55 53 52 51 49 48 46 44 44 45 43 43 43 44 46 45
17 18 19 19 20 21 21 21 21 22 22 24 25 24 27 31 34 37 34 34 36 38 46 54 55 54 56 59 60 58 59 60 61 60 57 55 54 52 50 49 48 47 46 45 43 44 44 45 49
19 19 20 21 22 23 23 23 23 24 25 27 29 29 30 33 35 35 38 40 42 43 47 52 56 58 61 62 63 64 63 64 65 66 65 63 61 58 55 50 47 46 43 42 43 44 43 43 47
21 21 24 24 23 23 25 27 25 26 28 30 31 33 34 36 37 40 42 44 47 50 55 59 61 63 64 65 66 66 67 67 67 66 65 64 62 59 53 51 46 40 38 37 36 36 36 40 39
24 24 26 25 25 25 25 32 30 29 31 34 36 37 38 39 41 44 48 50 53 57 60 63 62 62 63 64 66 65 66 66 65 65 66 63 62 57 52 44 37 35 38 39 39 38 41 42 39
31 29 28 27 27 27 29 30 36 33 34 35 37 38 39 42 44 49 53 57 58 59 60 60 61 63 65 67 69 69 67 66 67 66 65 62 59 55 48 47 41 40 40 39 36 37 41 43 46
30 30 30 32 34 39 36 34 38 37 37 38 38 40 42 45 49 53 54 55 57 60 61 63 67 70 70 71 68 68 71 69 67 65 58 53 52 46 49 49 43 42 41 44 43 40 40 41 46
33 32 36 43 44 43 36 34 41 38 40 42 42 45 49 53 54 55 60 63 64 65 66 67 69 72 74 76 76 71 66 62 58 55 52 49 47 51 48 45 47 42 40 39 43 39 40 45 46
37 37 42 45 44 42 37 37 41 41 43 43 45 51 54 57 60 65 66 66 64 64 65 66 69 71 68 64 61 60 57 57 54 53 52 53 51 48 47 42 41 45 49 53 55 62 59 61 61
40 42 40 45 53 49 36 39 40 43 44 46 50 55 58 61 61 60 58 59 62 65 68 67 63 63 64 64 62 60 57 56 55 52 53 53 49 46 43 46 55 56 60 66 67 66 69 73 74
38 39 44 42 56 42 32 36 41 44 46 49 54 57 58 59 59 60 62 67 68 65 62 62 63 65 67 66 64 59 57 55 55 51 48 45 47 50 53 60 68 76 75 76 76 82 84 87 88
41 42 42 41 47 48 47 33 40 46 50 51 53 55 59 61 62 63 63 62 63 64 67 68 70 69 67 63 61 56 52 47 44 44 49 54 57 57 65 71 77 76 79 83 87 87 94 97 96
43 44 43 46 50 54 58 44 42 48 52 55 58 61 62 64 66 66 67 67 71 72 73 74 73 67 64 57 56 52 51 48 47 52 56 63 60 60 62 65 71 78 85 89 92 97 98 96 95

GFSSGP_prec_cthk_015.txt.gz
RH
7 7 10 11 12 18 36 38 41 40 37 37 30 38 41 47 49 68 59 37 44 54 50 47 44 43 42 49 48 44 38 38 39 41 44 44 42 39 38 40 44 46 46 45 46 45 45 43 38
9 9 10 12 16 27 36 30 43 46 34 28 28 32 37 35 37 42 38 35 41 49 51 39 36 35 35 31 31 31 33 33 34 33 31 28 27 28 28 29 31 33 36 38 35 31 25 22 22
8 9 15 14 21 24 37 31 44 36 31 37 34 38 40 37 39 39 30 32 34 37 37 28 23 21 23 24 25 27 27 26 26 24 22 22 23 23 24 24 23 23 21 20 18 18 19 22 25
10 9 10 15 32 32 35 41 42 32 34 36 34 37 32 36 34 29 26 28 29 31 25 21 21 22 23 23 24 24 23 24 23 20 18 18 19 19 18 18 18 19 20 20 20 20 22 23 24
9 13 20 27 32 33 40 40 35 46 45 39 31 32 32 35 35 30 27 26 26 27 22 20 20 22 23 23 22 20 19 17 17 15 16 18 19 17 16 16 18 18 16 15 14 14 15 18 22
13 22 28 35 34 33 32 34 33 38 36 29 33 35 40 33 31 27 25 25 26 26 25 23 24 21 19 19 19 17 14 14 14 16 18 19 18 16 17 19 21 19 13 10 10 10 11 12 13
20 30 29 38 30 26 26 25 26 25 25 25 27 35 32 30 29 26 25 25 26 29 33 32 25 20 17 15 11 10 9 10 13 16 18 19 19 19 21 24 24 22 20 19 17 15 13 12 12
20 28 30 28 25 21 16 17 20 21 32 24 31 30 30 30 25 24 23 22 27 31 34 31 29 24 24 17 11 10 8 11 14 16 19 22 23 26 26 27 27 26 25 25 25 25 25 23 19
15 19 21 18 19 15 12 13 12 17 20 20 20 30 31 29 25 24 22 26 32 35 34 37 30 25 25 26 19 16 16 17 21 24 26 28 41 40 42 36 31 30 29 30 30 31 30 30 30
17 18 20 15 15 14 12 13 9 14 15 17 20 19 28 23 22 27 27 31 35 37 37 35 29 28 25 27 29 34 32 37 36 38 40 48 46 46 43 45 43 42 41 40 42 41 39 41 45
17 22 13 11 11 11 9 9 9 13 16 15 19 17 27 23 25 29 36 40 38 41 39 38 30 29 31 36 37 44 47 46 50 48 47 49 50 54 52 54 54 52 49 51 50 51 50 50 46
15 14 10 7 6 10 10 11 10 13 14 13 16 20 26 24 30 36 41 43 43 48 48 42 39 31 30 41 47 48 50 50 49 52 47 49 50 50 49 48 47 46 48 47 48 48 49 48 47
11 9 8 7 8 10 10 12 16 12 13 14 19 23 28 33 35 35 43 47 46 50 54 50 49 44 43 41 46 47 48 54 52 53 52 48 47 47 46 47 48 45 45 47 46 46 46 47 45
14 14 14 14 14 12 14 16 17 18 15 15 18 25 31 33 37 41 43 47 51 58 58 57 61 55 50 45 48 50 53 57 57 56 52 48 50 51 48 49 51 49 47 46 45 44 42 41 41
15 17 17 18 18 17 16 20 20 19 18 17 18 23 33 37 36 40 42 46 48 57 61 66 62 59 50 48 51 53 55 51 56 57 53 53 52 51 50 50 52 51 50 46 45 44 43 42 42
19 21 28 21 19 20 20 36 23 19 19 20 20 23 25 33 34 40 42 46 50 53 56 61 60 56 54 55 54 57 59 58 60 57 57 54 52 50 49 49 48 48 45 48 47 44 43 45 46
21 31 25 24 19 22 21 34 29 23 20 20 23 23 22 31 39 43 43 41 45 47 48 53 60 58 60 58 58 60 61 61 65 62 62 62 60 59 57 55 54 51 50 48 49 48 47 47 45
26 21 19 22 23 17 20 22 26 20 18 19 21 25 27 27 41 45 38 38 38 40 45 52 59 62 61 60 60 62 63 64 65 67 67 67 65 63 61 61 60 59 57 55 53 51 48 47 45
17 18 22 23 21 18 21 23 22 20 21 23 24 24 26 30 41 39 37 36 37 41 49 56 56 60 60 62 64 65 67 70 70 72 69 67 65 63 61 60 59 57 54 50 48 43 43 44 46
19 21 22 21 19 19 25 26 24 23 25 26 27 28 31 34 35 37 37 37 40 46 49 52 56 58 62 65 67 68 67 70 71 71 70 68 64 65 63 63 62 56 52 48 43 41 38 39 42
23 21 25 24 22 21 22 28 26 24 26 28 29 31 33 35 38 39 40 42 47 51 54 57 61 63 64 64 68 69 70 71 72 70 70 71 68 64 61 59 55 51 48 43 43 43 43 42 40
27 24 23 23 24 34 26 37 40 32 29 31 33 35 36 39 42 44 47 52 54 56 59 62 61 60 62 64 67 68 68 71 77 75 73 69 62 57 55 52 50 48 47 47 49 50 48 50 46
29 26 26 26 27 27 27 23 50 40 36 34 38 40 43 44 47 48 51 55 58 59 60 60 63 66 66 67 67 70 74 77 77 70 59 57 56 55 52 47 45 43 44 46 45 47 52 51 49
26 29 28 30 34 37 39 30 50 51 42 38 39 44 47 46 48 50 55 60 61 61 64 64 66 67 69 69 69 66 63 60 59 60 60 58 52 43 42 43 46 48 55 56 56 50 45 43 44
32 36 46 50 47 54 40 28 48 41 41 40 44 46 49 50 54 57 61 65 65 68 64 62 64 69 71 67 62 62 62 63 63 61 56 48 44 44 45 47 52 57 56 57 54 50 50 47 51
36 37 45 46 48 44 38 33 49 40 39 41 44 47 50 53 57 60 62 65 64 62 63 64 67 65 66 67 68 67 67 65 60 54 52 50 48 47 48 48 50 50 54 64 63 63 66 68 64
39 40 33 42 47 44 34 41 45 47 46 43 44 48 53 56 59 62 64 65 62 63 64 63 62 62 63 67 70 70 68 66 63 57 55 47 44 46 49 42 45 52 51 52 56 65 72 69 68
35 33 45 43 53 40 36 32 48 60 58 51 52 54 57 60 62 64 64 64 65 65 65 66 69 72 74 72 72 72 71 68 58 50 50 49 44 45 44 45 50 51 55 60 65 69 74 79 84
45 47 41 37 44 51 43 38 46 49 51 51 53 56 61 65 66 67 66 66 67 70 71 70 70 69 69 69 68 65 64 59 57 54 53 47 46 41 48 51 59 60 62 69 77 83 90 92 95
36 41 41 47 48 51 54 46 45 50 54 56 58 64 64 65 68 70 69 72 74 74 71 69 68 65 69 69 62 57 55 59 61 53 49 47 42 51 59 62 65 75 79 84 94 96 95 97 98

GFSSGP_prec_cthk_018.txt.gz
RH
7 7 8 10 13 14 25 41 49 50 54 47 35 33 41 48 50 63 62 62 52 44 44 47 46 43 42 43 44 40 34 34 35 37 35 34 33 31 30 31 33 35 37 41 41 36 36 36 28
7 9 10 12 16 25 37 45 44 42 38 27 30 40 38 39 44 42 42 48 48 46 43 38 38 39 36 33 28 27 27 29 27 26 24 23 22 22 23 23 24 24 23 20 20 19 17 16 17
15 9 14 23 24 28 38 42 48 52 38 42 35 44 41 40 38 33 34 39 41 38 32 30 30 24 21 21 21 21 23 23 22 21 20 18 17 19 18 18 16 16 16 17 17 16 16 16 18
9 16 11 23 33 34 38 48 51 44 28 40 41 42 38 42 33 29 27 33 35 25 21 21 19 19 19 20 21 21 21 20 19 17 15 15 17 18 17 15 14 16 16 14 14 13 13 14 15
17 13 23 28 42 42 47 50 39 42 51 37 43 52 44 35 28 25 27 30 28 19 19 17 17 18 19 19 18 17 17 15 15 14 15 17 18 18 15 15 18 19 17 13 10 9 9 9 10
17 21 26 33 40 48 49 41 44 53 58 36 45 45 43 35 29 26 25 27 25 20 18 18 21 20 16 16 15 12 11 12 12 14 16 18 17 16 17 20 22 22 21 19 19 18 15 12 10
24 26 32 37 42 37 35 28 30 38 37 33 40 41 35 34 28 24 24 23 22 21 22 23 22 17 15 11 9 8 7 9 12 14 15 16 19 22 22 23 25 25 24 23 23 23 23 23 22
23 30 35 38 37 38 22 27 29 30 34 27 33 40 33 28 23 23 21 22 24 29 31 30 26 18 20 17 12 10 10 12 14 17 20 27 34 33 34 32 31 29 29 28 29 29 29 29 28
23 28 32 30 28 26 15 15 17 20 24 24 28 28 27 23 21 21 20 23 28 32 33 34 30 24 25 25 24 22 19 28 29 32 31 42 44 45 46 44 45 44 42 40 39 41 40 39 39
21 21 20 20 21 21 13 16 13 15 17 19 24 32 29 23 21 22 24 27 33 38 36 37 33 24 26 33 33 37 38 37 41 41 42 55 44 48 46 46 45 45 41 42 44 41 43 44 43
23 24 20 19 15 16 14 11 12 16 15 18 18 25 24 23 24 25 28 35 38 40 42 43 29 26 37 36 39 48 49 48 46 48 45 42 43 48 44 45 45 43 44 44 42 44 44 46 43
23 24 20 15 10 12 10 9 11 15 18 16 18 20 30 26 25 32 36 48 41 47 44 44 39 28 28 38 43 44 47 50 53 53 50 45 47 46 44 46 43 44 44 45 45 43 43 42 44
16 15 9 6 7 10 10 10 14 13 14 13 20 26 31 31 35 37 42 49 55 52 47 48 46 34 36 36 40 42 47 55 51 53 50 45 45 44 44 45 44 43 44 45 43 41 40 39 39
12 11 9 8 8 8 9 12 13 16 13 14 20 25 32 38 44 42 45 51 49 47 48 56 64 56 45 40 42 44 50 51 52 54 54 50 47 46 45 44 43 44 44 42 39 38 38 38 38
16 17 14 13 13 13 12 18 16 19 17 14 17 23 36 39 45 47 44 48 49 63 56 50 58 67 49 45 46 48 52 51 52 57 56 54 52 51 51 49 49 49 48 44 42 42 42 42 41
16 23 28 24 19 17 16 29 26 23 18 18 19 22 30 39 43 45 47 45 46 50 65 68 64 59 49 51 52 53 54 54 57 64 66 61 58 58 55 55 54 53 51 50 49 47 46 44 43
21 33 35 31 23 24 20 37 36 29 22 21 24 25 26 34 43 47 50 49 51 49 47 50 57 62 58 56 59 60 57 58 64 67 68 65 64 61 59 57 55 54 52 50 49 48 48 45 44
37 26 27 24 25 16 19 27 39 29 24 21 20 29 31 32 45 50 52 45 40 40 44 49 57 63 64 64 61 61 62 64 68 68 69 66 66 62 61 60 58 57 53 51 52 50 47 44 41
28 24 24 32 23 19 15 20 27 23 23 22 24 29 35 40 40 47 45 46 43 43 47 53 54 57 60 61 63 65 64 65 68 70 72 67 69 67 67 64 59 56 52 50 49 45 40 38 40
26 23 26 26 21 17 21 25 28 24 26 28 28 29 34 36 38 42 46 46 45 45 49 52 55 58 62 62 64 63 62 64 68 69 71 69 73 74 70 60 53 50 48 45 42 40 39 40 44
25 22 30 27 23 20 20 26 30 29 29 31 31 34 36 38 39 42 44 45 46 48 52 57 59 60 63 62 61 61 62 64 67 67 71 72 69 65 58 55 53 48 44 39 37 37 37 39 43
27 27 25 21 23 31 34 36 43 42 41 40 35 34 38 40 40 44 47 50 52 55 57 59 60 60 57 60 60 61 64 66 68 67 63 59 58 58 56 53 47 42 40 37 38 45 47 48 50
28 27 22 23 26 26 29 34 45 46 46 48 45 41 41 45 48 51 53 53 55 57 60 64 65 63 61 58 61 64 65 65 62 58 57 58 57 58 55 51 49 47 45 47 54 56 60 59 58
22 26 27 29 30 43 35 41 58 52 52 57 53 45 44 47 50 52 53 56 58 62 63 64 62 61 64 64 61 59 58 56 58 61 62 62 62 58 57 54 50 50 51 49 50 50 50 51 52
32 37 50 68 60 58 51 38 51 50 55 57 55 50 47 48 51 54 58 62 64 62 61 60 59 60 62 64 63 65 63 64 65 65 63 60 57 55 50 51 51 53 52 47 44 46 49 49 53
36 36 52 53 64 55 40 35 51 48 52 53 44 48 49 50 52 57 58 60 61 62 63 62 62 61 60 61 63 66 66 64 61 62 61 54 50 47 48 47 46 47 47 45 46 46 50 51 56
38 44 28 40 49 46 29 54 58 57 58 56 55 55 54 56 59 63 64 63 63 62 61 62 62 63 62 62 60 59 57 56 54 50 47 44 44 39 37 43 47 45 45 46 50 55 58 61 67
30 28 43 54 58 47 37 43 63 65 68 64 62 60 55 57 62 65 64 65 66 64 65 67 67 65 63 61 59 57 55 51 50 45 43 42 38 35 33 37 46 52 56 60 63 66 71 76 82
40 44 38 37 45 54 51 40 46 49 59 59 59 57 60 63 65 65 65 65 63 67 65 71 67 65 61 58 57 57 52 46 44 45 42 38 30 31 33 42 50 55 62 66 71 77 81 85 87
31 36 37 50 44 54 54 42 42 48 52 60 65 63 72 71 69 65 65 67 67 68 68 65 63 59 59 61 57 49 43 46 46 44 39 30 34 38 43 48 51 63 68 71 77 77 72 72 72

GFSSGP_prec_cthk_021.txt.gz
RH
13 12 12 14 17 25 37 45 57 58 52 58 49 48 58 58 62 70 72 65 58 47 46 45 44 42 40 39 39 35 31 29 30 29 26 24 21 19 18 18 19 19 18 18 18 19 19 18 18
13 12 13 15 18 28 45 57 52 53 57 56 55 50 39 48 54 59 62 56 47 43 42 41 40 41 38 33 27 22 21 22 22 20 17 16 15 15 16 16 15 13 12 13 13 14 13 13 13
19 12 14 13 27 38 38 52 54 47 49 47 45 33 32 37 41 52 59 45 43 37 38 36 35 30 23 19 18 19 20 20 19 17 15 14 13 14 14 12 11 12 14 12 10 11 11 11 13
31 18 19 35 41 46 47 54 53 52 53 46 30 37 40 40 42 44 39 35 32 30 26 24 20 18 16 18 19 19 18 17 15 14 13 12 14 16 13 12 14 16 16 14 13 8 7 7 7
18 26 29 42 49 54 53 51 50 52 49 46 41 45 46 41 26 28 26 28 21 19 18 17 16 17 18 16 15 14 12 11 12 13 13 14 15 13 14 18 20 21 20 19 18 18 18 16 13
23 19 34 36 48 55 49 48 50 49 54 57 50 43 40 29 27 29 25 23 16 16 17 17 19 18 15 12 9 7 7 8 10 11 13 13 15 18 21 21 23 23 23 22 23 22 22 21 21
25 35 38 38 49 52 47 46 41 41 43 52 48 40 34 24 25 24 22 20 15 17 19 21 20 17 12 8 7 7 8 9 10 11 15 22 26 28 29 29 29 30 30 30 30 29 30 29 28
35 37 36 42 46 43 40 34 30 35 36 40 32 37 37 26 22 23 23 20 20 22 25 26 23 18 16 13 11 11 12 15 20 23 27 31 33 35 36 40 39 39 36 36 36 36 35 34 35
33 34 35 36 40 39 35 25 22 25 27 28 27 29 29 24 21 22 21 21 24 27 30 28 24 17 21 24 28 25 26 28 30 31 35 37 37 38 38 38 38 37 36 36 36 35 35 35 36
28 28 29 30 30 29 25 19 14 23 23 26 29 29 29 24 20 19 20 25 28 31 31 30 29 21 27 28 34 36 38 38 37 39 37 40 41 42 42 41 40 39 39 39 37 36 35 35 35
24 24 22 24 23 21 18 13 14 16 16 18 21 26 28 25 20 20 21 24 31 34 35 35 33 25 32 32 35 39 40 44 45 46 46 41 44 45 43 41 40 39 39 39 39 38 36 35 35
24 22 21 20 20 18 10 10 13 14 16 17 19 21 21 18 20 20 26 34 39 42 43 40 37 24 30 37 40 41 43 46 49 48 45 43 45 45 44 45 42 41 41 39 39 38 37 34 33
20 17 18 20 18 14 9 10 12 14 17 18 20 24 24 24 25 27 35 43 42 48 42 40 41 40 37 38 41 44 46 47 50 47 47 46 47 47 45 44 43 44 44 44 42 40 38 37 36
13 9 7 4 6 7 10 11 12 13 14 18 21 23 27 30 32 34 38 43 47 47 47 57 73 77 58 58 43 44 45 49 47 48 48 49 50 50 49 49 49 49 48 47 45 43 40 39 40
13 12 12 11 10 9 12 16 18 16 19 19 18 23 29 33 36 40 41 42 65 50 55 69 59 76 70 71 57 50 52 53 52 49 52 53 56 57 55 55 53 52 50 48 46 43 41 42 40
17 21 24 25 26 17 20 27 25 25 24 20 17 22 28 34 39 41 46 44 47 51 48 66 66 74 78 72 70 58 58 58 54 58 61 61 58 57 60 58 56 53 53 51 45 43 41 42 43
33 39 38 37 27 21 22 24 27 28 27 22 20 23 27 35 41 48 46 51 46 45 45 49 52 62 65 67 63 66 63 62 63 66 66 66 65 65 63 60 60 61 59 55 49 46 44 43 42
38 36 38 35 26 23 21 27 34 31 29 28 28 27 32 37 43 44 45 45 47 51 47 47 54 63 60 58 60 63 63 66 68 66 64 64 65 63 64 63 66 63 56 52 46 43 42 40 36
32 30 33 31 26 25 20 27 32 33 31 31 26 27 32 35 39 44 47 48 52 60 55 48 45 51 54 57 62 64 68 69 68 67 66 63 67 67 63 62 57 52 48 46 44 40 36 34 33
32 29 34 27 25 23 19 23 28 30 32 32 30 34 35 38 41 45 49 51 54 55 53 54 55 57 56 59 62 63 62 61 61 62 64 67 67 66 65 57 53 50 48 47 42 41 39 35 37
26 30 29 26 24 19 24 28 30 30 35 39 39 44 41 39 41 44 46 49 51 51 53 52 55 58 60 61 62 61 57 57 60 64 68 68 66 61 57 56 53 53 51 46 46 46 43 44 47
26 26 26 24 22 26 29 39 35 35 37 41 46 50 44 44 42 44 50 50 51 52 54 54 55 60 63 64 61 58 57 59 62 63 61 58 58 58 59 57 55 49 44 42 42 46 48 50 51
25 24 22 22 24 27 32 39 51 49 47 48 50 47 51 50 46 44 45 46 49 51 54 57 62 64 61 56 55 54 55 55 55 55 57 59 58 56 52 46 42 41 43 45 44 47 50 55 56
23 27 29 34 34 45 47 49 58 53 55 55 53 56 60 59 50 47 45 46 49 52 57 62 61 61 62 62 61 61 59 58 57 57 56 52 49 45 43 42 41 38 36 35 34 37 40 38 48
30 35 53 57 74 67 51 56 69 58 51 53 56 57 59 55 54 54 53 54 58 59 57 57 57 58 60 61 61 60 60 59 58 55 52 48 41 40 37 32 28 28 28 31 33 38 41 46 47
32 35 51 54 70 62 45 59 63 60 60 66 69 69 66 62 62 62 56 54 58 62 64 64 64 60 60 59 56 55 54 52 51 52 50 43 35 34 36 33 30 34 37 40 44 46 46 47 49
35 39 29 45 47 51 53 59 64 65 66 68 70 72 73 69 60 58 62 61 63 63 62 64 63 62 60 60 59 59 57 53 52 46 36 33 37 39 36 28 28 36 41 44 46 47 50 58 63
31 27 43 47 51 47 44 58 65 62 63 66 69 71 71 64 63 67 70 71 69 66 66 64 63 62 63 63 62 61 55 49 39 34 35 37 40 40 28 28 33 38 43 47 53 59 62 67 75
35 38 34 34 46 56 59 48 44 56 61 65 61 64 65 66 69 70 70 68 65 64 61 59 61 59 58 57 58 53 43 36 34 34 33 35 35 27 30 34 36 42 46 50 56 60 59 58 58
26 32 34 48 44 59 64 51 42 53 58 66 73 73 71 73 70 72 68 65 62 62 59 59 58 58 58 55 50 41 43 45 46 40 34 38 38 34 32 35 41 47 51 56 56 52 48 44 48

GFSSGP_prec_cthk_024.txt.gz
RH
26 23 18 18 27 33 44 47 57 55 58 58 59 60 64 64 64 70 67 64 62 56 49 46 46 44 40 37 32 30 27 23 22 20 18 16 15 14 15 15 15 13 11 10 11 12 12 12 11
20 20 27 21 24 37 50 53 57 64 61 59 59 59 61 71 64 65 66 65 55 50 45 45 43 39 38 32 25 19 17 17 17 17 15 14 12 11 12 11 8 9 10 11 10 9 10 10 11
10 17 15 16 30 34 47 52 56 59 62 63 61 62 61 63 56 51 59 54 54 46 41 41 39 35 27 18 16 17 18 18 17 15 14 11 10 12 9 9 11 13 13 13 12 11 8 7 7
21 21 16 31 36 39 44 47 51 58 56 56 53 52 53 51 39 41 45 44 42 40 37 34 28 21 16 16 17 17 15 15 14 12 11 11 12 10 10 13 16 17 17 17 17 17 17 17 15
38 23 30 48 54 50 57 58 59 54 58 55 51 52 46 46 36 34 35 35 34 29 23 21 17 16 17 16 14 12 8 9 10 11 11 10 10 13 16 18 20 20 20 21 21 22 22 22 21
32 35 39 42 50 56 54 56 55 54 50 49 51 44 38 31 26 29 27 22 18 17 18 18 18 17 15 10 7 6 7 8 9 9 9 12 17 21 21 22 24 25 28 28 28 29 30 30 29
32 34 41 41 50 54 57 58 53 49 48 49 49 41 32 29 26 28 22 15 16 18 18 20 20 18 11 7 6 8 9 11 12 15 20 22 24 26 29 30 31 30 30 30 31 30 30 30 31
27 34 38 44 52 56 59 52 49 48 48 44 35 31 30 24 24 25 21 15 17 20 23 23 20 15 11 10 11 13 15 17 21 24 29 30 31 32 32 31 32 32 32 31 30 30 30 30 31
36 38 40 40 49 47 45 43 41 44 43 32 27 26 25 20 21 22 20 20 23 25 26 24 18 17 20 25 25 26 28 30 29 32 35 36 37 38 36 35 35 36 35 34 33 33 33 33 32
33 34 33 39 43 41 38 35 31 32 31 30 28 28 26 20 20 20 20 21 21 24 25 25 23 19 25 30 33 35 35 35 37 38 38 36 38 40 41 39 37 36 36 37 36 35 34 34 33
30 28 26 31 35 35 29 23 18 18 22 19 21 24 25 25 21 20 20 18 27 33 34 35 34 25 26 32 38 39 41 39 40 39 41 39 40 41 41 40 39 38 38 39 38 38 36 35 35
25 24 22 24 26 24 21 17 10 11 14 16 17 18 21 23 22 20 20 29 35 37 42 44 37 29 29 35 42 45 43 43 44 42 42 39 40 42 43 43 45 44 43 42 42 41 41 39 36
24 23 23 23 20 19 17 13 10 12 15 19 23 23 25 22 17 20 27 35 39 41 45 48 48 54 48 51 50 51 50 48 49 49 48 43 42 45 46 49 49 49 48 46 45 44 42 39 36
21 19 16 19 21 14 10 10 11 14 19 23 23 23 24 28 28 29 31 35 46 52 54 53 71 56 59 58 62 59 57 59 56 54 52 48 49 51 49 51 53 52 49 47 46 46 44 39 35
16 7 6 9 13 10 10 12 17 20 26 27 24 23 26 31 34 34 35 36 43 52 56 47 55 69 58 67 62 63 63 60 57 55 54 55 55 55 56 56 57 56 53 50 51 52 50 45 39
14 16 26 26 19 12 17 24 29 27 26 28 24 24 28 33 37 41 42 45 44 47 52 58 55 57 59 63 61 61 63 62 60 63 62 63 64 61 58 56 58 61 58 56 54 54 48 43 38
29 25 29 29 29 25 23 29 30 26 26 29 28 27 33 38 41 44 43 45 47 52 60 69 73 70 71 63 61 59 61 66 68 70 71 72 70 68 65 63 65 66 62 59 54 48 42 38 35
37 33 29 31 29 28 29 25 25 23 27 29 28 30 36 38 43 45 47 47 53 61 67 74 74 76 71 61 62 66 72 70 68 70 70 69 66 66 69 68 71 66 62 53 48 43 40 36 33
36 35 34 34 31 29 31 29 28 29 31 33 37 39 38 39 46 51 56 62 70 72 72 76 79 70 67 67 65 71 71 71 73 72 68 67 68 71 72 74 71 61 55 50 47 45 40 39 37
40 37 37 32 30 30 26 26 31 33 37 36 37 38 36 45 50 52 58 61 62 70 70 66 66 66 66 63 66 69 71 73 72 69 69 70 73 74 70 63 60 57 54 53 49 44 38 37 39
41 38 37 36 31 28 26 31 32 35 37 40 44 45 49 53 55 58 59 58 61 59 57 58 57 58 59 62 63 66 68 65 63 65 67 68 65 62 61 59 57 53 46 39 36 36 37 41 42
29 29 35 32 28 24 24 40 39 42 43 44 44 45 47 58 57 56 54 52 50 50 50 52 56 57 57 59 60 60 57 57 58 59 60 60 59 56 53 47 39 36 33 33 34 38 35 38 35
23 22 23 25 25 27 34 42 46 47 48 49 52 57 60 60 58 59 55 51 46 43 45 49 50 50 50 49 51 54 56 57 55 56 56 57 55 50 44 38 34 33 30 28 29 29 28 34 39
23 24 28 32 34 42 43 46 54 53 51 59 62 62 60 58 60 58 50 46 49 51 50 49 50 54 56 56 56 54 54 56 58 59 60 54 52 45 36 32 32 29 24 27 28 30 33 34 35
26 34 50 55 63 62 51 58 59 59 58 60 60 56 58 63 64 58 56 58 54 52 54 57 59 60 61 58 56 57 59 62 62 61 59 53 38 31 31 32 30 27 27 28 31 31 33 36 38
30 33 47 54 62 58 46 56 55 53 62 59 62 66 69 73 67 64 62 62 64 65 67 64 62 61 58 56 56 56 56 58 57 51 42 31 31 31 33 34 25 22 22 25 29 32 36 39 45
34 32 31 43 48 54 52 53 56 61 64 69 76 77 73 67 68 61 65 72 74 75 72 69 65 64 61 59 58 59 60 57 51 41 34 34 37 39 38 35 28 26 27 28 30 32 37 41 48
25 27 37 40 43 45 49 55 62 58 61 60 57 62 62 63 64 69 74 76 76 76 75 66 62 59 56 55 57 59 54 44 36 37 40 46 45 45 44 43 37 43 41 41 44 40 44 49 54
31 31 31 33 43 49 57 47 41 50 55 56 54 59 64 71 77 82 84 81 80 73 68 64 61 57 55 52 52 49 42 36 38 39 40 43 49 53 57 66 67 60 60 58 51 50 44 48 47
27 29 31 41 36 53 53 46 45 48 53 55 60 63 73 77 79 77 76 76 69 66 63 59 55 51 50 50 45 39 39 40 40 43 41 43 50 59 76 84 76 70 76 70 61 51 43 42 45

GFSSGP_prec_cthk_027.txt.gz
RH
31 27 19 36 34 35 38 34 56 54 58 61 68 70 74 76 76 77 78 72 64 61 59 52 47 46 43 39 34 29 26 21 18 17 16 15 14 11 11 11 10 8 9 10 10 9 9 10 12
29 32 27 24 36 38 52 46 59 62 65 65 66 70 76 84 77 78 76 72 65 56 59 51 46 42 39 36 28 21 17 16 17 17 15 14 11 10 9 7 9 11 11 12 12 12 10 8 8
20 32 36 34 34 44 49 54 63 67 67 68 71 68 68 78 70 65 67 65 60 59 52 48 41 37 33 25 18 18 18 16 15 14 12 10 9 8 8 11 14 16 16 16 17 17 18 18 16
20 17 22 25 23 30 45 52 58 61 67 67 71 75 70 68 63 57 55 52 49 50 46 41 36 27 21 17 17 16 14 12 11 10 10 9 8 9 13 17 18 19 19 20 21 21 22 23 22
22 17 23 37 39 47 46 59 59 58 63 63 66 69 69 67 59 54 49 43 45 42 37 30 24 19 16 17 15 10 6 7 8 8 8 9 13 18 20 22 23 25 25 25 26 27 29 29 29
38 28 41 51 54 57 59 59 62 64 61 61 65 60 54 50 44 36 35 38 38 29 22 19 18 18 17 13 7 6 7 9 10 12 16 21 23 25 26 26 26 26 27 28 29 28 28 29 30
41 33 38 42 63 57 58 64 67 62 61 62 58 54 56 45 40 29 28 23 19 17 17 19 19 16 12 7 6 8 10 12 16 20 23 25 29 31 31 32 32 30 29 28 29 29 28 28 29
42 41 38 39 50 61 58 63 65 61 58 52 45 37 42 31 28 19 16 16 16 19 21 22 18 13 9 8 11 14 17 20 23 27 31 33 36 35 34 33 32 32 32 32 32 33 32 31 31
39 37 41 43 52 59 60 61 59 51 44 42 37 24 25 21 21 19 16 17 19 23 25 21 15 15 15 19 21 22 25 27 30 32 34 35 36 36 38 37 38 38 39 38 38 37 36 36 34
32 34 38 43 50 52 49 49 46 39 35 35 28 26 24 20 19 17 15 16 19 22 23 23 17 17 22 27 29 32 31 32 34 34 34 34 37 38 38 37 39 42 43 43 43 41 41 42 41
33 34 36 42 42 42 41 41 33 28 26 24 24 26 21 18 18 19 18 18 24 32 32 32 27 24 27 30 33 35 37 39 42 41 40 39 39 39 38 39 40 41 43 44 46 44 43 44 43
30 32 28 36 41 37 34 29 27 14 17 17 16 16 18 21 20 20 18 23 31 39 37 37 37 35 37 39 42 44 50 54 54 48 46 44 43 43 42 43 43 44 46 48 47 45 44 44 43
27 26 25 24 24 24 23 22 14 13 16 19 20 22 22 23 21 19 20 31 39 41 43 43 48 51 50 51 53 56 58 53 54 52 52 47 42 45 48 48 49 48 48 48 48 48 48 47 47
26 23 22 21 21 21 17 12 10 17 23 25 22 23 26 28 28 29 33 34 39 42 48 48 49 48 51 54 56 52 50 50 52 53 54 53 52 55 57 58 57 55 52 51 51 51 49 47 45
23 19 14 17 14 10 9 11 14 20 25 25 25 26 31 35 38 38 40 39 40 41 48 53 51 51 60 56 57 55 54 53 55 56 59 59 59 62 62 61 60 57 55 53 55 56 52 48 44
22 18 21 17 14 12 12 17 22 26 28 28 29 31 36 40 40 40 42 43 45 48 55 65 70 79 78 69 66 65 64 64 62 64 65 64 66 67 65 61 57 58 58 56 57 57 50 44 37
18 28 26 27 22 19 20 24 28 32 32 31 34 34 36 40 43 43 42 44 51 54 61 78 83 83 87 83 74 66 64 62 65 70 69 71 73 71 67 65 66 65 62 59 54 51 45 38 35
24 28 28 31 31 26 28 28 27 27 30 32 35 36 36 40 41 45 50 54 57 66 75 85 82 84 84 79 72 73 66 69 73 73 74 76 73 71 72 72 69 64 60 57 51 46 42 39 35
31 28 31 31 32 33 31 29 28 25 29 35 40 40 41 42 45 52 54 57 62 67 75 82 85 82 80 77 76 69 70 72 72 72 76 75 73 73 71 67 62 60 55 50 48 43 37 31 28
37 32 31 32 34 31 31 32 31 31 33 36 37 41 47 52 59 61 64 70 77 79 78 74 75 76 73 68 67 69 69 70 74 75 73 73 72 67 63 61 58 54 49 42 36 32 30 29 29
42 38 37 37 36 34 34 32 35 38 39 41 47 49 58 59 58 58 67 70 70 68 66 62 58 56 56 59 64 67 69 71 71 68 66 63 61 59 56 54 49 43 38 34 30 29 29 28 25
39 39 38 37 38 39 34 41 38 41 47 52 54 54 58 64 65 69 71 66 65 60 57 55 55 56 58 63 63 63 63 64 65 66 64 63 64 63 56 49 41 35 31 28 26 25 25 26 27
26 28 29 32 33 33 36 40 40 46 50 54 56 58 60 66 69 65 65 64 64 60 56 55 57 57 55 58 61 62 62 63 62 61 60 58 55 50 43 37 30 27 24 22 21 21 23 24 27
27 30 33 37 36 43 41 40 44 46 48 52 57 63 68 72 71 67 66 68 64 63 64 60 62 61 62 62 61 60 55 53 55 56 56 51 47 41 33 27 27 28 26 24 22 23 23 23 25
27 33 45 51 56 54 45 49 48 46 49 55 58 65 65 62 67 71 73 78 74 72 68 68 67 66 63 57 55 54 54 55 55 53 50 46 37 32 34 37 37 38 32 28 27 30 33 34 34
30 33 49 48 58 55 49 54 52 48 48 51 55 58 60 67 74 79 73 70 65 67 69 67 68 64 59 57 56 54 54 51 50 47 41 34 30 30 30 36 44 48 46 43 39 44 44 44 44
34 32 32 44 50 53 49 44 45 47 51 55 57 59 67 69 62 59 59 62 66 70 70 69 66 59 59 57 55 52 48 47 44 37 33 32 34 36 40 42 49 51 59 64 60 60 58 57 49
29 30 37 39 41 43 43 48 51 47 50 54 59 60 56 55 55 60 66 72 71 69 74 70 65 64 62 56 51 48 45 39 34 34 36 41 43 45 49 55 57 64 69 68 73 72 72 66 57
30 28 30 34 42 46 52 43 35 43 46 48 49 51 54 57 62 68 72 76 76 78 75 69 64 62 56 52 48 42 34 34 36 40 43 46 49 57 60 53 59 76 80 89 78 79 74 68 58
27 28 27 34 31 49 48 39 33 40 44 46 50 54 56 60 65 71 76 79 79 78 72 67 65 58 55 50 41 37 35 36 38 39 42 50 52 51 49 50 54 75 81 84 87 84 77 72 60

GFSSGP_prec_cthk_030.txt.gz
RH
23 30 33 34 40 48 39 45 52 55 61 64 65 72 81 81 79 79 80 82 80 75 66 60 53 51 43 40 38 33 27 22 18 18 17 16 13 10 9 7 9 10 11 11 12 12 11 11 9
27 32 31 28 37 43 47 42 63 65 69 72 75 83 85 91 89 87 84 83 78 73 62 56 52 49 40 36 32 22 19 17 17 16 15 12 10 7 8 10 13 14 15 15 16 16 16 16 16
28 27 33 31 35 40 49 56 70 73 70 67 67 68 76 84 87 81 76 74 70 67 66 58 51 42 36 29 19 17 17 15 14 12 11 10 7 8 12 15 17 18 19 19 20 21 21 21 21
33 29 28 35 32 32 42 68 64 73 71 68 69 71 72 78 78 71 66 64 63 63 60 52 45 33 25 17 17 16 12 8 9 9 9 8 11 15 18 20 21 22 23 23 24 25 26 25 25
37 31 22 34 43 38 41 62 71 72 70 67 65 67 66 72 71 65 58 52 54 55 51 45 30 22 17 16 14 9 6 7 7 8 12 17 19 21 23 25 25 25 27 28 27 27 28 29 29
39 30 23 47 47 40 47 63 73 70 76 70 66 64 69 59 55 47 49 49 50 47 38 27 21 17 16 14 7 6 8 10 13 18 22 23 25 26 28 28 28 28 28 28 28 28 28 27 27
44 40 34 60 56 50 59 68 69 77 71 66 64 57 55 51 48 41 43 46 43 30 20 18 19 16 14 8 6 10 12 17 20 24 27 29 30 30 30 31 31 32 34 34 34 33 32 31 31
41 42 40 42 61 62 60 66 76 66 61 54 51 52 48 39 33 36 39 31 21 18 20 20 17 13 9 7 11 15 18 21 28 31 32 32 30 30 31 32 35 36 38 39 42 41 38 37 35
40 43 43 38 50 70 68 67 65 66 60 48 46 37 32 28 24 24 20 17 18 20 21 19 14 11 10 14 18 22 25 30 33 33 33 34 34 34 34 35 37 38 40 38 40 43 43 42 40
37 45 42 39 51 56 55 51 55 64 45 40 37 36 31 21 17 15 16 16 18 21 19 16 16 16 20 22 24 29 31 35 37 41 44 46 44 41 41 40 40 40 40 40 41 43 43 43 44
36 35 36 39 52 55 53 53 50 45 31 25 27 30 27 20 17 15 15 17 22 28 28 23 19 23 26 31 33 36 38 44 48 51 51 48 46 45 42 43 43 44 45 44 45 46 47 48 46
33 36 36 43 49 52 47 38 40 31 19 17 21 22 20 18 17 17 16 23 29 33 36 36 35 33 40 41 44 48 51 52 52 54 50 48 45 48 47 46 46 48 49 49 48 47 48 49 50
32 31 30 38 41 36 34 32 29 21 20 20 22 22 21 21 21 20 17 28 34 39 44 45 45 46 50 52 54 56 60 57 54 52 53 50 48 51 51 54 54 56 55 55 52 50 50 51 54
29 26 26 26 26 23 25 24 19 19 24 23 23 27 28 29 29 27 26 35 41 47 51 51 50 51 53 54 59 64 64 62 59 58 57 55 54 54 55 57 60 62 59 57 55 54 55 52 51
26 25 24 22 22 23 18 14 14 24 27 25 28 32 32 33 34 33 36 41 46 50 52 60 61 60 63 67 68 73 74 71 66 62 61 60 61 61 61 63 65 65 62 59 58 58 56 53 51
25 21 21 18 16 13 11 13 18 29 29 29 32 36 37 37 39 39 38 42 46 50 55 67 72 74 80 86 87 85 76 78 77 69 65 66 68 66 66 69 68 66 63 61 59 53 49 48 44
25 27 24 17 13 12 15 22 29 35 37 34 33 35 37 41 43 44 46 47 49 51 59 69 80 88 94 90 89 89 84 78 69 68 70 73 72 70 71 71 67 62 59 55 51 49 47 43 38
21 31 28 25 23 22 21 25 31 36 38 37 37 40 40 41 45 51 53 55 58 56 62 74 85 93 89 92 91 78 72 69 70 72 73 72 71 70 71 66 62 57 54 52 47 43 39 32 27
24 28 28 29 26 28 35 36 35 32 37 39 41 41 44 45 47 53 58 59 62 71 78 86 90 91 91 84 79 73 69 68 68 69 69 68 66 64 61 56 53 51 47 41 37 33 30 27 24
26 30 32 31 30 30 37 38 35 31 36 37 39 43 46 48 55 58 60 64 74 82 83 89 84 73 70 65 61 61 62 61 63 63 62 62 63 60 57 55 50 45 40 37 34 30 26 22 19
39 32 35 36 36 36 36 37 40 34 32 34 39 43 48 52 57 61 64 71 79 78 72 67 65 62 60 57 55 56 57 58 60 60 60 59 57 54 51 47 43 41 37 29 23 20 18 17 16
40 39 35 38 38 42 38 42 42 41 39 39 44 49 52 54 59 63 70 70 65 61 58 59 59 60 59 58 60 61 60 63 63 61 60 58 54 52 48 44 38 31 27 26 24 22 21 22 24
29 30 34 36 37 37 39 41 37 43 46 48 52 55 56 58 68 64 67 65 63 63 64 67 67 69 67 69 69 64 63 63 61 59 59 55 50 46 38 29 26 25 27 29 28 27 27 26 27
26 29 33 37 38 44 38 35 36 40 40 47 54 56 59 61 67 68 64 64 68 71 80 81 77 73 73 72 68 64 63 59 57 55 50 48 44 36 26 25 25 26 28 32 34 33 33 34 33
28 32 44 48 51 50 40 43 38 42 45 51 55 55 55 60 61 63 68 71 78 77 75 74 76 76 75 71 63 62 60 56 52 49 46 39 32 29 29 29 31 35 40 38 35 44 44 45 47
30 33 47 46 56 51 44 48 43 44 45 48 50 52 55 59 63 68 70 70 65 66 71 74 75 77 74 66 62 60 53 49 47 41 36 35 33 32 33 36 41 45 44 45 49 53 61 59 59
33 35 35 49 50 55 50 43 41 39 40 43 47 51 54 58 63 63 60 60 64 68 72 75 77 74 71 65 59 54 53 50 44 40 37 37 37 39 45 45 48 51 58 68 63 69 70 73 70
34 34 37 40 39 38 39 41 43 40 42 43 46 51 56 57 56 56 59 60 63 68 72 74 72 69 64 63 59 57 52 45 42 43 44 39 40 45 49 50 46 44 46 55 64 69 73 79 76
34 31 32 34 40 42 47 40 30 34 37 41 45 48 49 52 54 57 60 63 66 68 73 73 71 69 72 64 57 49 44 44 46 44 40 40 40 35 28 29 35 38 46 54 60 60 67 76 77
30 29 28 33 28 46 44 34 27 32 36 40 44 47 48 52 58 62 65 67 70 74 73 69 77 79 65 58 51 47 48 47 44 40 37 36 30 28 26 31 41 45 49 52 56 67 81 80 81

GFSSGP_prec_cthk_033.txt.gz
RH
24 20 23 29 32 38 50 46 49 62 67 66 62 63 65 66 67 71 77 79 81 81 77 71 69 57 51 48 42 36 30 24 19 17 17 15 13 8 8 11 13 14 14 14 14 15 15 16 15
23 21 26 29 34 36 47 49 60 71 74 79 74 73 71 73 81 81 82 80 79 80 73 65 65 57 51 44 37 26 20 18 18 16 14 13 7 9 12 14 16 17 17 18 19 19 19 20 20
24 27 26 28 30 35 42 56 68 80 80 80 81 79 80 85 87 91 86 85 84 75 64 63 62 54 45 37 23 20 18 15 13 12 11 8 10 14 16 19 19 21 21 22 21 21 23 23 23
30 33 28 30 33 30 43 64 66 83 83 83 78 77 75 80 77 82 89 88 76 68 63 57 54 45 35 22 18 17 10 8 9 8 9 13 16 18 20 22 24 25 24 24 23 24 26 25 25
31 31 33 32 33 38 42 61 71 72 82 80 74 68 75 78 77 82 86 74 69 64 59 54 45 30 23 18 16 8 7 8 10 15 19 21 23 24 25 26 27 26 26 26 26 26 26 26 25
34 33 32 42 42 46 46 58 68 69 75 74 70 67 65 67 79 76 74 64 62 59 53 43 28 22 19 17 9 8 9 13 18 22 25 27 27 27 28 29 28 28 29 31 32 31 30 30 28
33 34 37 49 46 50 55 62 74 71 68 67 66 67 57 60 61 62 72 64 60 52 39 26 20 20 17 12 8 11 15 20 25 28 30 29 30 31 31 30 31 32 32 33 32 33 33 34 34
34 35 46 61 54 55 58 68 74 69 61 61 68 57 51 50 46 46 49 49 44 30 21 20 20 16 12 8 12 17 21 28 31 33 33 33 31 32 35 36 37 39 37 35 35 36 36 35 36
35 43 43 50 62 72 67 71 72 65 58 63 60 52 36 36 35 40 42 35 23 19 20 20 17 12 10 14 19 23 28 33 34 36 37 40 43 45 43 43 43 43 43 41 41 40 39 40 41
40 42 44 43 46 50 57 60 56 59 66 60 52 43 37 29 32 34 27 19 17 20 21 18 14 14 16 21 26 30 34 37 41 45 45 46 48 45 44 46 46 44 42 43 44 45 43 42 42
41 43 44 41 49 54 57 59 48 48 50 35 33 38 32 23 24 19 16 16 20 24 22 18 18 22 27 30 35 36 41 51 53 49 48 52 50 46 46 46 45 47 48 46 46 48 47 45 45
41 36 38 40 50 56 61 61 38 34 29 23 23 29 21 17 16 15 17 22 29 34 32 24 28 33 36 40 44 49 51 56 56 57 56 52 50 49 48 49 48 50 50 51 53 52 51 50 49
37 37 40 41 49 49 53 41 34 29 24 22 22 22 19 18 18 18 22 29 39 42 47 42 39 48 50 50 55 60 61 61 63 66 63 58 53 53 53 54 56 57 58 59 58 56 55 54 53
34 33 31 38 39 40 35 31 35 31 27 24 28 26 24 23 25 25 28 39 47 56 57 55 52 50 54 61 63 66 69 72 72 72 76 75 67 62 59 60 61 62 63 63 61 60 56 54 53
28 28 27 30 35 32 30 25 23 32 31 30 35 35 33 33 34 33 34 44 53 57 63 59 57 59 62 72 74 77 85 80 82 76 73 70 68 66 66 66 66 66 64 62 60 58 58 54 48
30 29 24 23 21 25 17 17 23 34 32 32 35 38 36 37 37 38 40 46 50 60 61 68 73 81 82 84 85 91 86 83 83 73 66 70 71 72 72 70 67 63 63 59 56 51 47 42 39
27 21 22 20 19 15 14 21 27 37 36 35 35 38 39 40 43 48 50 52 54 58 62 66 75 82 88 93 90 91 83 84 76 71 73 73 72 71 69 65 64 62 56 52 48 42 37 32 30
25 29 30 22 17 16 21 32 37 43 42 39 39 40 40 41 45 48 52 54 57 60 64 70 76 87 94 85 89 79 77 73 74 74 72 67 64 63 63 61 59 54 50 44 40 36 32 29 25
22 29 29 29 26 30 36 35 35 39 40 40 39 39 42 44 47 52 55 56 58 62 70 80 85 94 93 84 69 67 71 66 62 59 59 58 58 59 57 54 49 46 43 41 37 33 27 20 17
29 34 37 31 30 30 35 38 39 33 34 37 39 41 44 47 51 54 57 59 64 72 79 93 87 71 62 62 60 58 59 60 62 59 56 56 56 54 52 48 46 44 40 33 26 22 21 20 18
35 39 40 37 38 36 34 34 38 37 34 34 39 43 46 49 54 59 60 59 65 71 70 67 60 55 56 60 65 68 70 67 64 62 61 61 56 53 50 46 40 32 25 22 21 21 22 22 21
39 35 30 32 33 33 32 29 34 37 37 35 37 41 47 50 53 58 61 66 64 67 63 58 55 60 68 74 76 73 70 68 68 69 63 60 55 51 47 38 31 26 25 24 26 26 26 26 30
42 40 40 39 34 35 35 32 30 38 36 37 38 45 50 57 59 60 65 66 66 63 62 67 74 73 75 76 76 69 67 68 66 62 58 55 51 46 39 32 29 28 28 30 32 32 34 36 37
36 32 33 34 33 36 37 33 27 34 32 40 47 52 58 59 59 57 61 63 63 64 68 74 74 74 69 71 72 72 71 67 62 58 54 48 41 37 35 35 34 33 35 37 37 37 44 48 41
32 29 35 38 42 39 36 38 31 35 40 44 49 54 56 55 54 57 59 62 67 69 68 64 65 69 73 74 75 72 66 63 59 53 46 44 43 41 40 39 39 41 41 42 42 38 53 55 46
31 32 38 39 45 43 41 41 34 38 39 45 49 51 49 50 52 55 58 61 63 61 60 62 65 70 74 75 71 65 64 60 55 50 50 48 46 44 41 40 41 41 40 37 46 44 49 51 53
34 30 33 44 50 45 38 37 35 36 35 39 43 44 46 50 52 57 57 57 56 56 59 62 64 67 71 70 66 69 66 59 55 53 49 46 43 38 36 33 27 26 32 34 44 41 50 52 56
32 34 36 37 39 34 30 32 27 30 32 34 38 40 44 49 52 52 54 54 57 60 62 65 66 69 67 69 75 69 63 58 56 51 46 42 36 33 30 26 24 27 34 44 52 46 49 55 56
35 35 34 32 34 29 31 22 24 25 28 30 34 38 43 47 48 49 52 57 60 64 67 68 70 75 71 75 68 62 61 57 51 48 41 33 30 30 29 26 27 32 41 47 53 47 52 57 64
32 32 28 30 28 37 34 24 21 24 26 31 35 38 41 44 46 49 55 61 65 69 71 76 70 73 78 67 64 62 58 53 48 39 33 34 35 31 28 28 30 37 43 46 50 53 56 60 62

GFSSGP_prec_cthk_036.txt.gz
RH
23 22 20 25 30 31 37 37 46 62 70 69 64 64 67 62 63 70 74 78 82 81 79 76 73 69 58 52 46 40 34 26 20 18 17 14 10 7 10 12 13 14 15 16 17 17 17 18 17
23 20 24 30 29 34 37 41 52 67 76 73 70 71 68 66 74 71 78 83 85 82 82 76 69 67 57 53 42 31 26 21 18 15 13 10 8 11 14 16 18 19 19 20 20 21 20 21 21
24 24 28 29 27 34 41 56 67 67 73 75 78 74 73 79 81 81 83 85 83 83 82 75 65 62 57 46 29 26 21 16 14 13 10 10 13 16 17 20 22 23 23 23 23 23 23 23 24
26 28 29 29 28 30 47 62 64 62 73 73 75 82 80 80 84 82 81 91 89 90 86 66 65 61 50 31 25 21 14 12 11 9 12 16 18 21 23 25 25 24 24 25 25 24 24 23 23
32 34 32 33 36 37 43 60 67 69 69 78 79 75 80 83 74 78 83 92 94 90 76 70 71 54 33 24 21 13 10 11 12 17 20 22 24 26 26 25 26 27 27 27 26 27 27 27 27
34 34 33 33 47 48 49 60 68 70 71 69 72 72 74 72 77 74 89 96 91 82 76 71 55 33 26 22 14 10 11 16 20 23 26 27 27 27 28 29 29 29 30 30 30 29 29 29 28
32 32 32 47 56 55 56 59 61 64 67 63 67 69 68 69 81 80 75 76 76 75 70 59 37 27 24 17 10 12 17 23 27 29 30 30 29 30 32 34 38 40 39 36 36 34 33 33 32
30 30 43 58 62 61 58 65 62 60 65 64 66 65 63 59 62 72 69 74 67 68 57 39 33 30 19 11 11 17 24 30 32 34 34 35 37 38 40 40 42 42 43 42 39 38 36 36 36
26 31 40 62 68 65 62 60 61 63 71 67 67 62 52 57 47 55 59 59 60 48 35 33 31 26 19 16 17 24 30 36 36 37 42 47 49 47 47 44 42 42 43 42 45 43 42 39 38
28 34 39 47 57 55 60 59 61 52 56 63 62 58 45 48 41 49 50 48 36 29 29 24 19 14 13 22 24 29 37 42 45 49 51 55 49 52 53 46 45 45 43 42 42 42 41 43 43
26 38 41 40 51 57 61 56 53 50 52 48 52 54 44 41 44 46 43 27 28 30 29 24 15 15 19 27 33 39 44 45 52 54 54 56 56 52 54 49 51 49 47 49 50 50 47 47 45
35 41 38 35 49 55 51 54 53 45 35 33 39 50 35 34 39 30 26 28 30 30 26 20 19 23 27 35 42 43 50 58 65 62 66 66 64 61 59 57 56 56 58 57 56 55 51 50 49
39 35 35 50 56 51 50 51 52 42 25 23 31 37 29 27 27 26 27 32 36 37 29 28 30 34 38 42 48 54 60 66 67 72 78 84 79 75 70 67 62 64 62 62 62 59 56 53 51
35 38 39 44 48 47 43 46 51 36 26 26 26 30 27 25 25 26 29 37 44 49 46 41 48 50 48 51 55 63 66 76 77 80 88 88 87 75 73 70 68 68 67 64 62 59 58 55 52
37 34 37 42 43 39 40 39 34 33 34 37 34 33 30 28 28 32 37 45 50 60 71 66 56 60 66 69 70 77 84 84 81 85 87 84 84 81 76 71 69 68 65 62 60 57 54 50 45
28 30 33 39 33 31 32 29 28 32 35 43 42 40 38 36 34 36 42 45 53 60 70 68 83 83 85 88 91 89 86 80 83 84 83 83 78 74 72 69 65 65 61 59 56 51 48 41 38
34 31 27 24 24 26 20 19 26 34 37 41 45 44 45 44 45 47 47 52 57 65 70 70 85 85 89 94 94 93 84 81 80 76 78 77 73 67 63 63 62 60 56 52 48 45 41 36 33
30 22 22 22 21 21 18 28 27 37 43 40 43 46 44 44 47 50 53 54 58 65 68 71 78 86 90 89 89 83 80 75 72 67 66 64 60 58 57 58 56 52 50 46 41 35 30 26 28
26 33 33 29 19 18 19 30 33 37 44 41 40 42 43 45 45 48 50 53 60 63 67 72 80 84 94 80 72 69 65 65 65 60 61 61 59 59 58 55 52 49 48 40 33 28 28 27 29
24 34 39 34 29 26 28 31 34 36 38 38 39 40 40 45 46 47 53 55 60 66 74 81 83 76 70 61 59 65 66 65 64 64 67 67 67 66 63 60 58 51 43 37 33 30 27 28 30
34 35 36 34 33 33 34 34 35 33 34 35 34 39 41 45 48 52 57 61 65 72 72 70 68 64 58 63 70 70 70 70 69 74 73 72 68 65 60 54 47 39 36 34 32 33 32 31 30
39 34 33 37 39 39 34 34 35 35 35 35 36 39 44 46 50 53 55 62 67 70 67 66 67 67 66 66 70 71 75 72 70 74 75 69 65 60 52 43 37 36 35 34 37 36 33 37 38
42 34 35 35 35 32 33 31 38 33 32 34 34 39 42 46 50 55 62 61 63 67 69 69 64 65 65 66 68 69 71 72 74 72 69 68 63 51 44 43 41 39 40 42 41 39 41 45 43
41 42 37 34 37 34 33 29 23 27 26 29 34 38 42 49 55 60 59 57 58 58 61 64 64 65 64 64 66 70 71 72 70 69 69 63 59 54 53 51 44 42 43 45 48 48 46 53 57
37 38 34 33 35 30 31 26 21 27 30 36 41 45 47 52 55 56 53 53 55 58 59 61 60 62 65 66 67 68 67 64 68 70 62 56 57 57 55 50 46 45 44 41 40 55 55 56 58
35 32 30 27 32 32 32 31 33 31 32 37 42 46 47 50 51 51 53 55 56 57 60 59 61 62 63 64 65 66 62 68 67 58 56 56 56 53 47 42 37 39 39 40 42 53 57 61 50
31 29 31 35 40 39 29 28 28 29 30 34 39 42 45 45 48 51 54 58 58 58 59 59 62 64 62 62 70 69 65 64 58 54 54 55 49 45 41 40 39 38 39 41 44 53 56 55 51
31 32 31 33 37 29 23 22 21 25 26 29 35 38 41 42 45 50 56 57 55 55 58 62 64 63 65 72 71 66 68 61 56 54 54 50 43 38 37 35 34 35 38 39 44 47 51 59 48
34 32 32 31 30 24 21 17 18 19 22 26 31 35 39 42 46 50 56 53 54 59 64 66 65 66 68 65 67 70 63 57 53 53 50 43 39 38 38 37 36 36 39 41 40 42 54 55 53
31 33 31 28 27 31 29 18 16 18 19 23 27 33 37 42 44 50 52 52 56 61 64 65 65 67 72 71 70 62 57 53 53 51 45 42 42 41 40 39 39 40 40 42 44 44 52 59 62

GFSSGP_prec_cthk_039.txt.gz
RH
23 23 22 23 25 25 27 32 39 54 67 68 60 61 67 69 68 79 86 79 77 77 74 69 68 67 64 56 50 44 37 31 25 20 17 14 9 8 11 13 14 16 16 17 17 18 18 19 19
25 23 23 29 29 33 30 36 44 59 75 70 64 62 65 74 74 78 81 86 81 84 80 75 74 72 64 56 47 38 28 24 19 16 14 9 9 12 14 16 17 19 20 20 21 21 21 21 21
23 24 28 30 32 32 34 52 56 62 64 65 66 67 69 80 82 81 84 87 87 87 88 84 76 75 66 55 37 27 23 17 14 14 9 11 15 16 19 20 21 22 23 24 23 22 22 22 21
28 27 29 33 33 28 33 57 70 71 65 65 71 75 80 79 77 79 92 89 92 92 91 84 85 71 63 47 27 23 16 12 11 10 13 17 20 22 24 24 24 25 25 24 24 24 24 24 23
30 34 32 32 32 32 36 67 56 69 68 64 67 75 74 80 75 79 88 90 93 96 90 85 82 71 57 30 24 16 11 11 12 17 21 24 26 26 25 25 27 27 28 32 32 31 29 28 27
28 33 33 30 30 47 46 71 54 75 66 64 64 69 79 69 74 82 88 93 97 96 92 87 79 71 38 27 19 11 11 14 19 23 27 28 28 29 28 29 31 34 38 38 37 36 35 32 32
29 33 33 28 42 58 52 68 56 71 55 58 63 77 79 79 81 88 90 93 98 93 88 84 74 47 30 22 14 12 14 19 25 31 31 30 31 31 33 36 37 38 41 38 38 37 39 38 36
29 32 31 35 52 59 55 59 63 57 66 58 64 68 66 73 76 90 89 93 90 89 86 74 47 35 26 17 12 13 19 27 32 34 34 34 35 39 41 40 40 40 43 41 40 39 39 38 37
29 30 30 43 65 64 63 58 53 55 59 62 68 71 65 69 63 83 80 86 93 91 79 59 47 39 35 20 12 16 27 33 36 37 39 46 54 51 48 44 45 47 47 46 45 44 44 45 43
28 26 33 50 64 75 69 69 61 47 42 57 63 70 60 56 53 61 69 72 78 73 52 43 42 38 30 24 15 25 33 39 45 47 50 62 59 59 57 48 48 47 49 49 50 50 49 51 49
26 30 40 37 47 64 61 59 53 48 56 56 57 66 50 47 48 60 64 64 62 42 39 38 29 22 20 23 29 37 42 50 53 55 60 63 63 62 65 68 62 61 60 62 58 57 56 52 50
25 28 38 37 41 55 55 58 57 62 78 48 50 50 45 45 51 55 56 44 37 35 35 33 24 22 28 28 39 44 54 56 62 68 65 71 70 75 73 76 74 71 69 65 64 63 56 53 52
26 35 33 38 42 48 59 60 47 58 29 28 48 44 38 45 52 48 39 39 40 39 35 31 24 26 29 37 46 53 59 63 73 84 78 81 87 89 86 78 76 74 71 69 65 61 57 55 54
38 36 38 45 55 54 53 54 50 35 31 30 36 38 39 44 46 38 38 42 42 41 35 32 36 39 42 49 54 62 70 77 81 83 86 85 86 87 92 84 77 73 71 67 63 59 56 54 50
34 38 41 48 50 48 49 42 58 40 33 33 33 35 39 39 36 34 38 41 48 49 43 49 53 52 57 60 64 67 74 78 81 84 85 88 89 85 83 78 77 70 64 61 59 54 51 47 43
37 38 43 40 42 39 47 45 30 34 38 39 40 38 35 36 35 37 39 48 55 61 64 67 63 66 76 78 81 81 80 79 83 82 81 87 86 81 78 69 64 60 56 55 52 47 43 40 37
34 33 38 41 40 31 43 41 27 32 41 45 46 43 41 36 37 40 45 51 60 62 66 69 66 69 75 82 87 90 96 90 86 88 81 74 75 68 61 59 57 54 53 50 47 43 39 36 33
36 35 30 29 27 29 24 31 24 31 42 48 50 47 48 46 46 48 53 56 59 64 64 68 70 71 75 82 89 85 77 81 86 79 72 62 61 60 62 60 57 56 54 50 44 41 37 38 35
35 28 24 26 23 22 25 30 27 34 42 47 51 52 49 50 53 52 52 56 61 66 67 68 70 72 84 83 75 65 71 76 68 61 61 61 62 64 64 63 59 56 53 49 47 45 41 38 34
30 37 37 33 23 23 26 34 34 35 41 42 42 48 53 54 52 52 55 58 62 65 66 71 75 74 73 66 61 65 65 63 63 62 63 65 68 70 66 65 64 59 52 46 45 43 41 39 40
34 39 47 39 27 23 36 38 29 30 36 39 42 43 48 47 47 53 56 60 60 65 72 77 76 71 68 65 64 67 65 64 63 65 69 72 70 67 65 64 61 52 48 48 46 45 49 49 48
46 32 35 34 30 35 33 32 43 38 29 35 39 42 43 43 50 53 57 59 64 69 72 70 70 70 69 63 65 66 68 70 70 70 71 68 66 68 63 60 57 55 53 50 54 54 55 52 49
56 36 35 34 32 42 40 29 37 51 39 36 33 37 41 45 51 53 57 59 63 65 66 66 70 68 62 62 62 64 68 70 71 70 70 71 70 65 61 59 57 58 55 57 56 56 54 53 55
37 38 42 42 37 43 34 39 32 43 47 46 31 33 41 45 48 50 54 58 62 63 63 62 64 62 61 60 61 64 67 67 67 69 69 71 65 62 61 62 61 55 51 51 48 50 50 54 60
40 45 48 52 43 41 40 34 30 33 33 33 28 34 39 41 44 45 50 56 57 59 59 59 57 58 58 59 62 65 67 68 72 73 69 65 61 59 57 56 52 49 46 45 46 48 51 49 63
42 44 48 43 37 33 40 26 39 30 25 28 35 42 44 42 44 46 50 52 52 55 56 57 58 59 61 63 64 65 63 71 77 68 66 58 59 55 52 50 49 47 46 44 44 48 50 53 66
46 32 37 40 38 33 20 33 29 24 25 29 35 41 43 44 45 46 48 51 53 54 56 57 59 60 63 65 64 66 68 66 65 62 56 59 51 50 47 48 47 45 43 42 42 45 50 51 62
31 38 33 31 38 33 28 27 32 28 21 26 31 36 40 43 44 43 45 50 52 55 56 58 60 61 64 65 66 66 70 72 62 56 55 49 48 48 48 45 42 40 41 41 43 44 42 43 50
42 31 28 32 38 38 28 27 26 17 21 22 27 32 36 39 41 44 45 49 54 57 54 56 60 61 64 67 66 69 81 63 54 53 50 49 50 49 44 43 41 42 41 39 33 39 44 48 52
30 35 35 36 34 32 35 24 19 16 18 21 24 29 33 35 37 41 44 48 54 56 55 56 59 63 63 66 69 81 74 59 54 51 54 53 50 47 45 43 44 43 36 37 38 39 40 46 52

GFSSGP_prec_cthk_042.txt.gz
RH
20 22 21 22 22 23 21 22 36 59 56 54 52 50 62 71 76 82 83 89 81 82 71 68 65 65 61 60 54 50 48 33 24 16 15 12 7 9 12 14 15 16 17 18 18 18 18 18 19
20 28 24 23 25 26 27 47 74 56 56 55 49 49 62 79 79 81 82 85 83 78 74 73 73 68 65 66 58 52 35 24 18 15 12 8 10 12 15 17 19 20 21 21 21 20 20 20 20
23 26 26 26 26 27 38 53 54 62 53 52 50 52 65 71 79 81 82 83 86 83 82 79 80 77 74 68 59 41 25 18 15 13 8 11 14 17 19 21 22 23 23 22 21 22 23 23 22
26 26 27 31 28 29 49 55 54 54 55 56 54 53 64 71 69 81 85 89 94 88 87 86 88 84 76 70 51 32 19 12 11 9 11 16 20 22 23 24 24 25 25 26 29 32 32 29 29
31 32 30 28 28 31 34 41 49 54 55 62 60 60 60 65 74 84 92 93 92 90 92 88 91 84 72 58 40 21 11 10 10 13 19 23 25 25 25 26 27 28 30 33 36 35 34 33 32
31 31 32 31 30 32 34 53 50 60 65 71 68 61 62 54 61 80 91 94 97 98 94 91 86 80 64 42 27 16 11 11 16 20 24 27 26 26 28 31 31 34 36 35 35 36 35 33 34
29 30 30 33 34 38 50 57 54 69 65 67 57 64 74 71 64 73 88 90 90 94 91 90 90 72 52 40 25 14 12 15 21 25 28 28 28 29 32 34 38 40 40 40 38 39 40 39 40
29 31 32 31 31 57 70 64 57 68 63 57 49 53 58 73 76 78 79 89 94 89 94 92 74 56 44 31 21 13 15 22 26 29 31 31 32 34 39 41 41 41 42 44 44 46 45 45 45
32 31 30 31 38 53 58 77 78 68 59 56 55 60 64 62 73 84 80 93 97 97 90 76 63 42 28 19 14 12 19 26 30 34 37 41 45 47 46 43 43 44 45 46 48 50 50 50 51
33 33 29 44 54 58 53 70 73 54 52 53 64 70 60 63 69 76 80 94 94 90 81 62 46 47 32 16 13 15 27 32 35 39 46 52 56 57 55 52 49 52 53 55 59 61 59 56 55
34 30 33 47 52 45 49 60 63 60 57 58 79 72 68 58 66 74 82 86 92 74 60 46 38 35 30 20 17 25 35 43 48 49 53 67 57 65 66 72 66 68 66 65 65 65 59 57 52
34 30 35 43 51 46 52 56 62 60 67 66 73 65 61 58 54 70 76 73 54 47 38 31 29 28 26 21 30 35 45 46 54 54 58 67 74 77 76 77 81 73 70 70 68 65 60 54 51
32 35 35 34 37 48 48 60 64 53 38 66 73 63 41 49 50 66 88 49 45 37 35 31 23 26 23 32 43 49 58 64 66 71 78 82 82 83 81 82 81 75 73 71 65 60 56 50 47
35 36 38 33 35 45 48 67 71 53 39 64 48 37 39 47 48 55 40 43 38 35 32 25 22 23 32 40 43 53 62 62 71 83 86 83 81 79 81 77 73 72 69 63 59 54 48 45 42
43 37 36 37 45 55 57 57 51 37 36 39 34 37 35 44 47 42 39 41 38 37 35 33 36 44 44 44 49 55 60 67 70 77 81 81 80 77 79 81 74 65 57 52 51 47 45 40 36
36 36 43 46 44 43 57 64 34 36 37 39 41 34 34 38 37 35 38 39 43 47 45 49 53 54 56 63 66 71 72 74 78 74 78 80 82 81 75 68 59 53 50 48 45 42 39 35 32
39 41 45 41 43 46 44 51 36 33 39 39 37 35 35 34 37 38 42 48 52 48 54 55 56 60 71 76 79 81 85 78 74 72 76 78 73 66 56 51 53 53 50 48 44 42 37 33 32
47 36 39 43 34 38 43 39 33 33 41 43 44 39 36 34 36 41 46 53 57 55 56 61 65 66 68 72 78 80 76 72 67 65 61 60 55 50 51 53 54 54 52 49 46 44 45 43 40
44 41 39 32 28 24 28 34 26 28 43 52 50 44 43 41 44 47 47 50 54 55 58 62 63 64 65 73 75 66 62 63 60 60 55 51 50 53 55 56 56 55 56 52 47 45 45 42 40
36 39 35 30 24 16 23 28 25 21 29 40 46 43 43 44 43 44 46 50 56 51 57 61 62 67 74 75 68 61 60 58 53 49 52 55 56 57 59 60 62 60 56 47 45 44 41 43 44
37 48 44 44 29 16 30 25 31 28 32 38 40 45 49 48 44 45 47 50 55 57 63 60 65 71 66 64 62 58 53 51 52 55 58 60 62 62 62 62 60 57 49 47 44 43 45 46 44
46 51 40 46 38 26 38 45 36 44 36 38 41 35 40 46 48 46 50 53 59 61 63 64 70 63 64 59 56 56 55 56 57 60 62 62 65 63 65 61 56 53 50 45 41 43 45 45 46
39 45 45 39 37 42 45 49 49 42 40 39 46 44 43 45 48 50 50 53 59 62 62 65 64 62 61 55 57 56 60 61 64 69 69 73 75 70 62 58 57 55 50 47 44 48 49 46 47
37 32 34 33 35 50 51 56 51 51 54 61 59 45 40 42 48 54 56 56 58 59 59 60 60 65 61 58 58 59 60 63 66 68 70 74 72 69 64 61 57 51 47 40 43 42 40 37 40
31 39 51 82 77 45 34 34 37 50 51 47 44 44 43 41 43 48 55 55 52 54 56 62 62 61 59 58 58 58 61 66 66 67 66 72 66 64 58 54 48 43 40 43 43 40 39 40 44
41 41 59 67 77 51 44 41 35 31 32 31 31 33 39 45 46 47 49 50 52 57 56 57 59 59 57 56 57 57 62 64 65 69 69 73 62 51 50 46 43 42 44 42 39 37 38 40 47
53 47 42 46 48 45 24 18 32 39 28 23 28 33 39 42 44 46 48 48 51 52 52 52 54 54 52 54 57 58 62 62 65 66 74 74 61 52 43 43 42 46 46 43 42 43 43 46 48
26 33 41 38 37 35 31 32 46 46 38 23 28 32 36 37 40 42 41 42 44 47 48 50 56 54 53 54 58 62 63 65 67 71 72 66 60 44 42 46 48 49 47 49 45 42 42 41 39
41 43 31 28 42 51 43 41 36 33 27 20 25 31 34 34 37 37 37 40 44 47 50 52 57 58 56 57 61 63 66 69 69 69 72 69 52 44 48 51 52 52 50 47 45 42 38 35 38
33 42 44 52 36 40 41 34 35 28 20 19 22 32 34 35 36 37 38 41 44 48 50 54 60 61 59 60 63 66 68 75 69 73 72 59 49 51 53 54 53 52 54 48 39 36 37 33 37

GFSSGP_prec_cthk_045.txt.gz
RH
20 22 25 25 24 24 28 32 47 46 53 56 54 57 60 61 65 64 69 80 84 81 77 74 67 68 66 62 60 57 48 41 26 21 14 8 7 10 12 14 15 16 17 17 17 17 16 16 18
22 25 28 24 21 26 31 37 53 51 53 57 56 62 69 73 70 69 68 78 84 82 78 74 71 70 68 66 66 60 48 35 23 16 9 8 10 13 14 17 18 19 19 18 18 18 20 20 22
22 26 28 24 24 29 38 47 56 54 58 61 58 62 60 68 68 79 78 78 82 82 81 76 76 73 73 70 68 58 41 29 22 11 8 10 12 16 18 19 20 20 20 21 24 27 28 28 28
24 27 27 27 30 31 28 40 50 59 55 57 61 61 62 62 64 71 77 86 83 81 82 80 81 79 76 73 66 49 32 25 19 9 12 13 17 20 20 21 21 23 25 28 30 29 31 31 31
29 29 27 26 30 35 41 47 51 58 63 55 54 58 59 64 64 67 81 82 92 95 88 85 87 87 81 72 56 41 24 20 13 12 15 18 21 22 23 24 25 28 31 34 33 34 33 33 31
31 28 32 31 34 47 59 62 64 55 64 54 51 55 59 56 58 65 82 93 99 98 98 90 90 87 83 59 42 27 15 10 12 17 20 23 23 24 25 27 29 32 35 36 38 39 38 38 39
31 34 33 33 34 45 54 63 74 74 68 55 59 61 65 57 60 64 75 85 89 99 98 94 90 86 70 50 35 23 21 22 21 21 23 24 24 28 29 30 32 35 37 39 40 42 43 45 45
30 31 32 32 36 57 62 65 68 71 70 61 60 65 59 62 63 67 72 84 97 97 90 89 90 79 56 44 31 23 18 23 26 27 27 28 28 30 31 35 37 39 40 40 42 46 49 51 49
34 33 31 32 47 60 64 70 68 64 82 73 64 56 55 58 69 76 78 82 92 94 87 91 83 62 52 40 28 22 25 29 29 28 30 32 34 37 40 39 41 44 46 49 53 57 55 56 54
35 34 31 35 52 54 55 52 48 52 64 80 72 74 67 64 72 78 80 93 91 91 76 73 57 51 39 27 16 15 21 25 28 34 37 37 40 45 48 55 56 58 60 60 61 60 60 57 56
35 32 33 35 42 49 52 49 50 57 62 64 70 86 74 61 70 77 88 88 86 78 72 61 49 37 28 20 18 21 23 29 32 38 45 46 53 59 67 71 69 68 68 67 62 65 63 55 52
34 32 33 43 45 47 56 56 61 64 66 63 69 85 81 64 79 87 94 85 68 64 60 44 36 31 23 17 20 24 29 31 36 39 51 58 69 72 75 75 75 69 69 69 66 63 60 50 46
30 34 36 45 41 49 55 56 62 59 50 58 68 74 76 69 79 90 85 67 59 50 44 39 36 30 24 23 28 31 32 39 48 55 57 70 74 75 75 71 71 71 69 63 59 54 47 43 40
37 37 37 42 45 56 51 52 52 51 48 62 53 56 53 67 74 71 53 49 43 36 35 37 32 26 28 30 33 39 46 52 59 62 64 72 76 75 74 71 72 74 69 60 50 43 42 39 34
39 38 37 40 41 49 50 55 57 61 53 44 48 45 47 60 53 39 36 36 32 31 30 26 27 30 39 41 44 55 60 63 59 70 72 74 74 78 74 73 70 70 57 45 42 41 39 34 31
41 37 38 39 42 51 56 56 58 57 45 38 38 35 48 60 41 41 40 36 33 33 35 35 41 45 46 52 57 60 63 67 73 74 68 65 65 69 64 71 64 50 43 41 41 39 36 35 34
38 39 40 46 45 52 58 47 47 50 40 40 40 39 42 41 39 38 36 34 36 40 44 45 47 50 60 66 65 69 75 73 73 67 65 58 56 55 59 51 46 43 43 44 42 39 38 37 35
38 41 42 44 43 42 46 40 35 35 32 33 36 34 34 31 28 32 34 35 42 45 48 55 58 58 62 60 66 74 76 72 65 63 55 56 53 50 47 46 46 46 47 45 44 41 41 38 36
48 48 45 39 43 36 37 32 28 26 34 40 37 32 30 29 30 32 36 39 43 45 51 58 64 67 60 63 70 71 71 64 59 55 55 52 47 45 45 48 49 50 50 50 47 45 40 37 35
46 49 50 41 39 30 26 25 28 33 31 38 39 35 32 31 31 33 37 39 38 44 53 55 67 64 60 68 66 62 56 53 52 52 50 47 45 48 50 53 53 56 58 54 49 42 36 34 34
48 47 48 44 37 24 25 30 30 30 30 35 35 35 34 33 32 32 36 38 40 44 50 55 62 59 60 66 64 58 55 52 50 47 45 48 52 53 55 57 59 60 55 52 46 39 36 34 36
51 48 45 42 37 32 33 42 41 38 37 44 42 42 46 49 45 37 38 42 42 45 51 59 59 59 61 64 57 55 51 45 44 47 49 51 56 60 61 62 60 54 50 46 43 40 38 38 40
47 37 43 48 52 48 48 47 41 46 44 46 46 44 48 50 45 46 45 44 48 51 52 59 58 60 63 54 56 53 49 48 47 48 52 58 58 59 64 62 57 53 46 42 44 44 39 37 37
38 31 41 52 54 56 42 46 52 42 46 48 42 54 54 54 51 57 55 53 49 49 52 57 58 57 57 57 55 55 51 49 50 56 60 63 68 64 64 66 65 64 52 45 45 37 40 42 40
36 36 53 58 65 56 48 51 50 45 36 33 38 40 49 53 57 54 52 52 50 50 52 53 58 57 57 58 56 54 53 54 59 64 68 70 67 64 69 73 73 64 48 35 38 43 44 42 42
49 41 57 68 74 66 54 56 43 42 44 39 40 38 38 42 47 46 45 47 47 49 53 51 54 53 58 58 56 56 55 58 63 67 70 70 72 75 75 79 69 59 39 39 44 46 47 46 44
43 53 50 58 58 63 41 34 41 35 42 43 32 33 39 36 35 38 41 44 45 47 46 50 56 58 55 56 56 56 59 63 69 69 69 72 73 68 69 68 61 48 40 47 51 51 50 48 47
36 39 50 48 40 37 32 39 55 47 50 45 34 29 29 32 35 38 40 39 41 41 47 52 54 55 56 57 59 60 61 66 68 67 73 78 80 70 60 64 53 46 53 54 54 54 49 44 43
42 40 38 38 42 54 56 47 42 45 39 33 32 25 26 28 30 33 35 37 39 43 46 51 54 55 56 57 61 66 70 73 76 73 71 75 89 80 54 51 50 56 58 57 54 51 47 46 46
39 39 45 55 41 48 49 36 36 40 36 33 33 30 30 29 31 34 35 36 37 38 40 45 52 56 59 63 65 71 77 82 77 78 80 78 79 58 56 57 62 60 61 57 59 52 49 48 49

GFSSGP_prec_cthk_048.txt.gz
RH
23 20 22 24 26 28 31 31 45 51 55 56 58 57 71 74 72 64 67 71 67 61 69 75 78 77 74 69 62 63 59 49 35 26 20 16 12 10 12 14 16 16 17 16 16 17 20 24 26
24 22 24 24 26 30 29 35 38 46 51 55 60 62 69 75 73 66 67 72 68 64 67 73 78 75 74 67 66 66 59 46 34 25 20 18 13 12 15 16 17 18 18 18 19 19 23 27 28
23 22 24 25 27 29 33 40 54 50 48 49 56 60 67 75 75 71 68 68 71 76 77 78 78 76 72 70 70 65 54 42 34 22 20 23 13 15 17 18 18 19 20 22 23 25 25 26 28
26 25 23 28 32 35 37 35 42 55 48 51 57 62 65 71 69 68 71 72 70 79 84 85 82 75 75 74 72 61 51 42 28 19 22 18 14 17 18 19 21 22 24 26 27 28 29 29 27
30 28 26 33 34 41 55 53 45 63 63 58 58 57 58 70 65 66 71 76 87 89 86 90 84 81 79 76 64 59 48 28 20 23 24 23 21 19 20 22 24 25 28 28 29 31 34 35 34
32 28 31 33 36 44 64 66 66 68 74 66 61 58 63 64 64 69 76 84 91 99 98 93 92 92 84 72 69 52 34 24 21 21 18 20 20 20 22 23 25 28 30 32 33 35 38 39 39
33 31 33 41 41 34 51 57 66 77 85 76 71 71 68 71 67 72 82 97 87 97 96 98 98 95 82 69 51 34 21 18 16 19 21 21 22 22 26 29 30 34 34 34 36 37 40 45 46
32 32 33 37 39 43 57 66 66 63 73 77 77 74 75 76 69 72 72 82 99 98 93 91 89 82 70 55 38 25 22 27 27 27 24 23 27 29 29 35 38 37 40 43 47 50 53 53 50
35 34 35 36 42 47 60 57 52 52 55 65 74 76 75 73 65 68 76 87 91 97 93 91 90 84 73 55 41 32 32 32 29 34 32 33 29 28 33 37 47 49 52 56 57 58 56 56 55
36 36 32 36 41 50 52 53 50 49 50 68 86 82 81 73 72 74 84 87 95 91 87 82 77 73 58 46 38 31 28 26 27 29 26 28 33 38 51 58 59 59 63 63 64 64 60 55 52
36 34 34 36 42 49 48 48 50 55 58 67 76 76 72 83 83 82 89 82 88 81 77 73 61 52 42 28 19 17 19 24 27 31 35 41 51 56 64 63 66 66 68 65 69 66 62 56 46
32 35 35 37 43 49 48 46 50 53 55 65 66 67 74 80 84 81 83 76 63 63 64 51 43 36 28 19 18 19 22 28 32 37 50 53 59 67 70 67 68 68 68 68 69 62 52 46 39
31 38 39 41 45 48 51 50 52 48 49 59 64 72 75 84 93 90 65 56 49 49 54 42 39 28 23 19 19 22 26 32 40 51 55 59 62 64 69 69 68 68 67 70 70 57 42 38 36
40 40 40 46 46 47 51 53 52 53 46 61 59 65 73 79 89 73 66 47 37 38 36 40 38 28 19 24 26 30 36 44 51 58 63 67 60 65 66 69 73 69 63 64 58 41 37 36 32
39 39 43 44 47 51 50 55 55 59 44 47 52 44 65 66 70 59 42 40 35 34 37 38 33 30 30 34 37 46 52 60 64 65 63 66 68 68 68 69 69 62 63 54 43 38 37 34 31
41 41 42 46 48 48 48 53 56 50 38 43 41 41 55 56 50 47 43 38 39 37 40 42 43 42 42 45 56 63 64 68 66 63 67 64 63 56 57 61 61 56 50 42 40 41 38 36 35
44 39 39 41 44 48 49 44 40 41 42 39 37 41 45 47 46 45 44 39 40 43 42 39 40 40 49 59 59 58 65 67 67 66 61 56 52 51 53 55 51 48 44 43 44 44 40 39 38
40 40 45 47 45 44 45 41 34 37 42 45 43 46 50 44 38 41 42 44 45 44 45 42 46 50 54 55 58 62 67 67 65 59 51 52 51 53 53 49 47 43 43 47 47 44 41 42 40
45 46 45 46 49 44 42 38 35 35 44 45 45 44 43 45 40 40 41 44 45 44 45 44 47 55 61 58 60 66 64 63 58 56 54 52 52 51 48 45 43 46 50 50 51 45 43 40 35
50 50 51 44 44 41 42 35 32 33 39 43 42 45 41 45 44 42 43 41 40 42 46 48 48 57 59 56 62 63 64 63 61 56 53 48 49 48 43 45 50 50 53 55 49 43 38 35 34
51 50 49 45 42 40 36 32 34 33 38 45 46 38 38 36 40 42 41 40 40 40 43 48 54 58 61 59 61 64 67 60 54 51 48 48 47 46 51 51 54 54 58 55 47 46 45 39 37
51 43 46 45 41 40 35 31 30 31 37 44 46 47 40 39 45 43 42 43 44 43 45 51 58 57 65 60 60 65 59 54 52 50 45 45 49 53 54 52 52 57 61 61 55 53 53 46 36
48 42 45 43 44 41 34 37 37 34 36 43 44 46 45 37 41 45 44 43 44 48 53 56 61 57 63 60 61 62 54 55 51 45 45 52 56 54 50 52 56 58 58 61 66 68 62 47 35
49 44 48 50 49 53 48 46 43 45 41 36 36 44 42 45 47 48 46 46 51 52 57 59 58 56 61 61 59 52 53 52 48 49 52 56 56 58 60 66 68 64 61 72 70 62 47 39 36
46 44 54 61 67 59 50 50 44 44 38 35 35 43 46 47 43 44 48 50 52 50 56 56 56 54 54 55 53 51 52 50 51 54 58 60 59 74 76 75 84 80 72 69 61 44 39 40 43
59 53 53 54 67 56 47 48 47 40 41 41 38 42 42 38 39 42 46 48 47 55 63 56 55 52 50 51 53 54 52 54 58 61 63 70 75 75 92 71 83 81 81 71 47 42 44 50 51
55 54 50 59 58 65 48 36 41 40 34 36 39 35 30 30 33 36 40 43 47 54 52 59 53 53 52 52 51 53 58 60 70 70 80 77 87 80 83 82 81 83 77 56 50 48 54 57 55
50 48 53 59 53 48 37 39 47 42 42 43 37 27 26 29 32 37 41 38 43 49 54 52 51 49 52 55 58 64 71 80 84 84 86 86 90 86 86 88 80 67 55 48 53 56 60 58 55
40 39 43 41 48 52 53 42 35 43 39 39 36 30 27 26 30 32 35 40 43 45 44 43 45 49 57 67 74 77 78 82 87 93 84 93 94 82 81 79 62 58 53 62 66 59 64 61 56
50 43 47 59 53 53 51 37 30 36 40 40 40 39 35 29 27 26 26 27 29 32 37 41 51 60 67 68 72 72 74 89 88 92 91 92 86 80 84 76 67 57 65 69 61 71 69 68 64

GFSSGP_prec_cthk_051.txt.gz
RH
20 20 23 24 28 27 28 30 34 49 56 64 69 67 71 70 67 64 66 69 67 62 66 68 69 68 73 72 70 64 62 53 43 37 32 22 19 21 18 14 15 16 18 20 21 23 24 24 26
21 21 26 26 30 31 32 31 39 40 45 61 65 70 72 74 72 73 73 72 69 65 69 71 70 72 68 73 68 68 62 52 43 39 31 25 21 22 14 15 16 17 19 20 21 24 26 25 25
22 22 27 27 33 35 33 37 53 52 58 58 65 65 67 73 73 73 74 76 76 68 73 77 76 77 80 68 67 68 56 48 45 38 33 26 19 24 20 16 18 20 21 23 24 24 26 29 30
23 24 28 31 35 33 33 46 45 47 52 61 65 69 70 72 75 76 80 79 80 77 78 84 84 84 83 74 71 62 54 50 43 37 29 25 21 23 17 18 21 24 25 26 27 28 27 29 30
25 30 33 31 33 35 52 60 57 54 56 65 63 72 72 72 72 76 83 82 84 83 88 88 93 92 87 81 68 57 50 51 45 39 30 23 27 19 21 22 27 26 27 29 30 33 34 34 35
28 33 34 33 34 42 50 56 58 58 64 69 68 71 75 74 74 70 76 83 87 92 96 98 97 92 92 77 59 55 61 46 32 29 28 30 32 30 29 28 25 28 30 32 35 35 37 38 40
31 35 33 35 36 39 54 59 66 62 61 65 69 77 82 77 75 74 78 86 89 94 99 98 98 97 82 64 63 63 43 37 34 28 25 22 23 24 24 27 29 34 37 39 40 40 47 48 48
35 36 33 35 46 45 53 58 60 63 66 60 69 79 85 83 78 74 72 77 80 91 95 97 94 84 77 72 64 41 32 30 27 24 29 32 28 25 28 31 38 44 44 46 49 55 55 54 48
35 36 36 39 45 49 56 56 55 57 58 60 71 74 83 87 80 73 75 75 76 80 90 97 93 87 82 67 51 41 37 36 38 35 29 28 32 31 33 39 44 45 49 55 59 61 60 58 49
37 35 34 38 40 46 54 56 52 53 59 68 70 83 85 88 80 77 74 75 83 80 85 88 84 85 78 57 46 46 49 43 41 40 38 37 35 34 36 44 50 56 61 62 63 64 63 55 47
36 36 35 37 42 44 51 52 51 53 53 63 74 82 85 82 81 78 81 83 79 87 91 83 85 76 63 51 44 36 30 28 32 36 37 36 45 51 61 64 66 65 65 65 67 67 64 57 46
35 37 38 36 39 46 50 51 52 55 52 60 72 77 78 77 78 75 74 79 84 79 71 61 54 49 45 34 20 24 26 36 36 39 40 50 54 58 61 65 66 66 67 67 66 68 62 50 35
30 39 41 38 42 46 50 53 52 53 56 64 69 76 80 82 74 75 65 60 61 60 58 50 43 42 32 24 26 27 31 35 40 51 57 59 61 61 63 61 65 69 73 70 70 59 49 38 32
39 40 46 44 47 46 48 48 45 59 60 60 57 66 82 73 70 57 54 45 44 49 49 40 42 38 27 23 24 25 30 39 50 57 63 65 65 66 68 64 64 66 71 64 63 50 40 35 32
41 40 45 48 44 43 46 46 49 62 61 48 54 59 62 67 65 51 52 34 30 31 32 29 27 25 23 27 31 37 45 54 57 63 66 61 64 64 66 60 56 66 65 63 53 43 38 36 33
42 43 47 42 44 46 43 50 61 65 51 44 45 47 56 60 53 46 38 30 29 35 37 37 39 37 35 37 45 54 59 61 64 65 66 65 64 63 58 55 56 61 63 53 45 41 40 38 36
45 43 40 43 46 48 49 47 49 51 44 43 37 40 47 52 47 45 41 35 38 41 41 45 45 42 41 49 55 56 56 62 66 70 66 65 58 55 53 57 58 61 51 44 41 42 41 37 34
52 49 47 48 54 57 56 50 48 44 42 38 38 40 43 43 40 42 43 43 47 50 53 50 51 52 51 55 56 58 63 65 65 63 63 54 51 52 57 58 55 48 43 41 43 44 40 40 32
52 49 46 45 42 45 47 44 42 49 50 42 42 44 46 43 42 46 48 46 47 47 51 50 47 51 54 59 57 62 63 64 64 63 57 53 54 54 52 48 44 41 42 46 47 43 44 43 38
45 46 49 51 49 45 40 41 39 44 46 46 47 48 45 41 45 44 44 45 44 43 49 54 52 50 60 61 60 60 60 64 66 61 59 57 54 48 45 43 42 45 48 49 49 50 51 49 50
50 51 53 52 47 43 42 35 35 38 43 45 47 46 44 38 40 43 43 43 43 44 45 50 55 59 57 60 64 58 61 65 64 61 59 57 50 46 44 44 49 51 51 53 55 56 54 57 63
52 50 49 49 47 40 35 32 28 32 36 46 49 52 51 45 44 46 46 51 47 48 52 55 58 64 60 63 66 63 63 67 63 60 57 52 48 44 45 50 55 59 63 63 69 67 64 62 61
52 48 49 45 45 51 43 39 29 29 34 39 48 50 51 47 44 43 49 49 52 53 53 58 65 71 65 64 69 69 64 68 61 57 54 49 44 47 52 55 64 70 67 72 69 70 72 71 64
46 45 49 52 53 54 44 44 36 36 36 36 39 45 50 46 46 49 46 47 51 58 60 61 66 73 66 62 70 67 61 64 58 56 52 48 49 54 62 71 68 75 86 77 75 76 69 68 58
45 48 53 56 63 57 49 47 40 39 39 37 37 33 41 45 45 42 43 45 47 53 59 57 66 74 71 65 65 60 61 53 55 54 50 53 62 72 80 79 86 91 84 85 77 79 69 55 52
47 47 55 47 57 53 48 48 37 36 38 35 32 28 30 36 38 39 39 42 45 52 56 64 67 74 68 61 59 55 52 52 59 57 62 78 78 83 85 87 93 92 93 90 81 75 52 44 51
49 53 52 60 61 65 52 41 35 36 38 39 34 32 29 33 36 35 37 41 42 45 52 61 75 68 59 53 51 56 62 59 65 77 81 84 82 87 89 92 97 97 91 73 72 63 52 54 64
46 48 52 56 54 55 46 40 41 42 38 37 33 36 28 29 33 34 35 36 37 42 46 60 61 56 54 50 53 58 62 68 75 75 85 85 92 84 97 96 96 94 82 69 60 60 61 68 67
52 52 49 46 54 54 57 44 33 37 31 29 32 35 29 26 27 27 28 29 28 34 43 48 49 49 48 50 55 68 72 78 81 80 81 85 83 97 96 81 86 87 75 75 67 66 66 72 71
51 50 49 54 50 52 59 42 28 31 35 36 33 33 37 34 30 22 21 27 33 37 40 42 44 48 56 70 76 78 82 82 85 87 89 82 91 89 82 85 92 84 79 77 72 78 74 76 77

GFSSGP_prec_cthk_054.txt.gz
RH
17 19 21 22 24 26 28 30 31 42 59 72 65 70 62 70 75 72 71 70 67 74 71 71 69 70 68 64 59 58 66 55 44 40 36 35 31 24 19 22 19 17 19 19 19 21 23 24 24
17 19 24 25 26 28 31 32 39 52 60 57 73 72 68 82 85 83 77 75 71 73 72 72 72 73 74 68 62 60 63 48 44 38 39 39 29 24 21 22 17 18 21 20 21 23 24 25 27
18 21 25 28 28 28 29 32 40 52 60 66 63 65 74 87 82 76 74 75 77 74 73 75 77 79 78 70 62 67 58 46 44 43 45 37 33 27 20 24 24 20 22 22 24 26 27 28 29
20 23 26 30 29 29 30 37 54 52 53 53 56 59 69 74 75 74 77 80 81 79 82 82 85 85 83 76 68 71 56 46 42 46 44 38 32 27 29 28 21 21 23 27 28 29 31 31 31
21 25 31 30 29 32 44 52 53 54 57 56 54 66 72 76 72 72 74 83 85 86 83 89 96 94 91 84 79 69 52 49 50 51 42 36 34 31 35 25 24 26 29 31 31 33 35 36 36
25 27 34 34 30 35 52 60 59 59 59 64 65 72 82 79 72 74 78 80 85 90 91 94 99 98 94 89 78 58 55 52 54 50 44 36 33 38 31 30 31 35 35 33 36 41 43 44 44
26 31 36 33 32 40 50 61 63 63 65 63 64 74 79 78 78 73 74 76 82 84 93 98 99 99 94 79 66 60 57 59 45 39 40 41 40 40 32 33 32 36 39 42 46 48 51 52 53
26 34 37 31 40 46 56 60 60 58 62 60 63 70 80 82 80 76 75 77 75 79 87 95 98 94 88 75 68 63 62 51 46 40 36 32 29 30 28 32 38 42 47 51 55 58 58 56 53
30 37 38 33 45 50 53 58 61 57 57 63 65 65 73 79 82 80 76 72 70 73 76 85 90 83 86 79 73 65 48 43 37 41 45 44 37 34 34 37 41 46 53 56 59 63 61 60 53
36 39 37 38 39 48 50 56 56 53 58 61 68 68 80 82 82 81 77 75 75 77 83 82 81 84 84 83 69 53 49 51 47 45 42 41 41 40 41 44 47 56 63 66 69 68 66 62 53
35 37 38 39 42 47 52 59 56 56 56 56 63 74 78 78 77 84 84 82 82 80 82 90 88 88 82 65 50 49 56 49 44 43 46 43 42 45 48 58 64 68 68 66 68 62 61 56 48
33 38 41 41 41 44 53 52 56 55 53 52 61 66 74 76 86 82 78 85 87 87 77 82 83 83 76 61 54 49 41 41 44 45 45 45 47 58 66 70 68 68 66 68 67 70 66 52 37
31 39 42 43 46 47 51 54 51 58 56 57 57 68 78 85 84 81 79 86 87 69 58 56 55 47 39 30 28 34 39 41 44 53 51 55 63 65 71 71 70 64 63 64 66 66 55 40 32
38 38 42 45 49 49 51 51 51 56 61 61 54 56 75 75 74 67 65 65 62 55 50 48 44 39 35 34 30 28 31 39 44 59 64 67 66 67 70 71 67 58 56 65 66 60 45 35 34
43 40 43 40 47 49 51 52 51 56 57 57 49 50 54 62 57 58 53 50 52 51 49 48 42 37 26 23 24 27 36 51 60 63 68 65 66 67 73 66 56 55 57 57 56 48 38 36 38
46 41 45 44 48 54 52 50 59 65 51 52 40 45 48 49 58 56 48 37 40 40 41 37 33 33 30 32 38 45 52 57 57 59 64 70 69 66 63 59 54 53 58 58 51 40 39 41 38
46 47 46 50 51 51 52 49 57 57 55 49 43 38 46 50 44 41 43 34 37 40 42 39 42 44 41 40 46 47 48 48 53 64 75 67 59 58 55 54 54 59 59 52 42 41 44 39 36
47 48 46 49 48 50 50 50 54 57 52 50 48 40 40 45 43 41 39 41 42 43 45 45 48 45 42 41 48 52 56 60 68 68 65 59 57 57 52 56 57 58 50 41 43 45 43 40 39
44 41 49 48 50 49 50 48 47 52 58 51 51 50 44 41 42 43 41 42 43 46 48 48 52 52 50 48 54 57 58 64 64 66 67 63 60 54 57 57 54 49 41 45 47 46 45 44 44
44 44 47 47 48 46 45 47 41 50 50 50 49 49 42 40 42 42 42 40 41 45 47 50 48 49 54 58 57 59 60 64 67 71 66 64 60 58 58 52 49 43 45 48 48 51 52 52 55
52 52 50 51 52 48 42 38 36 41 46 48 49 47 42 40 37 39 39 40 42 43 43 50 53 54 57 56 57 62 64 68 65 68 64 62 61 60 55 49 46 44 49 53 56 60 62 65 65
52 52 52 52 50 50 41 37 29 32 36 42 43 42 44 45 43 46 49 48 46 48 51 52 53 60 63 59 55 59 62 65 63 73 63 62 63 58 52 49 47 50 56 61 66 67 70 74 71
49 49 51 51 49 49 46 46 35 29 32 38 44 47 49 53 52 52 52 59 60 56 53 57 58 64 67 67 57 60 73 77 78 85 71 63 60 56 55 52 58 68 74 76 79 83 85 81 76
46 48 52 53 52 53 46 46 38 33 31 33 38 43 46 44 48 50 56 64 60 58 59 62 61 65 70 73 68 68 78 84 81 78 69 66 62 60 60 68 73 77 82 87 89 86 88 86 81
44 49 55 60 63 56 49 48 41 40 39 39 37 39 40 45 45 49 53 56 52 53 56 61 63 57 70 76 83 73 77 77 75 73 67 66 66 65 71 81 83 81 85 91 96 92 87 83 80
48 47 56 50 57 47 46 46 36 35 38 38 39 32 30 34 37 40 41 42 44 47 59 57 52 58 67 81 85 69 71 72 69 66 64 66 68 79 82 89 90 92 93 97 96 91 77 74 67
50 49 48 60 63 65 47 38 28 32 36 40 41 37 31 26 27 30 39 39 40 42 42 43 46 51 73 82 76 66 64 62 64 64 67 72 80 82 89 89 83 94 98 95 88 85 76 71 65
50 49 54 60 57 54 46 41 37 32 41 38 35 31 25 28 24 29 33 36 34 35 37 39 40 46 62 66 65 65 60 60 68 66 74 83 85 87 88 86 98 94 97 87 89 85 77 70 72
52 52 52 54 60 57 57 43 35 33 37 35 34 31 27 27 30 29 30 29 29 28 29 33 41 46 55 59 61 65 68 68 79 87 88 91 94 91 93 97 97 94 89 86 90 84 82 80 77
47 47 49 60 56 61 59 45 35 32 30 33 34 31 31 36 35 32 27 25 24 28 32 35 39 47 61 68 73 74 82 88 89 90 94 90 91 95 93 86 93 87 88 93 91 86 80 82 83

GFSSGP_prec_cthk_057.txt.gz
RH
17 16 18 21 22 25 24 24 26 28 38 57 60 57 64 75 76 70 72 74 72 69 71 73 73 71 69 64 62 60 55 52 52 41 35 32 33 33 26 23 24 20 18 19 20 21 21 22 22
18 18 20 24 24 25 23 27 30 35 41 49 62 67 64 77 80 79 79 86 81 78 78 77 77 77 73 71 69 62 53 50 44 34 37 34 40 32 27 25 26 20 18 19 21 22 23 25 25
19 18 22 26 27 25 25 30 36 45 53 55 61 76 80 87 82 74 77 96 85 83 80 83 84 84 82 78 71 63 54 50 44 41 38 43 37 34 33 29 26 24 21 22 23 25 26 28 28
19 18 22 28 30 28 28 33 51 47 51 56 65 74 85 84 72 69 77 89 83 85 85 87 86 85 86 83 76 63 56 53 48 45 44 41 40 37 32 34 33 32 23 25 26 29 29 32 33
21 20 26 30 32 29 36 52 53 56 56 59 64 71 75 80 78 74 76 83 93 98 95 91 91 88 88 85 79 67 59 55 45 48 46 42 40 34 34 35 32 26 26 28 32 33 35 38 43
24 23 28 36 34 30 49 58 61 59 60 61 68 72 76 77 76 79 80 83 85 89 90 98 98 96 98 86 77 66 64 50 51 51 49 46 44 39 39 38 33 29 32 36 40 40 44 48 47
24 28 30 37 32 37 48 59 59 60 61 57 64 68 74 77 78 78 77 81 88 91 93 98 99 98 94 90 68 64 59 55 53 55 54 49 39 48 44 39 36 35 39 43 44 49 52 52 50
25 28 37 36 36 48 48 58 60 62 63 60 63 62 69 75 82 81 80 76 80 86 90 86 83 91 89 92 79 62 57 59 61 51 46 50 50 45 40 37 39 40 41 48 53 55 56 59 52
26 29 40 37 39 47 52 55 59 60 60 59 61 64 61 72 78 78 78 74 75 79 79 82 78 83 90 82 72 65 68 71 57 56 51 40 42 44 42 39 41 43 49 57 60 61 62 66 56
28 33 39 37 37 41 50 53 59 60 59 58 63 65 67 76 78 77 79 75 75 78 77 79 79 81 79 80 82 86 80 63 50 46 47 48 45 42 43 43 47 54 63 65 65 67 67 58 47
30 36 39 40 43 46 48 50 59 60 60 57 60 61 68 74 78 80 80 84 82 86 81 83 85 85 81 85 88 76 57 51 55 54 49 47 45 48 49 52 63 68 66 68 69 66 65 63 53
30 35 42 43 42 43 47 50 56 57 57 55 57 59 62 72 75 82 78 85 90 90 86 80 79 80 83 76 61 57 60 56 51 47 46 46 50 50 59 70 74 74 72 68 66 61 62 57 46
31 36 42 43 43 45 47 53 57 59 59 58 54 59 73 80 84 78 85 90 89 80 82 80 85 79 71 62 51 52 50 45 47 49 47 46 50 62 73 76 74 71 71 61 55 60 62 49 38
35 39 42 46 41 51 53 58 55 58 62 55 53 59 80 85 81 71 88 83 71 70 73 68 66 63 55 47 46 43 45 44 44 47 55 63 71 72 76 75 71 66 57 51 54 55 46 37 35
37 43 43 44 46 51 54 59 52 58 57 56 54 55 66 72 70 66 64 61 55 55 51 49 45 40 35 30 29 33 36 39 46 57 65 72 72 72 76 76 69 59 52 53 55 51 40 37 37
37 39 44 52 58 58 58 52 55 58 56 53 49 50 50 56 59 58 55 58 53 53 50 43 39 34 29 23 22 28 38 53 63 65 70 78 74 72 77 64 62 57 53 54 57 44 37 39 36
41 38 41 46 53 57 55 50 52 54 52 48 46 45 52 48 50 49 46 46 44 44 44 40 37 36 34 34 38 46 50 56 57 58 62 69 76 73 68 59 55 54 55 54 47 40 38 39 37
41 44 43 46 51 59 56 49 50 54 54 50 42 41 50 47 40 40 40 39 40 41 42 45 42 43 45 41 41 45 47 51 56 61 68 71 67 61 62 54 53 54 52 49 40 41 41 41 41
41 45 47 48 48 53 51 52 49 53 58 55 46 41 38 39 46 42 41 44 44 46 48 48 47 48 49 48 50 51 54 50 59 66 73 75 64 61 58 56 54 52 51 42 41 43 43 45 50
42 45 45 48 50 51 49 47 47 53 54 52 49 42 39 39 40 42 41 44 46 47 49 52 51 53 55 55 52 51 51 54 62 69 75 76 67 62 59 57 56 50 48 42 45 50 55 59 59
40 43 49 49 51 50 46 41 37 40 47 51 49 46 39 38 39 41 38 39 41 43 45 48 49 52 58 62 56 54 59 62 65 66 76 75 71 63 59 60 55 50 46 50 56 60 66 69 71
48 43 48 49 49 49 46 48 35 32 41 44 45 46 48 41 37 40 39 38 38 38 42 46 50 51 55 61 60 54 58 61 66 75 82 86 82 72 61 59 53 51 58 62 67 71 77 82 81
45 47 49 52 51 50 49 45 36 31 27 32 41 47 49 49 45 40 42 48 48 49 50 51 52 53 58 66 67 60 59 67 77 86 89 91 93 80 64 62 56 62 68 71 73 77 84 88 90
47 51 52 52 53 53 46 44 38 32 32 27 36 42 50 51 55 56 53 55 54 55 56 60 58 59 61 67 75 75 70 72 79 85 86 87 85 73 77 64 66 69 69 76 82 85 91 94 91
50 51 54 55 56 51 49 46 39 37 34 35 36 37 44 45 51 53 60 62 64 65 65 58 56 65 63 67 76 85 85 80 75 80 79 77 85 83 79 72 76 76 81 86 85 91 97 96 94
48 49 55 50 50 45 45 42 34 35 34 37 39 38 37 37 43 48 48 54 59 61 57 54 56 59 55 62 73 81 87 82 75 68 74 84 85 82 76 78 84 86 86 84 92 93 97 91 83
50 52 51 56 60 56 46 39 32 31 32 39 39 41 39 33 31 38 44 47 48 48 49 51 55 50 49 52 66 82 87 86 80 73 82 83 77 79 86 89 92 90 90 95 89 91 90 85 84
50 51 54 56 58 55 46 43 38 35 37 36 38 36 36 35 31 25 28 32 37 41 44 44 43 44 46 49 57 67 78 75 72 81 81 82 78 84 92 94 92 94 95 95 94 86 83 90 81
54 55 54 53 53 52 52 42 36 40 38 38 38 37 35 28 30 30 25 26 29 32 35 34 34 38 43 47 51 67 77 77 83 85 83 89 94 96 93 97 98 97 94 97 93 95 95 87 82
50 47 49 56 53 56 55 46 37 37 40 38 36 34 32 30 27 30 32 30 27 27 27 28 34 39 45 49 60 73 80 85 91 91 91 94 95 97 97 93 94 95 98 95 97 97 86 85 80

GFSSGP_prec_cthk_060.txt.gz
RH
15 15 17 20 22 20 25 30 25 26 36 47 43 43 59 79 75 72 77 72 73 75 73 67 68 71 71 70 70 69 63 58 51 43 38 35 29 31 31 29 26 28 25 21 19 18 20 21 22
15 17 20 23 23 28 26 29 24 36 42 43 53 56 57 68 71 78 78 73 73 78 79 74 71 72 72 73 72 71 66 58 48 38 34 35 31 32 33 31 28 28 24 21 21 23 24 24 24
17 18 22 25 25 29 28 29 31 43 49 54 61 61 66 64 65 71 79 71 79 81 88 84 79 79 78 76 77 74 66 56 44 41 33 36 39 36 35 33 30 29 25 23 25 28 27 27 27
19 20 20 22 32 30 29 30 36 46 55 60 64 66 66 57 64 66 74 71 81 85 96 92 86 84 83 82 79 72 61 51 44 44 35 40 42 38 39 36 33 31 31 27 29 33 31 32 31
20 21 21 25 32 32 29 44 53 59 62 58 60 63 67 65 68 75 76 81 91 98 98 95 91 89 87 86 81 73 63 55 48 47 43 42 44 42 42 34 38 39 37 34 34 36 37 37 35
24 22 24 32 34 30 40 54 61 62 65 62 65 69 70 67 67 75 80 82 85 87 97 98 98 96 98 93 82 77 65 57 55 51 47 48 44 44 42 40 40 40 39 38 38 42 45 45 43
24 25 30 35 35 34 43 55 60 65 65 68 65 64 72 72 70 77 81 83 87 92 97 95 90 94 99 96 93 87 71 62 57 52 53 50 48 45 44 44 43 43 41 42 46 51 52 49 46
23 25 31 36 35 44 45 54 57 62 68 65 67 67 67 68 71 73 77 81 82 86 90 98 94 94 92 93 89 85 72 63 56 57 60 60 51 45 51 46 46 48 44 46 53 56 58 57 50
22 27 36 39 37 48 48 50 57 58 64 62 65 68 70 67 74 79 83 88 83 81 82 85 85 87 81 91 85 88 72 59 58 65 66 53 55 55 50 48 46 48 50 53 58 62 64 61 49
26 32 37 37 35 39 41 48 54 59 63 60 68 71 71 74 78 78 83 84 81 81 82 80 81 83 84 89 85 80 76 69 72 68 64 61 51 53 50 45 43 50 55 59 64 65 67 63 52
28 34 38 39 40 42 43 49 54 57 61 57 61 65 73 84 85 81 82 83 86 87 88 86 88 87 89 86 83 79 73 79 77 68 58 55 56 50 43 45 54 63 66 67 68 69 64 58 51
26 31 40 42 42 40 43 46 55 58 57 58 58 58 64 72 77 77 81 80 85 90 95 92 92 84 83 80 76 77 85 78 66 60 59 55 50 48 52 60 68 71 73 74 70 64 54 54 48
28 31 36 39 44 43 44 49 56 56 58 60 54 59 65 74 84 81 80 82 89 90 89 94 93 83 81 78 85 82 70 60 60 55 55 53 54 51 55 69 74 74 70 66 62 54 50 41 36
33 34 41 40 38 44 52 54 57 57 58 55 56 68 74 84 85 80 85 90 89 91 89 91 89 89 82 76 70 62 60 58 53 54 51 50 50 55 69 75 75 71 67 56 51 51 47 37 37
35 35 40 46 44 47 50 52 54 56 55 53 57 62 80 82 69 78 95 82 72 78 78 81 79 73 65 59 54 54 51 51 54 49 49 56 64 73 75 76 78 73 60 53 50 51 45 36 37
32 34 41 44 46 51 55 59 51 56 55 53 51 55 63 67 65 63 61 59 60 63 67 62 57 54 50 48 47 48 47 45 45 50 58 67 72 72 76 81 77 63 57 51 51 48 41 38 37
30 41 40 47 52 53 52 57 50 53 54 52 49 49 58 60 59 56 55 53 55 51 49 48 45 39 38 33 31 36 40 46 60 68 72 72 82 83 84 77 71 59 53 50 50 46 39 38 38
32 39 43 44 51 50 54 49 46 52 52 53 42 46 53 46 51 46 48 49 49 49 46 45 38 39 37 35 32 43 57 63 61 59 61 65 73 77 72 72 67 56 53 51 51 43 38 41 45
35 36 43 45 44 53 51 51 43 47 52 52 44 41 52 47 42 38 34 37 38 38 40 41 40 46 50 51 47 51 51 55 54 59 65 67 76 77 76 70 58 56 54 52 48 41 43 49 54
36 39 40 41 45 50 50 47 42 47 51 52 51 44 41 46 46 42 41 44 44 44 46 50 51 50 48 49 49 50 50 56 57 60 60 71 77 79 75 67 56 56 55 50 50 48 53 59 59
40 48 45 45 42 44 45 43 40 40 43 48 51 45 40 40 42 44 44 44 47 47 48 51 52 52 54 58 59 57 57 57 55 59 60 75 86 84 78 68 63 60 57 57 56 57 60 65 68
45 45 45 46 47 48 44 47 36 36 38 41 43 41 38 37 37 40 40 38 41 45 48 49 51 54 56 60 64 64 60 61 63 62 66 77 86 88 85 80 84 68 67 62 62 64 64 67 73
47 45 49 50 51 48 45 43 42 31 26 30 36 38 42 43 38 36 39 42 42 44 47 49 50 51 53 55 65 72 66 59 60 68 76 86 90 91 93 91 85 75 76 68 68 68 67 74 82
44 46 49 51 52 52 48 44 40 38 34 27 27 39 43 46 48 45 43 47 44 50 55 55 58 58 58 59 61 68 78 75 70 68 77 84 88 86 83 82 84 85 79 72 73 73 77 85 89
45 49 58 59 55 54 46 44 42 37 33 31 30 34 41 44 46 51 52 53 52 51 54 58 62 64 61 69 69 71 80 84 87 84 83 81 75 77 76 86 88 86 80 77 79 81 85 90 87
47 50 51 53 52 49 44 39 40 35 32 33 36 37 38 42 47 48 53 59 58 59 61 58 57 61 63 66 64 67 75 86 86 82 83 85 80 79 89 90 89 85 81 84 91 90 94 94 90
52 49 48 52 52 49 41 38 34 31 29 32 34 40 42 43 41 43 48 55 62 64 66 64 60 62 66 66 64 62 64 73 78 84 82 87 83 84 95 93 86 85 91 95 92 94 97 98 91
52 51 52 52 55 52 46 40 40 36 37 31 36 37 36 40 43 40 41 44 52 58 62 64 63 62 62 59 56 57 61 62 70 79 87 86 88 93 92 89 91 94 94 96 95 93 97 96 93
51 53 54 53 51 52 50 43 39 36 36 35 35 39 40 39 37 34 36 34 37 45 50 53 55 55 54 50 50 50 56 58 70 77 85 89 93 93 95 93 96 96 93 96 96 96 95 94 94
51 53 53 55 54 49 49 39 36 38 34 39 37 33 32 35 34 34 37 37 34 37 39 41 42 43 43 46 50 53 56 62 72 78 85 91 91 91 99 98 98 97 90 93 94 97 94 92 95

GFSSGP_prec_cthk_063.txt.gz
RH
13 14 15 16 20 26 26 23 25 28 30 36 43 42 45 38 49 73 92 87 67 62 59 58 61 65 67 72 72 70 69 69 63 53 40 29 32 31 30 32 31 29 26 26 23 22 22 23 21
17 16 17 19 26 26 22 25 27 28 49 45 46 40 43 38 61 65 74 92 74 68 68 67 68 71 74 77 79 77 77 73 64 51 38 32 32 33 32 34 34 33 29 28 26 25 25 24 23
16 16 19 30 32 28 24 32 32 40 47 44 62 47 51 47 59 72 66 68 74 78 77 75 76 79 79 83 84 81 78 72 63 47 40 35 34 34 39 35 35 38 32 32 30 29 29 28 26
18 18 20 21 27 28 27 27 31 42 50 38 60 58 52 55 59 60 64 65 67 79 82 91 83 83 86 87 85 84 76 69 58 46 42 37 38 39 42 37 39 42 37 36 35 36 33 31 28
17 20 24 28 26 27 27 29 51 58 48 59 58 50 47 54 54 58 62 64 63 74 82 99 93 97 95 92 86 81 73 63 55 47 45 40 43 43 44 38 41 39 39 40 42 40 36 35 31
22 27 29 24 33 30 28 46 52 66 61 65 53 52 61 63 58 60 62 75 76 81 89 96 99 98 97 96 89 82 69 59 56 49 46 43 45 45 45 46 40 43 48 48 47 44 39 38 38
19 30 32 29 28 29 38 51 60 60 64 69 63 56 71 65 66 65 72 75 81 83 87 87 98 98 98 95 94 89 72 67 60 52 51 47 55 50 48 46 47 51 51 52 51 45 46 46 43
18 25 30 29 31 34 56 47 48 50 64 63 64 67 77 70 69 72 70 71 79 84 84 78 79 90 92 92 91 88 84 71 59 57 56 59 55 54 54 53 50 52 56 56 52 53 54 49 45
19 24 29 33 32 36 58 44 53 48 62 64 63 68 73 71 71 73 77 77 78 85 87 91 89 90 92 90 89 89 84 74 65 65 62 63 63 57 57 56 54 56 58 59 55 55 55 52 46
20 33 33 33 34 36 39 43 53 51 53 69 62 61 71 75 76 80 84 82 84 86 91 93 94 96 90 89 88 86 87 75 70 70 72 77 67 61 62 60 59 61 57 58 56 58 59 52 47
29 31 36 34 40 40 41 44 50 51 57 83 67 59 63 74 83 89 85 84 85 87 90 92 96 92 92 87 90 94 88 70 71 75 78 72 73 69 59 57 55 55 58 61 64 64 60 52 44
24 27 34 38 37 36 40 43 45 57 61 58 61 56 55 66 78 81 87 90 91 89 86 90 92 95 95 93 88 88 77 70 73 77 71 74 73 66 59 55 60 66 72 73 68 62 54 43 35
26 28 38 37 39 42 39 39 50 55 55 54 52 52 58 64 73 81 85 86 88 86 93 98 99 98 98 93 87 84 76 82 79 73 69 71 70 65 58 60 72 76 73 70 62 54 50 40 33
37 32 34 39 34 37 39 53 47 64 56 56 52 57 69 76 81 87 87 89 90 93 95 92 94 98 91 87 82 83 85 81 71 68 68 68 66 62 61 69 77 79 77 66 57 50 47 38 33
27 33 38 41 46 38 39 52 65 62 53 51 49 61 74 77 80 87 93 99 97 96 92 94 89 89 90 93 87 84 81 74 66 64 64 65 63 57 65 81 83 80 75 62 55 51 44 38 35
28 32 39 47 49 43 39 58 73 56 49 46 48 52 61 65 70 62 79 75 75 81 88 90 87 87 88 87 80 71 61 57 58 63 58 54 61 64 73 77 82 84 70 62 52 47 45 39 36
34 36 46 47 45 47 47 64 78 47 46 52 46 48 57 56 59 59 59 59 59 60 58 61 66 64 63 63 58 57 59 58 55 55 60 64 65 73 75 82 87 78 72 59 54 47 45 38 37
39 33 38 33 50 39 47 42 60 48 42 56 50 46 57 50 60 57 58 62 62 63 60 53 49 52 48 44 46 51 53 51 57 66 70 72 77 82 83 87 80 75 68 57 51 48 46 39 44
35 38 35 42 45 37 48 52 51 57 44 50 48 46 49 50 49 49 48 45 47 42 40 42 40 37 43 41 41 46 53 61 67 65 68 68 72 73 79 83 78 71 61 57 51 50 47 45 52
32 42 39 42 36 35 47 47 49 49 47 49 49 45 41 51 46 42 40 38 36 36 38 40 40 41 46 52 47 45 47 51 56 59 64 62 69 75 82 83 81 74 59 58 57 55 55 56 58
38 46 51 46 55 35 39 39 45 42 44 42 46 50 42 43 43 46 41 45 41 44 44 46 50 49 47 54 51 52 52 53 57 58 60 60 68 71 82 87 87 80 77 75 73 68 64 65 62
53 43 40 40 41 46 54 52 53 44 35 38 40 40 35 37 41 46 42 42 43 44 44 45 51 55 57 56 62 58 57 58 61 62 66 63 65 77 86 89 90 90 87 86 78 78 75 71 69
47 54 41 42 52 50 48 40 52 34 30 39 36 41 41 39 39 40 40 41 38 41 42 44 45 51 55 54 55 61 58 64 68 68 66 66 68 76 87 92 92 96 93 90 83 86 85 77 78
45 44 43 45 49 56 49 44 50 45 37 36 37 36 42 44 48 48 50 48 48 46 47 49 51 52 61 63 60 62 66 69 70 74 77 69 70 79 87 92 95 95 92 92 94 91 92 82 80
41 45 53 58 69 51 55 39 44 46 40 34 36 34 41 46 49 50 49 51 54 56 54 58 60 62 66 66 66 68 75 74 73 78 84 89 88 91 91 87 81 83 92 98 98 95 92 88 88
47 46 56 67 61 68 42 35 42 39 35 33 33 32 32 36 49 49 49 52 53 61 61 62 63 66 67 69 68 74 74 71 69 75 78 86 80 80 85 93 92 91 97 98 99 96 93 94 92
52 47 55 61 48 47 41 39 32 33 30 31 33 33 40 40 41 50 57 52 51 59 64 65 66 66 65 72 74 75 74 69 65 70 71 68 71 76 88 94 97 96 96 98 97 94 96 97 94
50 52 51 47 61 57 43 39 40 41 40 30 33 35 36 41 45 48 48 55 54 55 59 64 66 67 68 68 67 66 66 67 71 70 68 69 74 81 86 92 94 93 98 98 96 94 96 93 98
39 51 50 60 61 59 49 41 46 34 35 35 35 34 37 38 42 43 48 53 56 60 63 62 67 71 73 72 69 67 66 64 68 70 72 73 79 81 85 91 88 98 99 97 97 98 95 93 97
54 45 52 55 50 50 49 45 45 39 39 40 35 34 35 37 42 42 40 39 40 52 58 58 64 68 72 73 71 58 54 58 63 67 74 71 73 75 76 75 81 95 93 94 96 94 94 96 90

GFSSGP_prec_cthk_066.txt.gz
RH
12 13 14 16 21 22 23 25 22 24 26 40 40 47 61 51 54 49 54 60 69 88 96 73 67 67 63 64 68 71 70 66 63 52 39 32 29 28 38 36 33 30 28 27 24 24 23 20 19
14 18 18 20 24 29 24 27 29 27 34 42 35 35 41 48 55 63 55 44 46 60 95 82 72 69 71 73 75 77 76 73 66 52 40 36 33 31 38 38 35 31 29 27 28 28 26 23 22
14 17 17 24 30 33 27 29 28 31 32 38 36 35 32 48 50 47 39 36 46 60 84 75 75 83 84 81 84 87 84 78 66 48 39 40 37 34 38 38 37 34 31 32 33 33 29 28 24
18 21 20 24 26 22 26 27 27 25 40 46 43 37 63 49 48 43 45 54 53 78 80 87 86 80 81 85 86 88 88 78 63 47 42 43 40 39 42 39 39 35 36 38 40 38 33 30 27
20 20 25 29 27 27 30 27 25 35 50 51 53 52 79 86 67 59 45 52 62 78 82 94 95 93 93 87 88 94 87 72 58 47 42 45 44 47 47 43 41 39 40 43 44 41 38 32 28
21 24 30 32 28 32 32 25 29 33 46 77 79 77 67 63 73 65 54 56 73 77 80 74 83 96 98 97 97 96 79 65 55 50 50 50 47 47 48 46 45 41 45 48 48 46 40 34 33
18 23 28 29 28 29 40 32 36 48 47 47 52 58 76 94 78 73 64 71 76 83 81 83 72 78 98 98 97 95 77 62 54 51 52 52 48 47 49 49 47 47 50 52 58 49 43 38 38
21 21 25 30 29 34 33 34 40 38 37 42 58 64 71 59 69 74 72 74 74 78 83 77 67 73 88 96 94 91 76 68 60 56 55 54 52 52 55 56 54 50 57 62 56 52 44 43 43
16 24 32 35 34 42 34 32 41 37 41 57 86 76 57 64 79 76 73 75 73 76 78 79 77 77 79 85 89 89 81 67 60 61 65 61 58 61 61 59 57 63 62 61 59 55 48 45 43
21 25 36 39 33 30 29 36 45 47 49 49 53 81 76 68 71 76 75 74 75 77 78 79 81 85 88 89 87 86 86 78 79 71 66 65 65 66 68 65 64 65 68 65 59 54 52 49 42
27 26 35 33 33 30 30 38 44 42 46 54 59 73 76 67 62 69 75 73 72 75 79 83 86 94 94 90 88 84 81 82 72 68 67 68 68 71 70 68 68 70 66 59 57 55 56 44 40
33 28 22 26 34 32 33 35 39 49 57 53 53 71 61 63 62 65 70 70 73 77 83 86 90 88 88 98 93 87 87 81 76 71 72 72 72 72 71 68 68 68 60 63 66 62 55 45 36
34 31 25 32 29 27 35 42 40 67 68 59 62 58 52 60 64 65 66 69 75 79 84 84 88 93 94 92 96 90 84 79 74 75 80 76 72 71 69 65 69 67 70 74 67 59 49 44 33
29 35 28 28 35 29 33 37 42 73 80 60 57 48 54 66 66 64 71 79 82 85 87 92 95 97 95 96 97 93 83 75 80 80 79 72 71 68 69 68 72 75 78 74 64 54 46 41 33
26 25 25 37 42 43 40 39 47 57 68 72 52 46 43 48 62 73 82 83 86 93 92 98 98 95 95 95 92 86 82 81 81 80 74 71 69 69 66 66 76 81 82 74 60 49 46 42 32
27 27 33 40 43 43 44 47 41 49 69 72 52 52 49 53 53 58 71 69 77 85 90 92 97 93 88 88 87 84 85 83 79 72 65 61 63 62 62 68 80 82 82 74 62 51 48 42 33
34 36 35 37 43 46 47 53 51 51 64 85 55 55 53 49 54 48 54 59 62 69 78 84 87 91 83 86 81 86 73 70 64 60 57 55 56 58 64 72 75 83 80 73 63 57 48 43 37
44 44 40 33 47 45 41 53 56 60 57 73 59 54 47 54 54 55 53 55 55 48 46 52 61 68 73 64 68 63 57 54 54 52 52 54 57 60 66 75 81 84 77 72 65 54 51 49 43
41 38 41 43 44 43 35 41 54 60 71 67 58 51 52 53 51 48 49 41 41 44 43 45 49 49 54 49 48 45 45 47 49 53 58 56 61 64 70 75 78 79 74 71 62 56 53 54 52
32 30 35 39 45 38 30 42 58 50 48 55 55 49 50 49 48 45 41 38 37 41 40 41 43 43 43 42 38 41 46 48 50 53 53 61 65 67 74 74 79 75 74 72 64 64 66 72 67
30 27 45 45 45 39 37 38 47 50 55 46 53 52 53 47 45 44 40 43 46 43 42 41 38 37 40 43 43 45 49 49 50 53 55 60 59 59 68 68 77 79 81 82 77 79 82 77 76
39 35 41 46 46 44 48 49 52 48 44 36 35 46 39 41 42 41 41 39 39 38 40 43 43 43 44 49 55 53 48 47 51 53 58 58 60 61 64 69 79 85 86 90 90 95 90 87 83
47 41 49 40 38 45 48 58 55 41 46 43 43 34 34 32 37 39 36 36 37 37 38 40 45 48 46 46 50 53 49 48 49 55 63 66 67 66 70 73 80 84 89 92 94 96 95 96 94
42 40 40 41 42 46 46 52 54 47 45 39 41 41 37 36 40 49 50 47 47 48 46 42 42 43 50 57 56 56 55 53 52 59 64 68 77 81 81 80 80 85 90 92 95 96 97 91 96
39 40 45 52 53 49 51 50 49 46 45 45 41 41 43 42 43 47 50 49 48 49 49 50 48 50 52 57 59 59 58 61 66 64 62 66 80 79 67 74 79 87 89 91 96 99 93 98 98
37 37 44 67 85 74 60 41 40 41 42 36 32 31 42 49 47 44 47 49 49 49 48 52 54 54 57 58 60 67 67 65 66 64 58 60 66 67 67 65 80 82 89 93 98 95 99 97 99
54 49 37 73 73 84 57 40 32 35 35 30 32 36 38 38 43 47 48 54 53 51 47 50 51 54 58 58 62 59 64 67 84 81 58 66 76 71 73 79 77 84 88 93 90 94 99 97 97
41 48 48 56 82 61 38 36 43 41 42 36 32 33 35 41 43 42 53 54 54 52 49 50 53 55 58 58 55 55 57 61 62 70 65 83 82 75 80 79 85 84 82 79 75 98 98 95 94
35 46 51 48 52 59 54 53 51 47 42 32 34 33 34 36 35 38 47 60 59 63 61 55 56 61 63 62 63 61 63 65 73 82 79 66 75 80 81 74 77 77 76 68 72 84 92 97 85
38 33 48 52 58 52 60 58 48 47 44 41 35 35 36 36 35 37 38 43 58 63 63 68 63 63 67 70 78 77 84 85 75 63 68 72 77 81 77 74 72 72 71 69 73 84 82 79 71

GFSSGP_prec_cthk_069.txt.gz
RH
13 13 15 16 20 21 22 23 26 27 32 40 41 37 38 41 48 60 64 61 63 60 65 72 96 91 80 71 67 61 62 68 64 44 34 32 28 31 29 32 33 32 27 23 22 22 21 23 26
13 16 18 20 23 27 26 26 31 31 38 41 39 40 37 58 71 70 75 68 57 54 49 55 69 97 91 82 74 71 68 73 67 42 35 37 35 33 33 33 35 33 28 25 24 24 24 26 30
14 18 20 22 25 28 27 30 32 36 35 38 39 45 52 63 66 77 78 66 64 50 46 44 45 63 94 87 82 79 76 80 69 45 41 45 41 37 37 32 31 31 32 28 26 27 28 30 34
17 20 22 23 24 24 28 29 32 34 32 31 39 49 54 53 75 70 87 73 59 46 40 49 69 88 94 87 86 84 83 79 61 40 38 44 43 39 39 35 30 32 34 30 30 31 33 35 37
21 22 24 26 25 30 32 32 34 33 36 40 36 50 56 61 58 58 63 65 64 51 57 65 81 96 98 93 88 87 86 82 61 43 42 46 46 42 39 37 35 37 38 35 34 35 35 37 40
19 20 26 28 27 31 33 34 36 37 36 44 41 44 50 57 60 57 66 66 73 65 69 82 90 91 95 95 92 91 85 78 57 48 47 48 47 42 41 42 40 42 42 40 39 38 36 38 42
20 24 25 25 26 28 38 36 38 37 40 43 38 44 69 67 58 68 70 68 69 64 80 80 75 76 71 96 99 97 88 74 59 51 50 51 47 46 45 46 44 47 50 45 45 44 45 41 41
20 24 25 25 29 38 39 37 37 35 45 46 50 65 86 69 61 72 71 71 71 71 79 77 75 77 83 86 93 97 95 74 65 58 54 54 53 53 49 48 49 53 53 56 51 53 47 44 39
20 25 27 29 36 39 38 36 39 37 43 51 55 58 64 61 65 67 77 77 76 75 81 84 79 80 83 86 93 93 93 76 74 66 60 59 59 58 55 54 56 60 63 63 61 57 51 46 39
24 22 25 26 34 35 35 36 41 44 50 57 61 66 71 67 63 64 71 77 75 75 77 80 81 79 84 88 93 92 90 82 76 77 76 65 61 59 59 62 63 66 67 69 64 59 52 42 37
29 27 25 25 28 34 34 34 37 47 60 71 68 69 66 59 60 59 59 70 77 76 76 78 82 86 86 84 81 83 86 86 83 82 68 63 62 63 64 66 70 71 69 70 65 58 48 39 38
31 30 30 23 22 31 29 32 46 46 60 68 71 69 60 49 57 62 62 68 74 74 78 80 85 90 92 89 90 91 91 80 79 74 67 64 64 65 65 68 71 73 70 68 60 58 52 41 34
26 29 29 29 25 29 33 33 36 42 40 41 69 63 53 51 54 59 68 68 70 70 76 82 86 88 89 89 96 91 80 74 79 78 69 65 67 67 67 67 71 72 71 68 70 65 56 44 34
23 28 28 29 24 33 38 39 34 40 38 47 55 55 52 50 53 64 71 74 74 76 76 77 78 83 92 94 90 84 82 80 77 71 70 72 70 69 68 65 69 72 71 80 73 65 48 43 33
25 28 21 24 32 37 42 47 49 47 46 50 54 49 52 51 54 70 73 83 81 80 79 78 81 84 90 88 88 87 83 78 74 75 78 74 72 69 64 62 65 71 78 82 76 61 44 42 36
25 28 30 31 34 40 42 45 47 55 60 67 63 50 48 53 53 59 57 65 77 87 87 82 86 86 85 87 86 83 81 77 80 79 74 71 67 64 62 61 66 75 81 83 78 61 48 43 38
24 36 41 33 39 41 44 50 50 58 61 66 68 67 49 51 58 51 51 56 62 70 77 78 84 83 86 88 84 82 82 80 79 69 66 65 61 58 60 59 70 76 80 81 76 65 57 48 42
38 46 50 45 43 45 50 50 51 53 57 63 75 76 53 49 45 48 47 49 52 53 64 76 76 74 75 76 76 74 75 64 58 56 54 55 55 58 62 63 68 72 82 79 73 69 59 54 48
39 45 48 42 44 47 49 42 47 54 61 59 61 65 58 45 44 40 34 42 43 44 49 51 46 49 51 50 51 51 51 52 53 52 50 49 52 54 58 63 68 73 77 78 72 69 64 57 55
40 44 38 48 43 44 41 33 44 53 57 59 52 60 63 50 43 43 35 31 32 33 35 40 43 41 42 42 49 50 49 49 49 49 50 46 48 54 55 61 67 75 79 79 74 77 75 75 74
43 40 31 42 42 46 42 38 53 48 56 56 57 58 51 48 41 41 37 30 30 29 30 32 37 41 41 41 46 47 46 44 44 44 47 49 50 54 60 60 73 72 74 78 86 89 90 88 90
41 34 32 40 46 46 44 46 50 49 50 50 49 46 46 44 39 38 35 32 31 31 31 31 32 33 36 36 35 36 40 42 43 44 49 55 58 57 59 58 59 61 65 72 80 86 93 96 96
34 46 47 47 44 39 39 50 54 52 46 46 52 49 45 37 33 36 36 39 35 35 34 33 36 39 35 34 37 39 39 38 40 44 48 54 60 62 68 70 73 73 77 83 84 86 90 95 98
32 45 45 44 46 49 38 56 63 52 44 45 45 47 48 42 35 39 45 45 39 40 41 41 42 42 40 40 45 48 48 51 54 52 55 59 62 66 68 78 71 66 68 79 85 90 95 96 97
39 43 51 57 59 52 55 62 53 48 45 45 38 42 45 44 40 41 44 46 44 42 44 46 46 46 50 53 52 55 59 61 63 64 55 59 59 60 67 68 68 71 76 81 83 88 90 90 95
40 41 53 59 69 62 53 56 46 37 38 39 34 38 40 42 44 39 40 41 47 48 48 46 48 47 49 50 52 54 58 63 63 66 65 60 55 59 66 73 76 79 78 79 80 79 77 78 74
40 47 44 67 67 78 71 52 44 40 37 37 39 40 39 40 43 47 46 43 45 54 51 46 45 44 46 49 50 55 60 60 62 61 67 74 71 71 83 89 86 87 81 76 75 76 79 69 72
39 46 62 71 88 87 63 63 52 50 45 37 34 32 33 37 44 46 46 44 47 47 47 48 45 43 44 47 50 51 54 63 73 66 71 76 80 92 79 88 85 89 80 75 73 70 75 64 70
37 42 57 67 74 69 68 63 53 48 49 43 35 33 31 35 40 46 50 48 46 46 46 46 55 53 52 51 47 52 60 60 65 73 84 93 93 90 82 79 80 75 71 72 76 77 67 67 63
43 34 47 66 62 66 73 63 47 49 44 42 42 37 33 30 29 29 37 47 52 50 48 47 55 54 50 54 61 75 75 76 89 97 95 86 73 72 69 74 68 71 74 77 79 66 63 57 66

GFSSGP_prec_cthk_072.txt.gz
RH
13 14 15 16 18 22 24 25 23 26 31 43 45 48 54 57 57 59 66 68 82 77 77 74 74 70 73 83 82 71 65 66 60 51 45 37 32 30 30 30 31 30 28 23 22 22 24 25 26
15 16 18 19 24 27 27 25 26 33 36 42 43 50 48 57 58 57 58 65 71 78 85 82 77 73 63 81 91 81 74 69 57 45 44 38 39 33 33 33 31 28 26 25 24 25 26 26 26
15 18 20 23 28 29 29 26 31 39 40 38 37 39 44 47 54 58 56 58 63 75 79 85 78 74 65 71 87 89 79 73 58 43 44 45 44 38 34 33 29 27 26 26 27 29 29 29 30
17 19 21 23 24 26 28 29 31 46 40 34 36 40 41 41 46 53 59 62 64 57 77 79 79 76 67 70 81 96 86 79 57 46 47 46 43 39 37 33 32 30 27 26 29 32 30 33 34
19 22 23 24 26 27 28 34 39 45 40 41 36 40 43 43 44 51 53 54 62 63 67 83 79 65 78 88 91 96 92 82 60 44 48 47 46 41 37 37 35 34 31 30 32 35 35 34 37
20 23 23 26 27 29 35 46 46 42 41 39 40 44 45 41 44 51 59 64 65 66 68 89 90 93 90 97 94 96 92 79 67 68 55 49 48 42 41 40 39 37 36 35 37 38 38 38 39
21 24 22 26 28 31 36 45 42 41 40 43 45 46 49 52 57 56 69 73 76 75 75 84 90 89 87 87 89 95 96 79 66 53 52 49 47 44 46 46 45 43 42 40 39 43 47 44 42
22 23 24 28 31 32 35 39 38 39 48 49 49 52 53 56 54 56 77 75 75 75 75 80 85 77 84 80 91 99 97 90 73 65 62 52 48 49 50 51 51 50 48 46 45 46 52 50 46
23 22 26 28 28 32 35 40 37 42 43 46 47 51 57 57 55 54 68 78 76 78 78 84 86 82 83 80 81 90 91 91 80 70 59 57 51 54 56 56 56 58 56 51 49 52 55 52 45
25 24 25 26 28 30 30 35 36 44 47 48 51 52 56 55 54 55 60 65 76 78 80 85 86 82 82 85 82 90 92 89 83 76 67 60 57 59 56 61 61 63 63 58 56 58 58 50 42
24 25 24 27 29 29 29 33 33 40 46 46 43 46 52 51 45 53 58 62 69 77 81 80 82 81 82 85 87 91 89 91 87 85 81 66 65 63 66 64 64 67 68 68 70 65 53 44 37
25 24 25 26 30 29 28 32 36 37 36 34 35 43 55 45 44 54 59 68 68 75 74 75 79 84 87 88 90 89 90 88 90 87 84 75 68 66 61 62 67 69 71 73 70 60 49 40 36
24 23 25 30 32 27 27 31 35 38 36 42 48 54 52 41 44 55 60 66 73 75 77 77 83 86 87 88 89 88 88 93 89 85 81 72 62 61 61 63 69 72 74 72 65 60 53 40 35
25 22 23 23 24 32 35 37 40 43 47 50 55 57 43 36 45 58 69 68 75 76 79 77 83 84 84 87 86 87 84 85 84 80 73 67 63 65 64 67 69 72 72 70 69 66 57 46 35
21 18 22 22 30 37 39 41 44 47 54 58 62 50 35 36 39 49 60 69 79 80 82 90 93 88 85 88 90 91 90 83 76 73 73 71 70 69 66 66 68 70 70 74 75 66 54 43 36
22 20 29 29 35 39 40 39 45 48 50 57 62 51 31 35 45 43 51 60 72 83 92 93 92 91 92 94 90 83 84 80 77 76 74 74 72 69 69 64 63 70 71 79 78 72 55 42 39
22 24 29 39 38 40 40 43 54 51 51 60 57 58 36 36 43 48 46 51 59 77 91 93 95 92 92 87 85 83 80 80 76 73 73 72 72 67 65 62 62 68 73 78 79 75 61 51 44
30 25 37 42 41 46 43 51 52 50 57 62 54 57 43 39 42 51 45 47 50 66 87 92 90 89 90 86 84 84 80 79 73 71 71 71 68 63 60 57 58 68 71 79 78 73 65 59 52
28 36 40 38 44 51 51 52 47 42 54 59 50 49 43 38 40 47 44 43 44 51 68 75 81 81 84 83 83 80 72 68 66 64 63 63 61 60 59 60 62 66 72 72 72 70 65 61 62
27 38 40 37 44 48 50 44 46 48 51 59 53 49 43 40 39 41 37 31 38 44 49 55 56 56 58 61 60 61 59 58 56 54 53 51 50 50 52 55 61 61 64 70 75 76 73 75 76
34 36 34 36 41 47 47 48 47 47 51 59 44 44 39 40 39 38 35 30 29 35 39 37 39 40 43 44 45 47 51 49 46 44 48 47 48 48 46 50 53 59 61 67 74 77 77 81 84
41 34 35 38 40 48 47 47 46 47 55 55 43 42 37 37 38 36 32 30 26 28 31 33 32 34 35 35 37 38 40 40 41 44 45 50 49 46 47 51 53 59 63 67 74 76 79 87 91
42 37 43 45 46 45 44 48 40 44 48 44 43 42 44 41 37 35 34 32 25 25 24 26 29 30 32 34 34 38 40 38 39 41 45 49 50 54 54 60 67 73 76 78 76 80 84 92 91
45 39 42 48 50 50 45 51 39 41 43 41 42 43 41 42 40 42 42 41 36 32 29 29 30 31 32 33 35 36 38 40 42 40 42 50 49 54 61 67 74 75 68 72 74 75 82 82 84
47 46 52 53 60 54 49 52 40 42 42 42 35 40 40 44 46 41 42 43 39 36 36 38 38 36 34 35 37 39 43 41 42 45 48 49 53 57 60 57 68 71 81 82 79 76 81 81 83
45 42 51 53 59 55 54 50 41 40 39 42 37 38 39 44 47 44 40 38 38 40 38 37 39 39 38 39 39 40 46 49 58 62 64 66 62 55 54 54 62 75 88 88 87 81 81 76 78
49 50 41 58 61 68 58 56 43 41 36 40 38 40 39 42 44 45 45 45 44 47 47 40 37 37 37 38 44 49 52 59 66 64 66 67 72 74 74 71 76 90 91 94 89 82 79 77 78
51 46 57 58 74 72 57 64 53 40 39 39 38 38 35 37 41 42 45 46 46 49 55 57 52 45 40 41 44 52 59 59 67 74 75 78 74 75 76 85 90 88 93 92 91 80 79 83 80
55 51 57 56 66 71 72 60 48 42 41 41 41 38 35 38 37 40 42 47 48 50 55 57 65 68 63 60 57 62 59 59 61 65 72 82 94 95 95 86 83 93 91 84 81 84 83 81 65
56 47 50 65 67 74 81 59 50 47 41 43 43 41 36 37 38 39 40 41 42 45 49 55 64 67 73 75 80 84 85 87 86 78 87 94 92 91 78 83 86 89 85 84 84 85 76 69 62

GFSSGP_prec_cthk_075.txt.gz
RH
13 15 17 16 17 22 26 25 23 25 28 36 38 37 40 48 48 50 54 58 61 65 68 69 67 72 74 64 66 68 67 70 64 61 53 53 43 34 32 31 36 34 30 26 23 28 27 24 27
16 18 19 18 23 28 26 25 25 26 32 37 42 41 42 47 47 47 51 54 55 61 70 80 80 91 83 82 72 68 70 72 66 62 55 44 43 36 36 36 34 32 27 23 23 24 26 26 25
17 20 20 21 27 29 28 25 25 28 31 40 45 47 46 45 46 46 47 49 51 60 71 76 70 97 92 94 92 81 67 82 74 64 50 40 50 41 42 37 32 28 26 28 28 30 29 29 28
18 20 20 20 23 25 25 24 28 31 37 47 45 46 44 41 43 46 46 51 50 60 67 72 75 67 77 92 88 81 69 84 90 66 47 42 51 51 43 38 31 29 30 30 28 31 31 32 32
21 22 23 21 23 25 25 30 34 38 46 46 45 40 43 45 51 53 47 50 58 58 65 67 73 68 74 80 82 79 80 75 96 69 44 49 44 47 43 39 33 32 33 34 34 35 35 36 35
24 23 24 22 24 27 29 31 41 42 46 44 45 44 46 49 55 58 59 65 70 69 67 68 70 79 80 84 85 85 92 88 97 60 48 50 55 47 45 41 36 34 37 38 38 40 39 40 38
23 25 23 24 28 29 28 30 34 45 44 44 44 41 46 59 64 61 59 71 73 79 78 75 73 78 82 83 85 89 92 97 96 69 46 48 48 49 47 41 39 40 41 43 40 42 43 44 43
23 27 24 26 29 29 26 28 38 43 43 42 45 40 50 59 63 61 61 63 75 80 79 79 77 83 84 88 92 89 97 98 90 74 63 54 64 55 46 44 43 41 46 46 45 46 46 45 49
25 28 26 26 27 26 25 28 35 38 39 41 41 41 48 53 57 59 56 60 71 81 82 82 83 83 81 87 91 91 99 98 93 88 78 67 56 49 49 49 45 44 46 49 49 50 48 45 52
27 28 24 24 26 27 26 29 33 37 37 35 39 40 47 53 60 57 56 57 65 73 80 81 83 83 85 88 89 88 93 95 97 91 65 50 50 53 54 53 50 49 50 51 53 54 51 48 54
30 27 24 25 25 26 25 30 32 37 36 31 35 36 48 58 60 55 52 57 59 65 77 83 80 82 84 85 87 93 94 96 94 83 53 51 55 58 60 58 58 57 59 60 58 57 53 59 54
31 27 25 21 23 26 25 28 33 32 31 34 37 44 48 57 57 48 48 50 58 62 66 79 79 78 81 84 89 95 96 96 96 86 64 65 65 64 66 66 67 68 67 64 62 58 57 53 45
30 27 25 21 22 23 25 29 31 33 36 42 47 54 61 57 43 44 48 61 59 64 66 73 74 74 79 85 89 92 95 94 96 88 69 68 70 74 75 77 73 69 67 68 65 60 53 46 40
29 29 23 20 22 26 32 34 38 35 38 41 52 59 59 50 40 43 46 56 69 67 70 73 75 74 79 86 87 88 92 93 92 90 80 74 74 77 75 72 71 69 68 69 68 62 55 47 40
31 28 20 18 22 28 31 34 38 36 39 41 52 60 61 43 39 42 41 52 69 76 72 74 76 77 82 84 88 91 89 92 92 90 86 81 74 68 70 70 71 70 70 71 67 65 63 49 40
33 28 21 21 28 36 35 35 34 38 40 44 57 61 63 44 44 46 39 45 58 76 78 80 84 93 90 89 92 96 95 91 90 87 85 78 72 71 69 68 71 72 72 71 73 72 66 54 46
35 30 22 26 33 39 40 37 39 38 41 51 55 62 64 47 43 47 43 41 52 70 80 80 84 85 89 94 96 98 95 91 88 83 81 74 72 70 69 68 66 67 72 74 79 80 77 68 53
36 32 25 28 38 42 39 38 43 42 47 50 54 57 60 47 44 46 44 40 46 67 79 84 84 94 99 96 94 96 94 89 87 81 78 74 73 72 70 67 62 64 69 74 79 85 85 79 66
35 31 31 30 35 39 42 40 47 45 44 49 57 49 48 48 45 44 45 38 41 60 80 85 89 93 94 97 96 97 94 88 82 78 80 75 71 66 62 65 65 64 66 75 81 84 83 81 73
39 34 33 34 37 39 40 42 45 47 42 45 53 45 48 49 44 40 38 37 37 46 59 72 79 89 92 95 94 94 90 87 79 77 68 66 63 63 63 64 63 68 68 73 75 79 83 83 78
40 34 30 35 39 36 37 40 48 46 40 41 50 43 41 38 38 38 33 31 32 39 43 47 52 59 74 84 83 79 75 75 71 64 60 62 60 61 63 61 61 65 66 67 66 74 79 81 81
41 28 39 41 41 40 38 47 42 44 45 44 49 40 35 33 32 33 31 28 24 32 36 38 42 45 52 56 58 60 59 60 54 52 50 50 53 55 54 57 55 59 59 64 63 69 76 83 83
42 39 47 46 42 43 42 46 39 40 43 40 37 33 34 30 29 27 26 28 26 26 28 32 36 38 42 47 45 47 47 48 48 49 47 51 53 51 51 52 51 55 60 65 72 81 82 89 84
39 50 54 51 46 50 43 48 40 38 36 34 34 33 33 33 31 36 37 37 35 29 27 26 29 31 34 37 41 44 43 44 42 42 45 50 55 57 56 60 59 63 72 79 77 79 85 85 83
51 53 62 58 55 51 46 53 40 37 40 38 37 35 36 35 35 35 38 40 40 37 34 34 34 35 35 37 39 40 41 43 44 47 50 51 55 56 59 60 63 66 71 78 82 91 93 85 81
53 53 65 62 58 49 50 52 37 38 41 39 35 31 32 35 38 36 37 38 36 39 38 36 37 38 39 40 41 43 44 46 49 49 52 56 56 56 54 55 57 56 64 71 83 95 93 91 84
49 54 53 65 68 63 50 40 32 33 35 34 32 32 33 36 35 37 40 40 40 42 43 41 37 39 40 40 42 44 46 49 51 54 54 57 62 67 70 71 67 72 66 70 88 96 94 89 82
51 54 61 65 72 63 53 46 39 36 39 35 33 32 35 36 36 39 43 45 46 46 50 55 55 46 40 41 42 44 46 49 54 56 59 67 74 80 86 89 93 91 82 84 87 93 95 93 87
56 56 58 61 63 61 63 50 36 40 42 37 33 34 36 31 31 36 40 44 48 51 54 56 57 59 63 60 58 57 56 58 60 59 61 69 81 88 96 97 95 94 93 89 89 91 95 89 86
53 54 57 68 72 63 61 53 41 43 46 41 35 39 41 34 31 33 34 38 43 47 52 56 58 60 65 76 84 88 84 74 77 76 79 78 80 83 90 83 80 75 79 87 89 89 92 89 89

GFSSGP_prec_cthk_078.txt.gz
RH
13 14 16 17 17 22 25 24 22 22 25 31 41 40 38 39 41 41 46 50 56 65 73 74 71 69 73 73 75 73 70 63 67 74 68 71 58 50 44 40 39 38 36 30 25 23 26 25 24
14 16 19 18 22 26 24 23 23 22 24 27 38 43 42 43 44 45 48 52 57 65 72 71 70 72 76 78 89 84 79 70 71 74 68 62 54 56 42 42 43 41 35 29 30 27 26 27 25
15 18 19 21 27 26 25 23 24 23 26 30 35 38 43 42 40 40 42 44 49 62 65 64 65 70 85 84 83 97 87 78 70 67 63 62 46 52 45 40 42 37 33 35 34 33 30 30 25
17 19 20 22 23 24 24 24 27 27 29 34 36 38 40 37 38 42 46 51 47 55 69 69 68 74 80 78 70 95 98 88 76 63 61 57 47 42 52 42 42 35 30 29 31 31 32 30 25
20 22 24 24 22 24 25 24 28 30 33 37 37 38 40 39 40 43 47 50 50 56 70 77 73 73 78 69 65 76 82 91 91 72 73 61 51 42 58 43 44 35 32 33 34 36 36 35 33
23 23 27 24 21 25 24 24 30 30 35 38 42 44 40 37 46 51 54 54 54 62 71 75 72 68 67 67 81 91 90 90 85 80 73 66 46 41 62 43 44 35 35 35 37 40 41 42 37
23 25 26 24 24 27 24 25 29 31 37 38 42 44 38 39 48 49 51 54 56 65 74 82 81 79 78 84 80 88 90 94 92 88 84 64 49 46 50 44 40 38 38 40 42 45 46 44 41
24 28 28 26 28 27 24 25 27 31 32 37 41 42 36 39 44 47 52 55 53 67 73 81 90 90 90 88 85 91 91 94 95 94 88 65 43 50 45 47 44 43 42 45 47 50 50 47 44
25 29 30 27 28 23 23 25 27 27 30 35 40 40 39 39 47 50 54 53 50 59 73 80 83 84 85 85 86 86 88 96 99 97 89 74 55 47 52 45 48 47 48 50 51 53 54 54 51
27 30 29 27 27 24 23 25 26 27 29 33 39 40 43 49 50 52 50 48 49 57 66 79 79 83 84 86 88 84 89 98 98 97 85 60 46 47 47 54 51 51 53 53 53 57 58 55 48
27 28 28 28 29 25 23 24 27 28 29 32 38 43 49 51 57 56 47 45 49 55 61 70 82 85 87 87 87 89 92 98 98 93 77 58 51 57 60 56 53 55 55 56 57 60 58 54 54
29 30 31 27 28 26 25 27 30 26 27 33 39 41 51 58 64 59 43 43 48 59 61 64 77 81 82 84 88 94 96 93 92 92 80 69 67 65 63 57 56 57 58 60 63 61 59 58 56
30 31 30 27 24 25 24 25 27 28 31 36 44 50 56 62 62 44 40 42 52 62 62 66 72 78 78 84 92 95 98 98 96 94 83 71 69 67 65 62 63 65 67 68 67 64 59 57 54
32 31 31 26 23 23 22 25 30 29 31 39 51 53 57 61 56 40 42 43 51 65 65 68 72 78 76 86 93 95 96 93 92 83 74 72 74 74 75 74 79 75 75 74 69 63 59 56 50
35 35 32 26 23 23 23 27 34 30 35 41 49 59 59 63 54 41 43 43 50 64 73 70 74 77 77 85 92 95 96 96 91 84 74 78 76 76 82 82 81 83 82 79 72 67 63 56 49
37 38 36 24 23 25 31 32 34 35 38 41 49 59 61 65 53 42 46 43 46 61 74 80 74 76 80 88 94 98 98 96 93 88 79 78 78 77 76 83 86 84 83 80 77 73 71 66 51
41 45 38 26 25 28 34 31 36 38 40 41 48 54 61 59 57 44 49 45 46 58 76 84 81 86 90 88 93 98 99 99 94 92 84 81 81 82 81 84 84 84 84 82 78 80 81 80 67
48 48 37 31 26 32 35 35 32 37 42 41 48 55 58 53 50 44 48 47 46 56 76 88 91 93 91 91 97 98 99 99 96 92 87 85 85 82 79 78 78 81 81 83 82 82 85 86 83
45 45 38 34 27 34 39 37 34 36 41 44 51 56 54 51 47 43 46 47 43 53 79 89 90 94 92 91 98 99 96 97 96 93 91 88 83 79 77 76 76 76 76 77 83 85 83 85 83
49 48 41 34 29 36 38 33 29 37 37 45 50 54 53 54 50 44 41 37 41 49 67 88 90 94 96 99 97 97 95 91 94 92 88 89 79 78 78 77 76 73 72 70 76 80 82 81 82
49 48 44 39 34 42 44 36 28 32 37 41 43 51 49 47 44 39 38 34 36 43 50 65 77 86 92 94 96 95 96 93 91 92 91 85 81 79 74 73 74 72 70 71 72 72 70 75 80
50 42 43 39 41 46 43 47 29 30 34 40 45 48 41 38 39 35 36 32 28 32 38 46 55 64 77 88 92 93 92 91 88 83 77 73 71 71 69 69 71 74 72 69 67 64 65 68 76
48 45 46 41 46 49 48 51 31 28 34 36 39 39 36 34 32 31 32 32 27 26 32 34 42 50 55 63 72 72 73 71 70 65 64 64 60 62 62 61 64 62 63 63 65 65 62 68 76
48 48 45 46 52 64 52 54 35 29 33 31 31 32 29 33 33 33 34 36 33 24 27 30 34 38 44 48 52 52 52 52 53 53 53 52 55 56 56 55 57 60 60 61 63 65 74 81 80
47 50 56 60 70 63 51 55 32 28 30 33 36 30 30 32 32 36 40 40 40 37 31 29 30 34 38 41 44 42 41 42 44 47 48 48 53 55 59 62 60 60 61 64 66 73 84 84 88
50 50 60 63 66 61 60 57 35 26 27 34 37 33 32 34 33 35 38 42 41 40 38 36 36 36 37 39 42 44 45 48 49 50 50 52 53 55 56 58 59 60 59 57 60 61 70 82 89
50 52 47 63 72 71 62 53 34 24 25 32 37 36 31 32 32 33 36 40 42 41 41 38 34 37 39 39 44 46 47 53 55 57 57 56 55 56 58 60 58 54 54 58 58 67 72 81 93
42 51 62 68 77 77 64 59 40 25 26 32 34 34 29 31 33 34 37 40 43 46 47 49 50 44 39 41 42 44 48 51 52 53 54 56 56 58 62 58 60 65 69 77 76 79 85 85 91
46 49 57 63 65 63 68 57 38 29 30 35 35 36 36 35 31 33 35 39 46 51 52 51 56 59 58 55 46 45 48 51 52 52 52 51 56 57 60 70 80 88 91 92 88 96 93 91 94
45 51 54 65 67 70 68 52 41 36 35 36 37 35 36 36 29 30 33 36 39 46 52 56 59 60 62 65 72 74 71 71 66 64 64 64 63 72 75 80 93 91 83 81 85 88 91 90 90

GFSSGP_prec_cthk_081.txt.gz
RH
13 15 16 16 16 18 21 21 21 20 22 24 29 37 38 41 37 34 38 41 47 53 56 64 72 72 67 64 61 62 65 66 61 63 66 70 74 64 59 45 36 38 36 34 29 27 30 31 27
15 17 18 18 17 19 21 22 22 21 22 23 30 39 39 38 39 39 41 43 50 56 60 67 68 67 64 66 64 62 67 77 71 65 70 70 77 64 56 43 35 37 40 38 27 28 24 25 24
17 19 19 19 22 21 22 22 23 22 22 24 29 34 36 36 36 37 39 42 46 55 56 59 77 80 73 78 77 76 78 93 91 77 73 75 70 69 60 46 38 39 43 37 31 26 24 22 21
19 21 20 21 20 22 23 22 24 24 26 28 30 32 33 32 33 39 41 46 50 56 63 61 68 78 79 73 74 83 79 70 92 83 75 70 68 62 58 52 43 39 43 39 34 31 27 24 22
20 22 22 23 21 23 24 23 24 24 26 28 31 30 31 31 34 39 46 49 51 55 62 75 84 77 79 71 79 82 73 81 98 93 74 64 58 60 54 55 43 39 39 38 38 33 29 26 24
23 23 23 22 21 23 25 25 24 25 26 31 31 32 31 32 34 41 46 46 51 53 61 74 83 85 85 78 75 75 77 82 85 90 85 67 62 57 54 59 45 38 34 38 38 37 36 33 32
24 24 23 24 22 25 27 25 25 24 26 27 28 29 28 31 37 43 46 49 54 54 57 76 86 87 86 82 75 73 75 89 89 86 88 76 65 65 57 57 44 37 38 40 41 42 41 40 36
25 25 27 25 25 28 27 26 25 26 25 28 29 27 27 33 36 41 45 50 55 54 53 70 87 91 91 87 86 85 89 88 88 98 96 86 72 70 64 57 46 41 42 45 47 47 46 44 43
26 27 28 25 26 27 28 25 25 24 26 28 27 26 30 35 38 41 49 53 51 50 53 63 83 90 90 89 94 90 90 94 97 98 97 91 79 73 56 58 46 44 45 51 53 52 51 47 49
27 27 26 23 26 28 27 27 26 26 28 27 27 28 32 35 40 47 52 53 45 45 51 59 73 89 92 97 95 90 91 95 98 98 96 92 82 69 54 55 46 47 51 55 58 56 55 52 49
27 28 26 26 28 29 27 27 27 27 24 24 26 28 34 40 47 53 56 48 43 43 49 57 67 84 91 93 91 95 94 90 98 99 97 92 83 67 58 60 61 54 58 60 59 57 56 57 52
29 29 27 28 29 30 27 27 25 26 23 22 27 31 36 43 54 56 53 40 41 43 56 63 64 78 91 92 94 93 91 93 99 99 95 89 79 64 52 61 55 56 59 62 59 56 58 56 57
32 32 28 31 31 28 27 26 24 22 24 27 31 34 38 47 53 56 47 38 41 46 62 67 65 73 83 88 84 89 92 98 98 97 92 79 65 56 53 56 62 62 65 67 66 61 62 62 56
33 34 31 32 32 28 26 26 25 22 26 29 34 35 43 51 53 58 43 40 43 47 58 68 66 71 77 79 83 92 92 97 96 95 81 68 64 59 58 65 69 68 71 72 70 66 64 60 57
36 36 33 35 33 26 25 27 25 29 31 35 41 38 48 54 55 58 43 42 44 48 55 72 70 71 74 81 87 94 98 98 95 90 79 72 70 67 73 76 73 78 79 75 73 67 64 61 55
39 38 37 37 31 26 26 24 27 32 34 37 44 44 48 51 55 57 44 44 45 46 55 69 77 76 75 79 90 95 96 96 93 88 82 77 80 81 80 83 85 84 80 77 74 72 66 65 57
40 38 40 38 32 26 29 28 30 33 35 39 44 47 47 54 53 55 45 44 46 47 57 67 81 81 75 78 89 95 98 97 92 90 89 87 84 84 85 83 84 82 84 85 83 83 80 76 67
44 45 43 39 33 29 30 30 30 32 36 39 43 47 51 53 52 46 45 44 46 46 57 76 82 82 81 89 93 96 98 95 91 87 89 89 84 79 80 79 81 88 89 88 87 86 85 87 86
44 42 42 40 38 35 30 30 34 34 36 39 43 46 53 53 50 48 44 43 45 45 58 80 87 89 92 96 97 98 99 94 93 87 89 86 84 79 83 82 89 92 92 88 90 89 87 86 89
44 43 41 41 42 37 32 31 33 34 32 38 41 46 49 56 49 49 43 40 40 45 56 82 89 94 96 96 97 98 98 95 96 91 91 87 82 82 82 83 82 80 81 81 85 84 87 85 85
47 48 44 45 46 39 33 34 36 34 34 36 41 43 48 52 45 41 40 38 37 39 48 68 84 91 95 97 96 98 99 98 96 90 92 89 85 81 81 79 77 74 76 73 75 75 76 79 78
42 44 46 48 48 42 36 37 35 32 28 30 35 40 46 50 38 36 36 38 33 35 40 54 62 75 89 97 98 98 97 97 96 92 92 90 85 83 79 77 74 74 72 72 72 73 73 71 68
43 45 47 47 46 43 35 39 35 37 28 25 31 37 41 44 39 31 29 34 32 32 35 41 50 62 69 89 95 96 98 97 95 93 90 88 83 75 70 70 68 70 71 71 70 70 70 67 68
45 48 50 50 49 48 35 45 35 37 30 28 30 32 34 38 37 31 29 30 30 29 30 34 39 47 55 63 74 80 81 81 83 82 75 74 69 65 66 64 63 64 66 65 63 66 65 63 61
47 51 53 58 59 41 39 49 35 36 30 28 31 33 32 31 31 31 33 33 33 29 24 28 31 35 40 45 52 59 62 64 62 62 60 58 55 52 52 53 55 56 55 58 61 60 59 62 65
41 48 53 53 54 43 46 48 38 40 30 27 31 35 34 32 32 28 32 36 35 35 31 32 30 33 37 41 46 50 52 55 55 55 53 53 51 49 49 51 54 55 56 57 60 60 61 62 65
37 43 45 53 64 62 51 48 39 39 33 27 28 35 37 32 33 33 31 36 39 37 37 33 34 34 35 37 42 46 49 49 47 46 48 47 49 49 50 52 55 57 57 61 63 62 62 64 66
29 35 52 54 55 57 51 53 39 42 34 27 29 36 38 38 38 35 34 34 37 40 38 38 37 36 36 37 40 42 45 47 49 50 48 49 50 50 50 52 55 58 61 66 67 64 69 71 76
33 36 43 47 50 48 51 49 41 43 39 31 34 38 37 36 34 37 35 37 40 45 44 43 44 45 41 41 41 43 45 47 49 48 50 50 53 53 55 58 60 64 69 71 66 79 86 89 94
37 38 41 51 59 56 52 46 42 44 43 34 37 39 38 36 38 37 38 38 41 45 49 50 51 52 56 58 54 54 49 49 50 52 54 54 56 57 60 63 65 66 65 74 86 92 93 89 92

GFSSGP_prec_cthk_084.txt.gz
RH
12 12 14 17 17 15 16 17 17 19 21 21 24 27 31 32 32 33 28 28 32 38 46 49 54 60 61 63 58 57 58 65 68 67 65 69 73 76 68 60 51 36 35 38 33 27 28 23 26
13 14 17 19 17 16 19 19 20 21 21 22 24 30 31 32 32 32 32 31 35 40 46 51 58 58 60 64 63 67 66 66 71 74 70 68 70 83 70 67 53 38 39 36 32 28 26 24 25
14 16 19 19 18 17 20 21 22 23 22 22 25 29 31 32 34 34 32 35 38 44 50 55 68 68 69 69 74 76 84 82 81 80 79 74 67 76 72 57 50 37 41 37 32 27 25 23 24
18 17 17 18 18 20 20 21 23 25 24 23 25 27 29 30 33 35 30 35 42 47 49 54 59 70 70 75 85 94 97 96 97 89 90 79 78 76 78 62 54 37 40 36 29 25 23 23 23
18 19 19 20 18 18 21 22 23 25 26 27 26 29 30 30 31 30 31 37 43 45 50 55 61 71 75 80 90 84 84 93 75 82 88 89 84 74 82 66 60 45 40 28 28 28 25 25 25
21 20 19 19 19 18 20 23 25 24 26 29 28 28 29 28 31 32 33 40 43 44 47 51 57 72 81 82 92 89 81 83 75 72 94 89 78 76 72 70 57 48 43 31 30 28 28 28 28
22 22 20 21 19 19 22 25 26 24 26 29 26 26 30 29 29 31 36 39 43 44 47 50 55 75 83 82 80 86 82 81 75 78 93 94 79 73 72 63 59 50 42 33 32 32 31 32 32
25 23 22 23 20 20 23 26 26 26 28 28 27 25 30 29 29 33 37 40 42 48 48 48 55 71 81 87 93 87 83 85 85 94 92 97 88 72 65 66 71 46 39 36 36 36 36 36 36
26 24 25 24 22 21 24 26 26 25 27 27 27 26 28 27 31 36 39 42 45 48 45 46 52 66 82 90 90 91 85 92 91 94 96 97 94 82 69 74 68 44 41 42 40 43 42 41 39
27 25 26 24 22 23 25 27 26 25 27 25 28 26 27 30 35 40 44 48 53 43 42 43 49 61 82 92 91 91 96 90 93 96 97 98 96 84 83 78 64 51 47 46 46 49 47 47 45
28 25 26 28 25 24 26 27 27 27 25 26 29 26 26 32 39 43 49 52 52 39 39 42 50 57 72 92 93 94 93 95 96 97 98 95 96 88 83 71 70 60 50 52 53 54 53 54 49
28 26 27 29 27 25 26 26 27 27 24 25 23 22 27 36 41 46 50 50 41 35 37 46 60 64 67 84 91 92 92 94 97 97 99 99 95 90 81 68 63 57 55 58 59 59 58 55 53
30 27 30 31 31 29 27 27 26 24 23 23 23 25 30 37 42 49 50 51 38 36 38 49 64 63 66 80 87 91 89 94 95 96 97 96 91 90 79 63 64 56 61 65 66 64 59 53 56
33 33 32 34 33 31 29 26 28 21 23 25 27 31 36 37 41 51 51 50 38 39 41 44 62 64 64 75 83 83 84 88 94 97 98 96 94 87 78 67 72 68 68 75 70 63 60 57 61
37 36 34 34 36 34 30 28 25 21 26 29 33 36 40 42 42 49 52 49 37 38 43 46 58 68 67 72 77 75 86 87 96 98 97 95 91 82 73 70 73 71 70 72 66 64 62 64 63
39 38 37 35 36 33 29 27 25 24 29 31 33 36 40 44 46 51 51 50 41 39 44 48 58 70 70 71 76 79 86 93 97 96 93 91 81 69 68 71 73 74 79 77 74 70 72 65 60
36 36 37 40 37 37 34 28 30 29 31 30 33 37 40 43 50 52 47 43 41 39 42 50 62 74 75 74 81 85 88 92 94 92 89 81 74 70 70 71 80 83 77 78 76 75 69 65 65
37 39 42 40 38 39 34 30 28 29 30 30 32 38 41 42 50 52 45 43 41 40 40 54 74 80 79 76 85 87 92 91 93 90 83 77 72 79 83 84 86 81 82 81 77 77 74 76 76
42 42 40 39 40 42 38 35 29 28 32 32 33 35 41 43 50 53 46 45 39 38 43 58 82 83 83 81 87 92 93 92 93 90 85 84 89 87 85 84 82 82 84 83 82 84 83 83 83
45 43 41 41 41 43 40 38 30 28 33 33 31 34 39 42 53 51 44 42 36 38 44 63 83 89 86 93 94 93 97 94 92 91 92 91 85 83 87 85 80 83 83 87 85 85 86 85 84
46 45 43 42 45 43 41 39 33 26 31 31 30 32 37 41 48 47 40 38 35 34 39 56 76 92 96 94 99 96 97 94 95 92 92 90 92 88 88 85 82 82 87 86 82 84 85 84 84
45 44 43 45 46 43 43 37 27 32 35 34 31 30 36 39 45 44 35 34 34 32 34 48 63 75 91 97 96 95 96 94 95 93 92 95 94 90 87 83 83 85 80 77 75 75 74 74 77
44 43 40 43 45 46 45 42 28 29 35 33 29 25 32 38 44 45 32 31 32 31 32 39 51 65 76 90 97 98 96 93 94 91 91 92 91 89 85 83 83 77 74 70 69 68 69 71 75
42 45 45 45 46 49 42 39 29 31 37 34 31 27 28 34 40 43 34 29 29 29 30 34 41 50 64 78 93 96 96 94 93 91 88 90 90 87 80 80 72 69 68 64 66 68 71 70 72
37 41 47 52 53 46 35 39 32 33 38 34 29 28 30 33 36 38 31 28 29 28 26 30 33 40 48 59 73 81 81 82 83 81 77 79 83 76 72 68 65 65 64 63 65 68 68 68 67
27 38 45 52 51 48 40 41 33 34 39 38 29 29 31 34 34 34 31 32 32 32 29 29 31 36 43 46 50 57 63 67 69 71 69 69 67 64 65 63 62 60 60 62 64 64 64 64 61
26 31 35 45 45 55 45 45 37 34 40 40 31 28 30 35 37 36 35 34 35 35 32 27 31 35 37 42 47 49 52 55 56 58 59 62 60 61 61 58 55 55 57 59 60 59 61 65 66
24 31 35 39 47 48 39 44 42 35 40 42 34 27 32 37 38 36 36 33 36 37 35 30 31 36 37 39 44 47 49 51 52 53 52 54 56 57 57 55 54 56 56 59 60 60 63 69 68
29 32 34 32 37 41 41 39 43 36 40 46 39 29 34 37 42 43 39 35 36 37 39 33 33 37 39 41 43 46 49 51 51 52 52 53 56 56 57 56 57 57 58 59 62 64 65 72 75
37 36 34 40 34 41 40 39 46 43 43 45 42 34 39 42 45 44 41 37 38 39 42 42 41 41 41 43 46 48 51 55 57 58 58 60 62 63 59 58 60 65 67 67 69 70 70 71 73

GFSSGP_prec_cthk_087.txt.gz
RH
11 12 15 17 19 18 17 19 17 18 21 22 21 21 28 30 30 41 41 30 22 25 32 35 40 47 59 58 61 68 64 63 62 61 64 69 70 67 66 59 60 46 45 38 28 27 26 27 25
15 16 18 20 16 18 16 21 20 20 23 22 22 24 27 31 45 41 30 26 27 25 32 38 40 47 55 56 67 80 75 69 68 66 70 74 70 70 69 66 70 61 44 35 30 26 28 25 27
14 17 22 23 19 18 19 23 20 23 23 21 23 29 34 33 36 36 29 24 27 28 34 41 45 52 64 67 70 78 83 88 83 72 71 75 75 68 81 75 67 53 43 39 30 24 22 25 29
19 20 20 16 16 20 18 20 21 23 26 24 22 29 39 27 32 32 27 24 26 35 40 43 50 54 59 71 87 78 87 98 98 93 87 72 78 74 75 79 69 61 48 40 27 25 24 25 28
19 21 21 19 20 19 16 20 21 23 26 31 25 26 41 32 27 26 29 24 27 31 39 41 45 49 54 66 72 71 77 89 90 92 98 86 89 89 75 72 69 56 47 40 27 22 24 24 26
20 21 22 21 21 21 17 20 22 24 27 29 29 27 33 35 25 25 21 24 28 31 37 39 42 44 48 60 78 78 78 93 84 88 92 86 90 96 93 78 71 53 46 30 25 23 24 25 25
22 24 23 21 21 20 19 21 24 26 26 28 33 29 40 37 28 23 23 25 28 31 35 36 41 43 46 61 82 84 80 82 93 87 95 85 94 90 85 85 67 54 43 31 27 24 25 27 29
23 23 23 22 23 21 20 21 24 26 29 32 31 29 33 49 27 25 29 33 33 34 36 37 37 44 48 62 75 84 80 93 94 88 92 87 98 91 82 69 71 64 40 31 28 28 28 31 32
26 26 25 24 24 22 22 24 25 26 26 28 35 31 34 27 26 27 31 33 35 35 38 34 33 41 47 64 67 83 85 90 96 98 95 96 97 95 81 71 74 66 41 34 33 32 33 34 35
27 27 25 26 25 23 24 24 25 26 28 32 36 36 33 26 25 29 35 38 43 47 44 35 33 37 46 64 73 85 87 89 96 96 97 91 98 96 88 73 79 66 48 40 38 37 38 40 38
29 28 28 27 26 24 25 25 26 28 29 29 33 34 37 33 27 32 36 44 51 51 40 30 31 35 45 59 73 87 89 92 95 91 94 96 98 97 90 84 72 69 55 44 42 42 44 47 45
30 29 29 27 26 26 27 25 24 27 30 28 28 27 26 27 32 35 39 47 51 51 36 29 33 40 58 57 68 88 90 91 91 93 97 98 99 97 93 86 73 70 63 51 48 49 57 50 49
32 31 29 27 28 28 30 28 25 27 28 24 25 24 24 27 35 38 38 48 49 52 37 33 36 46 64 67 64 86 87 93 92 94 99 96 98 97 94 85 80 74 65 60 61 67 57 56 56
35 30 29 30 30 31 33 31 26 29 26 24 23 24 28 32 40 41 40 45 50 50 38 36 38 46 61 61 65 78 89 92 89 93 93 98 97 96 94 87 81 82 72 68 71 68 59 59 60
38 36 33 32 34 34 35 31 30 31 26 23 26 28 31 36 40 43 47 45 49 50 44 36 39 46 56 62 62 72 84 81 84 88 89 93 97 96 92 88 85 79 73 73 80 69 64 63 61
41 41 37 34 37 36 37 32 32 29 27 25 30 35 35 36 40 44 48 47 48 45 38 39 40 47 56 64 64 69 74 75 81 89 91 92 93 91 89 89 85 84 78 78 76 72 70 66 64
41 41 38 34 40 39 36 33 33 30 32 29 31 35 37 38 40 44 48 46 45 43 37 38 40 50 59 67 67 69 73 76 80 88 95 99 96 91 92 90 84 81 79 78 76 74 74 73 71
44 38 35 35 40 42 39 34 33 32 34 34 35 37 41 40 38 44 48 48 46 41 36 36 42 58 72 73 71 70 74 78 82 89 94 95 93 93 94 89 85 82 83 83 80 80 80 74 70
48 41 40 40 43 44 41 38 34 33 30 30 37 37 42 39 41 43 49 48 45 40 34 38 49 68 78 78 74 74 79 81 88 89 92 92 93 93 92 86 83 88 91 85 82 84 76 70 72
56 47 43 41 40 44 40 40 35 33 32 29 32 41 43 42 39 44 49 44 41 34 34 39 53 76 82 82 76 77 84 88 90 92 92 89 85 91 87 89 86 90 86 83 82 80 79 81 82
54 55 53 47 45 46 42 40 37 32 33 33 29 33 37 41 40 43 47 42 38 33 32 38 54 72 81 84 87 91 93 95 95 92 88 84 85 87 85 87 87 87 86 87 88 86 86 87 86
58 57 53 51 49 49 45 41 36 34 29 29 30 35 34 34 41 42 45 44 34 32 32 37 49 62 76 93 90 95 95 95 94 93 88 87 85 85 88 86 88 87 89 90 90 92 92 91 90
53 55 55 54 48 49 44 43 33 35 33 32 34 38 39 34 39 41 45 42 34 34 29 33 42 52 63 73 91 93 92 94 91 91 88 91 90 88 86 90 90 89 90 91 93 91 87 88 83
43 57 54 52 49 51 45 46 41 35 34 35 36 36 37 34 37 41 45 41 33 32 26 29 36 45 52 64 86 96 98 96 92 90 89 89 88 89 88 88 89 86 84 91 84 77 72 72 72
46 48 58 60 58 53 44 41 43 34 36 37 37 36 32 32 36 40 42 38 31 31 26 27 30 36 44 56 73 92 97 98 94 91 90 88 87 90 89 88 83 81 82 82 74 69 72 70 70
50 47 49 54 54 52 46 46 43 31 34 35 36 37 36 33 34 37 40 38 32 32 28 30 31 32 40 47 56 66 74 78 81 84 81 77 82 84 85 83 82 73 76 74 69 68 70 70 68
31 43 34 45 54 61 56 50 47 33 35 38 39 38 38 32 33 38 41 38 34 32 29 29 33 34 37 43 47 53 56 60 62 65 67 67 71 73 73 75 77 75 71 68 67 67 65 66 63
27 23 32 34 49 56 46 41 37 41 36 40 39 43 41 29 31 39 40 41 38 36 31 30 32 34 36 41 45 47 51 54 55 59 58 58 59 62 65 65 66 78 66 63 68 65 64 63 60
34 36 36 40 40 41 48 38 44 46 40 46 48 43 41 30 34 38 41 42 39 39 34 32 31 31 37 38 42 46 48 52 55 54 54 57 57 57 58 60 60 65 59 62 68 64 62 62 65
38 37 29 36 44 45 47 43 47 45 40 46 45 47 39 34 34 39 45 46 43 41 39 33 32 30 35 35 38 44 47 51 57 60 60 60 60 63 65 67 60 61 60 61 61 61 64 66 67

GFSSGP_prec_cthk_090.txt.gz
RH
9 10 12 18 21 19 19 20 18 18 19 19 20 20 22 28 26 39 43 37 32 28 22 22 27 33 42 53 57 60 61 61 59 60 59 61 63 64 65 57 47 37 33 31 30 29 32 31 25
11 15 16 19 22 20 19 20 21 21 20 20 21 22 24 28 39 46 39 25 17 19 21 23 29 35 41 48 60 62 64 68 67 67 64 65 65 66 65 64 66 58 39 38 32 29 27 21 23
13 17 20 24 23 20 20 21 23 21 21 20 21 24 28 38 40 41 29 17 18 18 21 25 32 38 43 50 59 63 67 73 81 82 79 71 70 69 67 67 70 63 49 38 32 31 25 22 26
15 19 20 20 19 19 22 20 22 19 22 23 23 22 30 31 38 31 21 19 20 25 23 25 33 38 45 53 55 61 66 76 92 99 96 91 79 74 71 72 75 70 56 54 41 35 26 32 30
18 20 22 22 21 20 24 20 19 20 22 26 27 23 27 41 38 28 19 18 20 24 24 27 31 37 40 45 49 57 68 82 70 83 90 97 96 86 82 77 79 71 58 48 33 30 31 27 29
20 19 21 22 23 24 23 22 19 20 22 25 29 29 27 37 35 28 21 17 19 22 24 27 29 32 36 41 46 52 64 75 76 73 78 98 95 93 98 87 74 76 63 54 37 30 30 27 30
20 22 22 22 24 24 25 24 18 21 24 25 28 30 34 38 38 29 21 18 21 24 27 27 31 31 33 36 42 49 69 75 86 76 77 87 98 97 89 98 84 65 57 53 42 36 29 24 29
22 22 22 21 23 25 26 23 19 22 24 30 32 33 35 45 41 31 19 18 21 23 26 30 34 36 36 34 41 48 66 71 79 85 89 87 95 96 96 95 91 68 62 41 31 27 26 25 29
24 24 23 22 24 27 28 23 21 24 24 26 28 32 37 36 31 28 23 23 24 25 29 38 44 41 39 37 41 50 67 74 85 87 94 95 93 95 98 93 95 73 53 46 34 28 27 29 32
26 26 24 25 26 28 25 23 23 25 26 26 28 31 33 35 34 29 26 25 29 37 42 44 42 35 38 42 43 55 74 78 82 89 94 96 96 97 99 94 90 68 52 36 31 30 30 33 34
30 29 26 27 28 29 25 23 24 23 25 27 29 30 34 38 34 29 26 34 38 42 46 45 35 29 34 39 49 60 80 86 90 89 94 98 91 96 97 87 85 68 54 40 36 34 34 36 41
34 31 29 29 30 29 26 24 25 25 25 27 28 29 29 27 29 30 30 36 40 39 46 45 33 29 33 41 57 61 81 92 92 97 92 97 90 97 98 90 88 72 57 42 39 39 38 41 47
38 34 33 31 30 29 27 26 26 27 27 28 27 26 25 25 23 24 30 37 42 41 45 41 33 30 34 43 58 59 77 92 94 96 95 94 94 98 96 93 92 68 59 50 47 48 46 43 50
40 38 34 32 31 29 30 28 30 28 32 28 25 24 23 24 26 30 33 38 43 45 43 40 39 32 35 43 57 60 67 88 93 95 94 96 96 97 95 95 87 76 65 62 57 60 55 51 53
43 42 39 34 31 31 33 33 30 31 33 30 28 25 26 27 33 33 37 38 42 46 41 38 37 36 37 42 50 61 62 74 88 89 91 93 98 98 97 94 83 73 69 67 74 73 68 63 62
46 46 42 36 34 32 37 34 31 34 34 30 28 26 28 35 37 38 36 40 43 46 40 36 33 36 38 41 49 59 60 70 82 83 92 94 94 94 98 93 82 80 72 72 79 76 72 70 68
49 45 45 43 38 35 37 38 34 34 34 27 27 28 35 38 39 38 37 41 44 46 39 35 33 36 38 45 52 60 63 67 74 77 84 90 92 96 98 94 87 83 82 79 83 79 77 74 72
47 48 48 46 42 36 36 39 37 35 37 33 32 34 36 42 46 43 39 41 46 46 40 35 32 36 43 52 61 65 64 66 72 75 80 88 95 98 96 94 88 91 88 79 81 77 79 76 72
50 51 50 45 45 39 40 45 45 36 37 34 31 32 35 40 48 50 40 42 47 43 39 34 32 40 50 66 70 69 68 69 74 79 84 91 94 95 93 95 94 92 90 82 82 81 84 79 80
45 46 47 47 49 43 46 45 44 35 35 36 35 31 34 38 47 51 39 43 48 41 35 30 33 43 56 72 72 72 69 75 79 83 89 92 94 92 93 96 95 93 87 87 85 84 83 83 76
44 48 50 59 58 50 45 45 45 34 35 37 37 34 31 38 46 48 41 42 47 41 33 29 34 46 58 77 77 71 69 79 86 94 93 94 95 92 93 92 93 92 91 90 81 81 83 77 75
40 47 59 67 71 66 52 51 45 37 37 39 37 34 32 33 42 45 43 42 46 41 30 30 33 42 53 64 76 82 80 82 89 92 95 95 94 96 95 95 94 90 91 88 82 84 83 83 85
43 51 63 72 74 66 54 53 43 34 34 37 37 31 28 33 36 44 43 42 46 41 28 27 32 40 50 58 62 80 86 89 91 92 93 87 90 95 95 93 86 85 89 88 87 88 89 86 91
51 53 57 63 68 74 59 53 45 36 37 41 36 32 34 35 39 41 42 44 44 41 30 26 29 36 42 53 63 82 87 91 94 91 89 86 85 90 85 87 85 85 88 89 90 92 89 95 92
47 55 63 75 78 67 52 50 45 35 36 41 40 38 36 36 38 37 41 44 42 39 30 29 28 32 38 48 59 84 91 93 94 90 88 83 83 82 81 80 85 93 90 93 87 87 91 91 80
50 49 56 67 80 83 68 57 40 39 38 40 41 37 36 37 38 34 38 43 41 39 29 29 29 33 36 46 53 63 79 86 88 87 87 84 85 82 80 81 80 84 91 87 80 78 80 75 68
52 55 46 56 56 68 67 65 50 43 35 35 37 39 39 40 42 39 39 42 42 39 30 29 30 32 37 42 49 53 54 59 63 65 70 71 77 77 78 75 74 81 78 73 72 74 70 66 64
42 51 61 61 63 58 51 53 50 44 43 40 42 40 42 40 40 39 36 41 43 40 33 29 30 31 34 39 44 49 50 52 54 57 57 59 61 65 68 71 71 72 78 71 69 68 64 62 61
38 39 44 43 47 52 53 53 53 51 50 47 48 52 45 40 42 41 35 40 43 42 36 31 29 30 32 35 41 45 48 49 52 51 54 54 54 55 60 65 66 71 75 80 74 67 62 61 63
44 44 36 43 49 48 41 44 50 52 60 54 52 52 43 39 37 45 39 43 43 44 41 35 32 29 30 32 37 42 48 52 54 56 57 58 57 55 56 63 69 70 70 73 79 79 70 65 69

GFSSGP_prec_cthk_093.txt.gz
RH
8 8 12 16 21 20 23 21 21 20 20 19 17 21 21 21 30 37 37 35 34 33 26 20 19 21 25 35 50 50 59 55 61 63 62 60 59 60 59 51 44 29 25 24 28 29 29 28 27
10 13 15 18 22 24 25 20 25 24 22 19 19 21 21 24 32 35 37 30 29 18 15 17 19 22 27 34 43 53 60 63 66 64 66 68 68 64 63 57 51 45 32 30 30 29 27 24 26
13 16 18 21 23 23 23 21 23 22 19 20 20 19 23 33 34 33 32 26 17 16 16 18 20 23 29 37 43 50 57 64 71 75 73 82 83 71 65 61 59 61 47 37 35 28 26 24 29
16 18 18 22 22 18 20 20 20 19 19 21 19 20 24 31 29 33 33 27 18 15 17 19 20 23 29 35 42 50 56 63 65 70 81 91 87 96 73 69 66 62 59 47 34 28 27 27 29
19 20 22 23 21 20 22 27 25 20 20 22 22 22 26 31 32 34 34 28 21 15 16 19 22 25 29 33 36 42 53 64 65 73 81 84 85 97 95 83 74 69 60 53 35 29 34 43 38
20 20 23 23 21 21 23 24 25 20 19 21 24 24 28 30 29 31 32 28 23 16 18 22 24 26 28 31 34 37 43 51 56 64 77 87 84 90 96 98 81 72 59 53 43 34 39 40 41
22 24 23 22 21 21 23 29 26 22 18 21 23 26 30 33 32 32 31 28 22 18 19 21 24 26 29 33 34 36 38 44 51 67 75 79 76 84 98 95 93 75 74 53 44 42 38 50 47
24 25 25 22 23 22 25 28 27 25 20 22 26 29 35 34 33 35 32 26 21 19 18 20 25 32 37 38 36 36 38 43 52 70 70 76 73 91 98 94 93 77 84 62 41 36 44 40 39
27 29 26 22 23 22 28 33 29 23 22 23 26 26 27 29 34 36 30 24 19 18 20 27 33 41 43 35 33 36 39 44 61 72 76 85 79 89 99 95 92 84 71 55 59 46 41 48 50
28 29 25 23 24 26 30 32 26 24 23 23 26 27 27 29 32 33 29 26 24 20 28 33 36 42 44 33 31 35 39 47 70 80 84 89 95 97 99 97 98 92 78 50 40 44 44 42 40
31 28 26 25 25 28 30 30 28 25 23 24 26 28 29 30 32 31 29 29 22 25 27 32 41 41 41 36 36 38 46 54 77 87 89 93 96 95 97 98 96 90 72 44 39 39 40 34 42
35 31 30 28 29 30 29 30 28 25 24 24 26 29 28 31 30 29 28 28 29 28 29 33 41 40 39 37 39 42 54 60 87 92 90 95 94 92 99 99 92 82 60 42 40 40 38 36 45
37 36 35 33 32 31 29 30 28 27 25 26 28 29 28 29 29 27 26 30 33 31 32 35 40 39 38 39 41 46 54 63 87 94 97 94 93 93 96 93 89 75 54 42 40 35 34 46 49
39 38 36 34 33 32 33 30 30 25 27 28 29 30 28 28 25 24 25 31 36 33 34 40 39 34 34 40 42 46 63 62 80 93 95 94 94 95 94 86 89 73 53 46 46 44 41 49 50
37 36 34 32 33 37 36 32 31 29 30 30 30 30 28 27 25 25 28 32 35 33 35 40 37 32 31 36 43 47 53 63 68 88 96 97 95 96 94 89 89 75 59 56 53 45 49 52 51
41 39 35 32 36 38 42 31 34 35 33 33 31 31 29 28 26 29 33 37 36 32 35 40 37 32 31 35 41 45 51 62 63 81 91 94 96 97 95 91 92 72 63 62 60 56 54 58 54
45 42 38 36 40 43 47 34 38 37 35 34 33 30 28 27 28 33 38 42 36 32 38 40 36 32 31 35 39 47 53 61 68 71 87 87 97 95 95 92 93 78 75 68 74 69 62 60 61
44 44 41 40 43 51 51 41 40 43 39 37 34 32 31 29 34 36 42 43 33 33 40 39 36 30 31 38 45 57 61 65 67 70 82 85 96 91 96 96 93 83 80 78 75 73 70 68 70
35 38 39 38 43 47 47 45 42 40 42 40 36 34 33 30 34 36 39 41 33 36 40 38 34 30 33 40 58 64 66 67 67 68 74 80 85 91 95 96 91 85 79 75 77 77 76 78 76
25 30 32 37 44 51 47 44 45 44 46 43 36 36 33 30 34 37 38 39 36 36 39 36 34 30 33 47 65 68 70 69 66 67 73 80 85 94 98 96 90 91 86 83 82 79 81 81 78
21 26 33 39 43 49 56 48 48 46 43 39 35 35 37 33 35 35 38 41 39 37 37 35 32 30 34 45 64 71 70 70 68 71 75 83 90 95 96 96 96 95 90 85 79 80 84 81 79
29 29 30 41 54 58 57 68 56 51 45 38 38 39 38 36 37 33 40 41 39 39 38 32 31 28 35 44 55 65 77 70 74 80 85 89 94 94 98 96 93 92 95 85 83 85 84 82 81
39 43 36 50 56 58 62 80 56 53 46 38 36 37 36 36 36 35 39 41 39 41 36 30 27 27 34 40 49 57 74 82 82 87 92 94 95 97 97 95 94 93 92 88 86 89 86 85 81
40 49 55 55 59 75 62 76 63 50 45 38 38 39 37 35 34 34 38 39 39 42 35 28 26 26 33 38 46 64 77 83 86 90 93 93 94 96 95 95 96 95 93 92 90 87 86 84 83
45 51 67 75 76 68 56 70 63 49 46 45 44 41 39 35 33 34 36 35 37 39 33 25 27 28 33 37 46 66 79 84 90 92 92 91 91 95 95 96 95 93 91 91 91 88 86 89 87
49 58 70 74 80 80 68 78 61 59 55 50 46 42 40 37 36 35 39 33 36 36 32 24 27 28 35 38 44 53 66 84 92 93 89 87 87 88 88 92 92 88 88 90 90 89 92 94 92
47 55 55 63 60 73 66 63 56 59 57 49 46 44 41 39 40 38 43 39 35 35 33 24 27 29 32 38 42 48 52 61 74 79 82 84 84 86 83 82 90 85 85 84 87 89 89 87 87
48 50 62 67 74 68 54 54 69 63 64 58 49 46 44 42 42 41 41 40 34 37 37 28 28 27 30 35 42 45 50 54 56 60 63 66 74 79 80 74 73 74 75 81 83 87 88 84 82
45 51 64 63 65 68 65 59 61 64 65 64 59 49 48 45 43 46 41 41 35 38 40 34 29 29 31 33 39 45 47 50 54 55 57 58 56 59 62 61 59 60 64 71 76 80 78 76 77
41 44 52 55 54 58 57 51 69 61 73 72 68 62 52 45 45 46 46 46 41 40 41 39 31 30 29 32 35 42 46 49 51 53 56 57 54 53 54 55 55 58 62 71 75 80 76 72 73

GFSSGP_prec_cthk_096.txt.gz
RH
9 10 12 13 17 21 23 22 20 19 19 18 18 19 20 22 22 24 26 30 30 27 25 25 23 23 23 30 42 46 47 47 57 58 56 60 60 59 57 52 45 36 33 27 28 34 37 35 33
10 11 14 16 20 24 24 22 20 20 18 19 19 20 23 31 26 25 29 25 26 22 18 16 16 18 23 30 39 49 54 50 55 57 59 56 55 54 55 55 50 40 32 29 27 33 36 36 35
12 15 17 19 22 23 23 20 20 20 19 19 20 20 21 25 25 25 26 27 25 23 19 14 15 18 21 27 38 43 50 57 55 57 62 65 65 64 61 60 53 46 37 34 36 37 33 36 33
16 18 19 21 21 19 20 23 23 22 20 20 20 20 24 26 24 26 25 25 27 25 21 16 16 18 22 25 32 40 47 48 55 59 67 78 80 80 78 76 72 57 46 45 41 34 32 32 33
18 19 21 22 20 20 20 22 24 25 21 21 21 21 25 28 28 30 29 29 27 25 22 16 16 19 24 27 30 36 41 46 52 57 70 72 79 85 85 89 91 86 57 55 44 36 32 29 30
19 20 23 24 19 19 20 22 25 24 22 21 22 23 26 27 28 30 29 29 28 28 23 19 17 20 23 27 30 34 39 39 47 53 62 72 78 85 77 84 94 92 73 53 46 41 33 31 32
21 23 22 20 20 18 21 24 23 24 22 22 22 24 29 30 30 30 29 29 29 27 20 20 18 19 24 30 35 40 43 41 40 45 51 55 63 70 72 78 97 94 75 57 44 45 40 38 42
22 23 22 21 21 19 22 25 24 23 22 22 22 25 32 29 31 31 31 30 28 24 21 16 17 23 27 33 39 41 42 46 46 46 49 51 56 64 65 77 86 97 76 59 46 50 47 45 45
26 28 25 24 23 19 23 26 26 25 23 24 23 23 24 29 30 30 32 32 29 26 25 19 21 27 31 35 40 38 36 43 44 46 48 55 62 65 68 83 94 93 81 58 48 55 60 54 52
30 29 25 23 23 21 23 26 26 26 25 22 23 24 24 27 28 28 32 32 29 29 25 23 26 28 31 36 36 33 36 40 42 47 55 70 79 78 86 96 97 95 90 68 58 61 56 57 51
30 27 27 26 25 25 25 27 28 27 27 23 23 24 25 28 29 29 32 31 30 28 25 29 31 30 32 36 37 31 37 41 48 56 63 85 86 89 93 96 97 96 92 67 60 60 61 56 51
33 30 29 29 28 28 26 27 29 29 26 26 26 25 25 29 31 31 31 32 29 28 26 30 33 33 35 34 38 33 38 44 55 59 80 92 92 94 97 99 99 95 90 64 63 64 60 65 59
36 34 34 32 33 31 30 28 29 30 26 28 28 27 26 28 30 31 29 30 30 27 28 32 33 34 36 34 34 36 37 46 60 64 90 95 95 93 95 97 99 90 86 57 55 53 54 59 54
35 35 35 36 35 34 33 30 31 28 29 29 29 28 29 28 29 30 30 30 31 30 31 34 35 37 38 32 29 33 42 47 59 68 86 95 95 93 90 98 93 89 79 57 50 50 48 53 50
34 34 33 34 35 34 35 31 29 31 32 32 30 28 31 31 32 30 29 28 30 33 36 35 35 39 39 33 29 33 43 50 56 69 80 96 96 96 96 98 95 91 68 52 49 45 54 56 50
36 36 36 33 36 36 37 27 29 32 33 33 33 33 31 32 32 31 28 29 33 38 40 35 36 40 38 33 28 33 42 46 54 67 77 91 95 97 98 95 94 79 60 54 51 48 53 57 53
40 38 36 37 41 42 38 31 30 33 35 35 36 34 31 32 32 31 28 28 33 38 43 33 36 37 35 29 28 34 42 48 57 64 70 81 91 97 97 93 92 83 71 55 49 51 56 61 58
37 39 37 39 41 45 39 31 33 34 35 35 38 34 31 28 29 31 29 29 38 40 44 35 37 36 31 27 31 38 48 58 62 67 72 73 89 95 98 94 91 82 67 58 56 62 64 62 63
34 35 34 33 35 39 39 28 30 32 35 39 39 37 34 32 30 31 29 33 40 42 37 33 36 34 28 27 32 45 60 67 69 71 77 80 86 88 96 95 94 82 75 66 61 63 64 66 68
28 30 28 27 26 30 37 30 30 31 34 40 41 37 37 37 34 35 34 35 38 41 41 39 35 32 26 25 36 50 61 62 68 71 72 73 92 86 88 92 94 86 81 72 67 65 72 71 73
21 21 20 21 24 30 37 28 27 28 34 40 41 40 38 38 39 40 37 35 38 39 41 41 34 31 25 24 36 50 61 67 68 69 69 71 78 84 88 95 93 88 86 83 77 78 75 78 79
25 26 26 26 25 29 39 33 27 28 28 35 39 40 41 39 38 40 38 36 40 39 43 42 37 29 23 23 35 46 54 62 67 65 65 70 76 83 88 98 98 93 91 90 87 81 79 79 76
29 36 35 35 37 41 48 57 25 31 34 36 40 39 42 42 41 41 38 36 42 44 44 43 38 28 21 22 32 42 53 66 70 69 71 78 85 89 89 97 97 92 92 91 89 84 83 81 84
39 41 46 49 52 60 52 61 25 38 38 41 42 47 45 44 44 42 40 39 43 47 45 44 37 27 21 22 31 45 58 76 79 80 82 87 89 89 93 97 98 95 90 93 94 87 85 87 86
48 52 62 66 68 63 48 58 36 39 50 51 45 45 44 45 42 44 39 41 44 45 45 43 33 26 22 24 33 51 60 78 83 87 90 88 92 92 93 94 96 96 97 91 95 91 89 87 87
44 52 59 66 69 56 59 62 53 53 59 64 53 49 48 47 43 44 38 38 39 43 44 41 31 25 23 26 33 48 59 71 90 90 92 91 92 94 94 94 95 95 95 96 93 92 90 90 88
38 51 46 55 61 67 61 53 46 51 67 72 64 58 52 43 41 42 41 42 39 43 44 39 31 25 24 26 33 43 51 60 73 91 91 91 91 92 95 97 97 96 95 95 93 91 91 90 89
37 40 60 64 66 71 59 51 47 56 82 81 77 67 55 49 48 48 44 44 46 45 43 41 33 25 24 27 32 38 46 51 57 64 72 80 85 88 90 93 97 96 95 94 92 92 92 90 91
44 51 62 62 68 72 68 53 60 75 90 89 82 69 63 60 63 51 47 46 48 44 44 42 36 27 27 27 31 37 43 48 51 55 60 63 67 78 83 84 83 93 90 86 86 88 88 88 93
47 49 56 70 70 66 65 58 61 75 85 81 82 75 70 65 60 67 54 48 48 43 45 44 41 32 28 27 30 36 43 47 48 52 56 58 56 57 65 66 64 68 69 72 75 78 82 86 86

GFSSGP_prec_cthk_099.txt.gz
RH
10 10 11 13 17 20 22 21 19 19 19 18 19 19 20 22 23 24 22 27 27 24 23 22 21 23 27 29 35 40 41 43 47 49 48 50 52 52 51 49 48 46 40 39 36 34 36 44 52
10 11 13 16 20 22 20 21 21 21 20 20 19 20 21 25 26 23 24 26 27 21 21 24 22 19 22 28 32 41 48 51 53 51 56 58 56 57 60 52 47 44 38 35 35 33 38 45 45
11 12 15 18 23 22 18 20 21 21 20 20 19 18 21 23 24 23 24 25 23 23 25 25 22 16 18 23 31 38 45 51 54 53 55 57 53 79 57 60 57 45 43 34 34 37 39 44 38
13 16 17 20 22 19 16 20 22 21 20 19 19 21 22 23 23 24 25 25 24 26 27 27 24 16 16 21 26 33 40 47 51 55 59 57 58 60 84 74 72 68 57 48 36 44 45 41 39
15 17 19 21 20 17 16 18 23 25 22 19 21 22 24 23 26 26 25 26 26 26 27 26 22 17 16 20 25 28 34 40 45 50 58 63 72 76 74 77 80 79 71 61 51 49 52 42 37
19 19 23 23 19 15 17 20 25 23 21 19 22 25 24 25 27 26 27 27 28 26 27 23 19 18 19 20 25 29 32 36 41 46 54 61 67 74 81 82 84 86 86 77 67 58 50 38 37
19 21 23 21 19 17 18 22 25 23 21 20 21 24 24 24 27 29 29 29 28 26 26 25 22 18 18 22 27 33 35 39 42 46 50 51 59 61 74 77 84 81 82 86 80 57 52 44 34
20 23 22 22 20 20 16 22 24 21 21 20 20 25 25 23 28 31 31 29 28 26 26 26 25 20 20 23 30 37 42 44 41 49 54 50 51 56 65 64 68 77 77 90 80 59 54 52 38
25 26 25 24 21 21 18 20 22 23 23 21 22 22 22 23 28 31 32 31 30 27 27 27 26 22 24 26 30 37 43 44 41 46 50 52 52 54 58 62 71 77 75 93 76 66 55 53 46
28 30 26 23 22 21 19 20 22 25 23 22 23 23 23 24 26 28 29 30 30 30 27 28 26 26 26 26 29 38 41 40 39 42 42 45 51 54 63 67 76 77 80 85 72 64 53 56 48
30 27 26 26 25 23 22 20 23 24 26 24 25 24 24 26 28 29 30 31 31 33 29 28 29 29 30 28 30 33 38 39 38 39 45 50 57 61 74 80 86 92 95 89 75 72 58 60 58
32 29 30 30 29 28 25 22 21 25 25 25 27 27 25 26 27 29 31 33 32 32 32 28 31 33 34 30 31 33 36 38 40 41 46 57 62 85 89 89 96 98 95 86 71 76 67 68 67
32 31 31 31 32 30 29 26 25 24 24 26 27 29 28 28 28 27 29 33 34 33 32 29 32 34 35 32 33 31 29 32 38 44 54 61 72 96 96 95 98 96 95 84 72 76 72 64 57
33 31 31 33 34 34 32 29 29 24 27 28 29 29 30 29 30 29 30 32 33 33 34 31 33 37 33 33 36 32 28 32 38 45 54 63 81 97 97 95 98 96 97 87 77 84 70 67 60
33 33 32 32 33 33 36 29 27 28 30 30 31 32 31 31 30 29 29 32 34 33 33 34 35 39 33 34 37 31 28 31 38 44 54 67 77 94 97 96 97 99 97 87 78 79 75 69 63
35 35 37 33 34 34 38 26 29 32 34 32 31 30 29 31 31 31 31 32 34 36 35 39 40 42 35 38 35 29 26 28 37 44 53 67 75 93 97 97 98 99 96 84 71 73 74 66 62
37 39 37 36 34 37 36 30 29 31 34 31 31 31 32 32 33 31 32 33 34 35 35 39 42 43 39 40 34 30 27 33 38 47 53 62 75 88 98 98 99 97 97 78 68 72 70 66 63
38 39 38 38 37 38 35 31 31 30 31 29 29 30 32 33 34 33 32 31 34 35 35 39 41 39 39 40 32 28 29 34 44 55 62 61 73 82 97 99 97 98 90 77 61 69 66 63 64
35 36 37 35 35 34 31 28 27 30 30 29 30 33 34 34 35 35 33 31 34 35 35 40 43 42 39 38 29 24 27 35 50 62 71 70 72 82 96 98 97 95 88 70 62 67 64 66 65
32 34 33 32 32 31 27 21 20 22 26 28 28 31 35 35 35 35 35 33 35 35 37 40 44 44 40 38 28 22 25 41 51 63 70 75 77 79 93 95 96 92 77 70 68 66 64 65 66
26 29 25 26 25 22 22 18 21 21 23 23 25 28 32 36 34 34 35 36 36 37 39 41 44 46 43 37 27 22 30 42 50 64 70 73 75 91 96 96 96 93 80 76 63 62 65 70 74
23 23 23 24 25 26 27 23 17 20 21 23 23 23 25 34 34 35 38 38 38 40 43 44 46 49 46 37 24 21 26 37 47 56 64 74 80 78 86 96 94 91 83 79 72 71 75 74 74
27 32 35 34 33 31 30 46 24 26 25 23 22 25 27 29 35 37 41 40 42 43 45 45 47 51 47 36 24 22 28 37 49 59 65 65 67 75 85 81 91 93 90 85 83 79 74 74 75
37 37 39 40 41 51 37 51 24 25 29 27 28 31 36 32 38 41 44 44 46 48 48 47 48 51 47 32 23 24 31 42 56 73 67 67 70 76 79 86 93 93 97 90 88 86 84 81 85
35 39 52 59 67 50 45 53 30 32 30 35 39 40 42 39 39 46 44 45 46 45 50 50 49 51 42 29 23 26 34 48 59 75 75 74 77 81 88 92 96 93 97 95 94 93 94 92 89
33 42 54 59 59 43 49 54 37 35 39 41 41 44 57 51 47 48 44 47 46 44 50 50 50 46 36 26 24 30 38 51 60 81 82 82 83 88 93 96 98 99 99 97 96 95 94 95 91
29 43 50 60 55 62 57 47 36 41 46 47 49 57 68 59 55 53 48 48 46 42 45 47 47 43 34 26 24 31 38 45 54 74 87 91 91 90 91 95 97 96 98 97 97 94 97 93 93
33 34 55 63 66 67 54 50 50 51 57 55 57 71 76 65 61 55 54 52 47 42 49 51 51 42 32 26 25 31 37 42 48 57 76 86 87 88 89 91 93 93 94 95 94 96 94 94 94
43 43 48 50 61 68 63 57 59 58 57 65 73 93 86 74 66 68 66 58 57 53 54 51 48 41 31 27 26 30 36 40 44 50 57 63 72 82 90 94 95 93 94 94 95 95 95 93 92
43 47 56 63 61 69 73 61 61 60 59 68 82 92 88 80 72 65 64 62 57 65 60 56 48 44 34 29 28 29 35 39 42 46 52 55 62 66 73 81 84 87 95 95 94 95 95 92 91

GFSSGP_prec_cthk_102.txt.gz
RH
11 12 11 12 16 19 20 17 17 19 18 18 19 21 21 21 22 23 23 24 26 24 22 22 23 23 24 26 30 33 35 38 42 45 44 46 53 50 53 49 51 49 53 48 43 42 41 43 48
11 12 12 15 19 21 17 17 19 19 19 19 20 21 22 22 23 22 24 23 23 22 22 23 23 25 24 24 26 32 37 40 43 45 47 50 50 58 55 55 59 53 43 45 39 38 35 36 51
12 13 14 17 22 21 15 16 18 19 19 19 19 20 21 22 22 20 21 23 22 22 23 23 24 26 25 22 26 31 38 41 44 51 57 53 55 57 59 66 68 66 56 45 45 43 43 42 49
13 15 16 20 21 19 14 15 18 19 20 19 20 20 21 22 23 21 22 22 24 25 24 24 25 21 21 21 22 27 32 40 46 47 48 58 57 60 60 68 67 80 74 64 51 45 45 43 45
16 17 19 20 20 18 14 15 16 19 20 19 19 19 22 23 23 22 22 24 25 26 26 24 22 19 18 22 24 26 28 32 36 41 46 51 53 66 64 69 88 75 82 76 69 58 50 50 45
20 20 24 21 17 16 13 12 16 18 19 19 19 21 22 22 22 23 24 25 26 26 25 24 22 23 20 20 24 27 28 31 36 37 41 48 55 61 67 69 72 77 78 79 77 68 56 61 49
23 24 25 21 20 17 14 13 18 20 20 19 19 22 22 22 23 26 27 26 28 29 27 25 24 24 23 19 22 27 30 33 38 43 47 50 55 57 62 65 64 69 77 76 77 80 79 69 54
23 25 25 23 21 19 14 13 17 20 20 20 21 23 22 21 23 27 29 29 29 30 29 27 27 27 23 23 26 28 32 37 41 45 48 46 51 56 57 59 64 71 75 74 78 87 83 70 54
26 26 27 23 22 19 18 16 17 21 21 22 21 22 23 24 24 27 29 29 30 30 30 30 29 28 25 24 28 32 33 38 44 44 45 45 48 50 49 54 60 63 63 71 79 86 86 77 52
30 30 24 21 22 22 20 18 17 19 20 22 21 22 22 23 27 26 27 29 28 30 31 32 31 28 27 27 29 34 35 38 44 46 46 45 48 46 50 58 62 60 69 78 86 80 87 72 53
32 29 26 25 26 25 23 22 19 19 21 21 21 22 23 24 26 28 29 29 28 30 32 32 31 30 30 32 32 32 35 36 40 44 46 46 50 51 53 60 63 68 77 88 92 86 84 69 53
35 31 29 29 30 28 27 25 23 20 20 22 24 25 24 25 27 27 28 29 29 31 33 34 32 31 32 36 36 34 34 33 35 39 44 46 42 51 58 64 71 86 86 94 96 89 85 68 51
35 34 32 32 33 31 31 28 25 24 23 21 26 27 27 26 28 28 27 29 31 32 33 35 33 33 33 38 39 36 33 34 32 31 39 45 51 52 63 77 90 92 93 96 97 94 90 69 58
33 32 31 31 32 32 31 28 29 26 27 25 25 27 30 30 29 30 30 29 30 32 34 37 35 33 35 39 40 36 36 36 32 30 35 44 50 57 71 84 95 96 97 98 96 94 87 74 65
35 34 34 34 36 37 36 31 30 30 31 30 30 29 31 31 30 30 31 31 31 30 35 38 36 37 39 42 42 36 39 35 31 28 35 46 52 58 75 89 97 95 99 96 93 89 88 69 78
39 39 39 35 34 35 41 29 30 31 33 32 34 32 31 31 31 30 32 32 32 32 35 38 39 38 43 43 42 38 39 35 30 29 34 44 50 59 73 89 98 96 94 94 91 89 92 85 73
41 44 41 37 36 37 39 31 33 34 34 33 32 32 32 32 32 32 33 32 33 34 34 36 38 39 42 41 41 39 40 32 28 30 36 40 50 58 70 87 99 99 98 96 93 94 95 87 73
41 44 40 37 37 40 40 33 35 34 31 31 31 30 31 31 32 33 32 32 32 34 34 36 38 38 41 45 42 39 39 31 28 32 37 46 59 67 70 80 95 99 99 98 95 95 97 90 73
34 37 38 35 36 38 37 32 33 32 30 29 28 27 29 30 31 32 33 33 33 34 34 36 37 38 42 45 43 40 37 31 29 33 41 53 66 70 83 77 95 98 97 98 96 96 95 89 76
34 37 38 35 34 35 34 27 25 23 20 20 20 22 24 25 29 32 32 31 32 36 35 37 37 38 40 46 45 42 36 30 28 36 44 56 67 74 79 81 93 97 98 95 93 94 94 80 76
30 34 32 32 28 26 26 21 19 20 19 18 18 19 20 22 25 28 29 31 32 34 36 38 37 39 42 46 47 45 36 26 26 34 44 52 68 78 80 85 93 94 93 92 92 92 90 80 78
28 25 26 26 25 27 29 29 21 19 17 18 18 18 20 23 25 26 28 29 32 36 39 39 42 41 44 46 48 45 33 21 23 34 43 54 69 83 86 90 98 99 96 95 91 82 84 79 73
27 25 27 31 33 33 38 37 30 23 19 19 21 23 25 29 29 25 25 28 31 35 41 41 45 47 47 47 50 46 31 20 25 36 50 65 68 74 88 88 93 96 95 91 79 77 78 82 73
28 34 39 41 40 46 37 36 31 27 25 26 27 30 34 34 31 31 27 27 30 34 42 46 46 48 51 52 52 45 26 21 30 41 55 70 69 74 78 95 84 92 97 90 79 83 80 75 74
32 38 48 58 61 46 38 41 24 29 30 35 37 35 37 39 38 38 33 29 33 36 45 49 48 48 52 55 52 40 24 24 32 45 56 73 72 66 66 72 88 87 85 90 85 84 85 84 81
32 36 45 52 53 44 46 49 36 32 38 37 38 43 44 39 39 44 42 35 34 42 48 50 50 51 52 56 49 32 23 28 35 45 60 78 75 72 75 81 84 91 96 91 95 89 88 91 93
26 35 37 44 43 51 44 38 32 36 36 37 41 41 43 46 45 45 47 41 41 50 51 49 53 52 53 53 45 27 25 31 39 45 59 83 82 79 82 86 89 95 93 96 98 93 94 95 96
31 30 40 50 58 55 45 44 43 39 42 43 44 46 48 54 57 58 57 50 54 58 59 58 53 51 52 52 38 26 27 34 40 45 49 72 82 83 86 88 92 98 96 99 98 97 96 95 94
42 40 40 41 48 52 47 42 41 46 48 52 54 53 54 62 70 73 66 58 63 64 58 56 53 49 52 50 34 25 28 35 39 44 47 50 59 71 81 85 90 93 95 95 94 95 95 93 94
44 45 44 51 48 55 54 41 46 48 50 53 58 57 65 81 87 82 74 66 67 64 61 54 54 53 56 47 32 26 29 34 38 43 47 49 51 53 68 82 87 89 90 93 93 92 93 93 95

GFSSGP_prec_cthk_105.txt.gz
RH
12 13 12 11 13 15 15 12 14 16 16 17 18 20 22 23 25 21 19 20 20 22 21 21 22 22 22 24 26 29 30 35 38 41 50 49 58 49 49 50 50 50 51 54 54 47 44 45 43
13 13 12 14 15 13 12 13 14 16 17 17 19 21 22 21 22 21 21 22 21 21 20 20 21 23 24 26 27 29 29 33 40 46 45 47 49 57 52 60 55 58 59 48 48 52 44 41 47
13 13 13 15 17 13 11 12 15 17 18 18 19 19 20 21 22 21 22 22 22 21 21 22 22 21 21 23 26 27 31 34 39 40 42 45 63 52 55 57 64 65 72 60 47 45 50 48 48
14 15 15 17 15 16 13 14 16 16 18 18 18 19 20 22 21 20 22 23 21 23 23 22 21 19 19 20 22 25 28 34 38 42 43 45 48 55 68 59 62 65 74 72 64 49 45 48 50
16 17 17 18 16 16 14 15 17 17 18 19 19 19 21 21 22 20 23 23 23 24 25 23 21 21 21 21 22 23 26 30 34 36 41 46 50 52 57 72 78 73 77 84 73 70 60 50 50
20 20 19 14 15 16 14 12 15 14 16 19 19 20 20 21 21 21 23 25 25 25 25 24 24 22 22 24 22 23 26 29 33 35 40 41 46 53 56 59 63 79 66 81 72 74 73 55 48
23 22 19 19 17 18 15 12 12 12 16 18 19 20 22 22 21 22 24 26 26 26 26 26 26 24 25 24 25 26 28 31 36 40 45 47 51 65 68 62 62 64 67 70 79 72 75 71 63
24 24 23 20 17 18 16 15 13 14 18 19 22 22 22 23 23 24 25 27 27 27 29 29 28 26 26 25 26 27 28 30 34 40 42 44 50 52 57 65 67 68 62 66 75 74 78 74 81
29 26 23 20 21 20 19 18 16 15 18 21 22 22 22 24 23 25 26 27 28 28 29 31 31 29 27 26 26 28 31 31 32 37 41 45 45 45 46 50 57 56 57 65 73 70 83 86 89
31 28 24 23 24 23 22 20 19 17 19 20 22 22 23 24 23 27 28 27 27 28 29 31 32 32 30 28 28 30 34 38 36 35 40 42 45 46 46 46 48 51 60 69 73 77 89 94 94
32 27 27 26 27 26 24 22 21 20 19 20 22 22 24 25 24 25 29 28 28 29 29 31 34 35 33 30 30 32 37 39 38 37 41 43 45 51 43 45 49 52 58 77 79 86 95 94 93
36 33 32 30 31 29 27 26 24 23 21 21 22 23 25 25 25 25 26 28 29 29 30 31 34 36 35 34 32 34 34 38 39 40 42 41 42 49 52 50 58 62 80 74 85 89 94 94 92
40 36 35 34 33 31 31 29 28 26 26 24 22 24 26 26 26 26 27 30 32 31 31 32 34 37 36 36 35 36 36 36 37 38 39 44 39 45 55 51 61 69 80 89 91 92 95 90 88
34 35 33 33 33 32 31 28 29 28 29 29 27 25 26 28 28 28 28 30 31 30 32 34 36 39 38 38 38 40 43 38 39 36 36 37 39 45 47 54 63 76 88 96 92 96 95 93 87
35 35 35 33 34 34 35 31 30 31 32 31 32 32 30 28 29 28 29 30 29 31 32 34 36 39 39 40 44 44 45 40 38 34 31 31 33 44 45 54 64 82 93 98 97 96 98 96 86
39 39 37 35 36 35 36 28 33 33 34 34 36 38 36 33 31 30 30 29 29 31 33 33 34 38 38 40 45 45 43 40 40 35 30 31 38 43 51 53 65 82 92 94 98 99 98 97 86
44 40 43 39 38 38 37 29 31 33 35 37 37 37 37 35 34 33 31 29 30 31 32 32 34 38 39 41 45 44 44 40 40 34 29 31 40 47 51 61 69 78 95 97 97 99 97 94 82
41 45 42 40 40 41 38 34 34 34 34 37 39 38 36 34 34 34 32 32 32 32 30 30 33 37 40 43 45 47 46 42 40 32 28 31 38 46 56 68 78 86 94 96 94 93 95 91 87
41 40 39 41 41 39 36 34 34 33 33 32 32 33 32 31 33 32 31 32 32 31 30 29 31 37 40 42 45 47 46 44 42 32 27 30 40 49 58 71 76 82 87 95 98 97 92 98 95
44 43 43 43 41 38 33 29 27 26 23 24 23 23 23 24 25 27 29 31 31 30 31 29 31 35 39 43 47 46 47 46 44 33 27 32 42 49 61 75 82 88 85 99 98 97 97 97 95
43 42 40 38 35 31 28 22 19 21 22 22 21 20 21 21 23 23 23 25 28 29 30 29 32 36 40 43 47 48 50 48 45 33 27 30 40 50 61 76 87 82 89 95 98 98 97 94 92
45 39 34 33 34 31 25 21 22 22 22 22 22 22 22 25 25 24 21 21 23 27 29 28 33 37 42 44 47 49 50 49 44 27 27 32 42 54 64 76 84 92 87 94 98 98 97 93 94
43 38 37 35 29 26 26 30 27 27 25 24 25 26 28 29 28 26 24 22 21 24 26 29 34 39 44 47 48 50 53 52 44 25 25 34 49 60 71 75 84 98 97 97 95 95 97 93 93
38 42 44 42 39 43 34 32 29 28 27 29 32 31 29 28 29 27 24 23 24 24 27 31 36 43 48 48 49 52 55 52 40 24 27 39 53 63 72 77 86 91 95 93 94 96 97 96 93
45 46 51 61 55 44 36 35 28 32 34 35 32 29 30 29 29 29 28 23 23 27 28 32 37 47 52 50 50 54 57 51 31 24 32 45 56 76 77 73 90 93 94 91 94 98 96 94 91
34 38 38 44 52 39 41 38 33 35 39 37 35 32 29 28 29 29 29 28 27 29 31 34 41 51 56 54 54 56 58 45 27 27 39 47 67 79 73 70 73 76 82 93 92 87 91 84 86
36 39 34 36 40 42 37 39 34 41 39 40 38 35 31 28 29 30 32 33 32 36 36 38 46 53 58 61 58 59 55 34 25 33 40 47 72 78 76 77 80 85 84 87 92 91 87 84 90
30 36 43 45 46 44 36 37 34 39 38 40 37 35 35 34 33 33 37 35 37 41 42 42 48 56 62 64 64 63 51 28 28 37 42 47 59 81 83 84 84 87 91 94 94 92 88 91 94
40 37 37 36 39 38 39 34 35 38 40 39 36 38 40 40 41 40 47 45 43 47 47 50 55 64 64 64 65 62 43 26 33 38 42 48 53 56 66 77 88 91 94 96 97 97 96 90 95
48 48 44 42 45 43 39 35 43 42 40 43 44 46 45 50 51 51 59 60 56 58 57 60 68 68 65 65 65 57 36 29 36 40 43 47 50 53 54 66 80 88 92 94 97 98 98 96 96

GFSSGP_prec_cthk_108.txt.gz
RH
8 10 12 12 13 12 11 10 9 13 14 14 15 19 21 22 24 26 18 20 18 18 19 21 19 19 18 20 23 26 28 31 35 41 43 51 55 58 49 48 49 53 52 52 52 47 45 45 46
13 14 13 14 12 12 11 11 11 12 15 15 17 17 19 21 21 20 21 19 19 21 20 20 19 18 18 20 22 26 27 30 36 39 47 52 47 54 52 52 56 56 55 62 55 47 49 50 43
15 14 15 14 13 11 12 12 12 13 15 16 18 19 20 21 22 21 22 20 21 20 20 21 19 18 17 19 22 25 30 32 35 39 46 47 47 54 58 59 58 55 64 74 66 59 53 52 51
16 16 15 14 12 13 12 13 14 14 15 16 17 19 19 21 23 23 20 20 21 21 21 21 19 19 19 19 21 23 26 30 33 38 42 44 46 53 53 58 68 68 70 76 72 70 60 51 52
19 18 15 15 13 13 15 13 15 15 15 17 17 18 20 22 23 24 21 21 21 22 22 21 20 20 20 20 22 23 25 26 28 32 36 41 45 52 54 56 56 67 73 70 72 74 68 61 51
22 19 17 14 14 15 16 14 15 15 15 16 17 18 20 24 24 23 22 22 22 23 23 23 22 22 22 23 23 25 27 29 30 32 34 39 45 52 63 69 57 62 63 66 72 73 75 74 71
25 22 18 16 15 15 17 15 13 14 16 17 17 19 21 24 26 22 22 23 24 23 23 24 24 24 25 25 26 25 28 30 32 34 37 42 55 58 60 62 67 63 79 66 79 69 85 77 72
27 25 22 19 19 17 17 18 15 12 13 15 15 21 24 25 24 23 22 24 25 24 24 26 27 27 27 27 27 29 29 31 32 34 37 46 45 53 56 54 56 61 68 68 74 78 82 85 78
32 27 23 21 20 20 20 20 19 17 17 16 18 20 22 22 22 26 26 30 28 26 25 27 28 29 30 29 29 28 30 33 35 37 37 44 52 50 53 57 52 57 63 65 61 66 67 75 87
32 27 25 25 24 24 22 23 21 19 17 19 20 22 24 24 26 27 28 29 30 27 28 29 29 31 32 32 35 31 30 32 37 38 40 41 47 53 53 52 50 52 54 52 56 66 84 82 87
34 28 29 28 27 27 26 23 23 21 19 19 21 22 23 25 26 28 30 31 30 32 34 32 31 31 33 36 40 37 33 37 37 38 41 43 46 48 51 52 50 49 48 49 55 69 75 78 90
38 34 34 32 30 29 28 26 24 24 23 22 22 22 22 24 26 27 28 30 32 32 34 34 33 32 34 41 39 41 34 39 37 37 36 41 41 42 43 50 51 51 54 56 63 65 88 83 93
41 41 37 36 34 32 30 29 28 27 26 27 23 23 23 24 25 27 27 28 31 31 33 36 32 34 34 36 39 42 41 39 39 39 37 39 41 44 48 44 50 53 54 66 72 92 82 87 97
40 41 42 40 40 37 34 31 31 30 29 30 29 27 25 25 26 28 28 28 29 29 33 35 32 36 37 36 36 37 41 46 43 39 39 38 37 40 51 50 47 58 56 66 73 88 95 93 95
40 39 38 38 39 38 36 31 30 30 31 31 31 30 29 27 27 27 29 30 28 30 33 33 33 34 36 37 36 37 43 44 43 41 40 38 34 31 47 51 53 54 53 66 85 94 96 95 99
42 40 38 37 38 37 37 28 33 32 32 33 33 34 35 34 32 29 28 28 29 30 31 32 32 31 34 37 38 38 43 45 43 42 39 37 30 30 35 44 48 49 62 67 91 96 99 97 97
45 40 40 42 43 41 37 33 34 34 34 35 36 35 35 36 35 33 32 31 30 31 32 31 33 30 34 40 40 39 42 46 45 43 40 36 28 29 31 36 44 57 65 75 90 96 96 99 97
48 50 47 49 46 42 39 37 39 36 36 36 37 37 36 36 35 34 34 34 33 32 31 31 32 32 34 41 41 40 42 46 48 46 42 39 28 27 33 40 50 59 74 77 97 97 98 99 97
52 48 44 43 46 45 40 39 39 40 38 36 34 35 35 35 36 34 34 34 34 33 31 30 30 31 35 37 39 40 42 45 49 49 46 42 29 26 31 43 52 63 74 83 95 95 98 99 98
56 59 48 43 49 49 40 35 37 38 35 31 29 27 26 28 28 32 33 32 33 33 34 31 31 33 34 36 39 42 44 47 51 51 49 43 28 26 31 43 54 67 77 98 84 94 95 97 94
57 56 58 51 50 51 44 35 31 28 26 23 22 21 21 22 25 29 30 29 29 29 30 31 33 35 36 38 40 45 45 50 51 53 50 45 27 28 33 47 57 68 80 88 91 94 98 94 95
59 54 48 50 60 47 40 33 28 27 26 24 23 23 24 28 28 29 27 26 25 25 25 26 31 33 37 39 41 44 42 47 52 54 50 45 27 28 37 51 61 71 85 98 87 99 99 95 96
53 50 52 50 46 42 38 35 27 28 25 25 26 27 31 30 31 32 30 26 24 22 24 26 29 32 38 41 44 45 49 53 57 59 53 41 29 30 38 51 59 73 85 93 94 97 98 98 97
56 56 52 50 49 47 37 31 27 29 29 29 32 33 33 33 31 30 29 26 24 24 24 26 29 32 37 40 47 48 54 54 57 59 51 33 29 33 43 54 64 73 83 95 95 96 95 98 98
51 52 62 66 60 47 46 40 30 35 32 34 36 36 34 32 32 31 29 28 27 27 26 27 29 31 36 42 49 52 57 57 60 62 50 27 30 35 48 65 74 84 83 96 92 91 93 95 97
48 50 51 61 57 49 51 42 35 33 37 36 32 30 30 32 32 32 32 30 29 30 31 28 29 32 36 42 51 57 58 60 65 64 42 24 30 41 61 75 72 72 87 90 93 90 95 95 94
53 55 46 54 50 51 47 47 45 38 37 35 34 34 33 32 31 31 31 31 34 30 30 29 30 32 33 42 52 58 61 64 69 65 32 29 38 44 70 75 70 72 76 80 85 93 93 93 96
43 35 45 44 49 45 32 38 36 41 40 39 36 38 36 33 32 33 34 37 37 35 30 30 30 33 34 42 52 60 65 69 71 58 25 33 37 45 63 79 77 79 82 85 85 91 88 99 98
34 43 41 41 40 37 33 42 40 40 40 39 38 40 40 40 43 43 42 43 42 38 35 31 33 35 37 44 54 63 69 73 71 44 30 35 39 46 55 64 74 83 86 90 92 92 94 96 98
45 40 43 47 47 43 36 41 49 41 40 39 41 44 45 47 46 46 46 43 44 43 48 41 45 41 42 47 58 69 74 75 65 35 33 36 40 46 49 52 62 78 86 89 94 97 99 99 99

GFSSGP_prec_cthk_114.txt.gz
RH
5 7 8 14 15 13 10 11 12 12 12 13 14 14 19 27 33 38 39 31 23 19 16 16 16 15 14 15 16 18 21 24 25 27 31 41 41 46 44 39 39 41 43 44 44 44 40 40 41
8 10 14 18 16 13 12 12 13 13 14 14 12 13 15 25 25 32 28 26 22 18 15 16 14 13 13 14 17 20 22 24 27 29 33 37 44 45 45 40 44 44 49 49 51 51 49 49 46
12 16 22 18 15 15 12 13 14 16 17 15 13 12 14 18 24 26 27 22 17 16 16 15 13 12 13 15 18 21 23 25 29 33 34 41 42 42 46 41 45 45 51 51 57 62 63 60 57
19 24 21 19 16 14 13 13 16 17 18 15 13 17 15 20 24 25 22 18 19 17 16 15 14 13 13 15 18 21 23 25 29 33 36 40 40 41 40 41 51 47 50 61 62 72 83 73 65
25 24 21 18 16 15 15 16 17 18 18 17 14 17 21 20 26 26 21 19 20 21 17 16 16 15 14 15 18 20 23 25 27 31 34 36 40 43 43 43 48 47 56 59 66 78 69 69 73
26 23 23 20 18 17 15 15 18 17 19 18 17 15 22 27 24 30 24 21 21 19 18 17 17 16 16 16 18 20 22 25 27 30 33 38 43 55 55 54 54 56 61 66 62 60 60 68 69
30 24 20 20 20 20 20 19 20 18 17 20 18 17 19 28 27 28 24 22 22 21 19 18 18 18 18 18 19 20 21 23 26 28 31 36 45 53 60 64 61 71 69 67 74 69 67 77 75
34 30 25 21 21 20 20 23 22 20 18 18 20 19 19 26 30 25 26 24 23 22 20 20 19 20 20 20 21 21 21 23 25 28 30 34 38 45 51 56 62 65 66 66 56 59 68 78 87
38 36 29 26 24 21 23 24 26 23 19 18 20 22 25 30 34 30 32 29 25 24 21 20 20 21 22 22 23 22 23 24 25 27 30 33 35 39 43 47 49 52 62 68 57 64 75 72 77
41 36 29 31 28 25 24 24 30 27 21 20 20 23 23 24 31 31 31 32 30 26 26 23 21 21 23 24 24 25 24 25 26 27 30 33 35 37 43 48 53 53 54 53 53 57 63 69 62
41 30 34 31 33 31 29 27 31 28 27 23 23 23 23 25 26 30 30 30 33 30 29 29 26 26 26 26 25 26 26 26 27 28 30 33 36 37 43 50 55 57 64 64 61 55 53 52 53
42 34 39 36 36 36 32 32 28 30 28 30 26 25 24 25 24 25 28 34 35 35 32 32 28 28 28 31 31 31 30 29 27 28 30 37 39 38 39 42 48 51 53 54 60 53 52 55 57
37 38 41 41 40 37 36 32 32 28 28 30 29 27 28 27 25 25 28 34 40 41 38 36 31 28 29 31 34 36 35 33 31 34 36 41 42 41 40 40 45 48 50 53 48 50 57 61 64
37 42 41 44 41 41 39 36 34 28 30 29 28 25 24 26 25 26 25 28 34 38 42 42 38 35 31 32 34 36 37 36 37 38 40 43 44 44 40 40 39 43 52 60 61 57 59 62 65
37 44 44 40 36 42 45 40 30 34 34 31 29 27 27 28 28 26 25 26 29 30 34 43 39 40 35 31 34 37 40 36 36 34 38 46 46 46 41 37 36 35 49 64 66 64 66 63 69
34 42 39 28 40 44 50 34 34 38 38 34 32 29 30 30 30 29 29 27 29 28 30 35 42 41 36 32 35 37 39 41 38 37 36 41 48 47 45 39 33 33 37 51 53 58 61 60 62
34 28 28 36 46 45 49 31 39 41 39 38 37 34 30 30 32 32 33 32 29 31 35 36 42 39 37 36 37 37 37 39 40 39 37 40 45 49 48 44 36 28 30 40 48 49 55 62 61
21 28 36 35 43 48 48 35 39 40 40 38 43 39 36 33 31 33 33 33 34 34 36 39 41 42 39 38 38 39 39 41 41 41 39 39 42 46 48 46 42 31 30 31 39 45 53 61 62
22 32 35 34 40 49 50 43 43 44 42 39 41 45 44 41 39 36 35 35 38 39 36 37 42 45 44 42 41 40 41 40 42 42 42 40 40 47 48 49 46 35 26 25 32 42 52 61 71
26 33 41 44 46 56 56 58 47 47 44 41 43 44 43 42 41 40 39 37 37 39 37 37 40 41 42 43 40 41 41 44 43 42 42 40 43 45 50 51 49 43 27 25 30 43 52 65 77
25 34 40 38 56 72 61 64 52 50 47 47 46 45 46 46 45 43 44 42 41 40 39 40 40 40 43 42 42 44 43 44 43 43 44 48 48 46 51 54 53 47 31 27 31 43 55 64 84
30 29 35 51 61 82 62 60 51 44 46 44 43 43 46 48 45 45 43 41 42 41 39 41 41 40 40 41 40 40 37 37 37 40 42 45 51 47 50 56 55 49 34 28 33 44 54 64 84
32 39 46 55 66 67 67 60 40 49 50 46 45 40 41 43 39 36 40 41 45 45 43 45 36 33 32 35 36 36 34 34 37 39 41 47 49 49 50 57 58 52 33 28 34 46 54 64 81
38 49 58 62 61 70 51 62 45 48 46 49 43 40 39 39 40 41 47 51 51 46 47 42 34 32 33 31 35 35 31 31 37 40 42 45 50 50 49 58 62 55 32 30 39 51 62 69 80
49 57 71 79 70 52 53 62 44 44 43 45 39 38 49 51 56 58 58 56 53 51 52 47 38 32 32 33 31 35 35 33 38 44 47 47 49 49 48 59 62 53 31 34 49 65 75 77 83
57 53 58 62 61 50 51 53 41 44 40 42 47 52 61 62 65 62 60 58 59 53 44 38 33 30 29 30 35 32 34 35 39 45 54 48 50 48 49 60 62 45 31 40 60 69 75 82 88
59 57 60 68 70 71 53 49 49 43 50 54 58 61 65 63 64 66 63 61 54 43 35 31 29 28 27 27 30 39 31 34 40 48 55 56 53 51 50 61 60 38 37 44 62 66 77 83 91
59 58 68 66 70 75 85 54 64 47 55 62 73 63 64 68 67 66 65 61 46 39 34 31 29 28 28 27 28 34 31 34 39 46 57 58 55 53 53 60 52 40 39 46 65 68 73 87 93
66 60 60 58 58 59 68 79 61 58 56 69 62 64 68 71 65 59 53 46 44 41 36 33 31 28 28 33 32 33 30 32 39 48 57 58 55 56 56 55 54 42 38 46 61 73 74 81 85
53 52 55 64 57 51 56 65 63 66 61 62 70 69 67 85 79 63 57 52 47 42 36 33 30 30 32 38 43 38 36 34 42 51 59 59 57 60 57 54 57 41 40 49 57 72 84 86 82

GFSSGP_prec_cthk_117.txt.gz
RH
5 4 6 11 17 16 14 10 12 13 12 15 16 16 18 20 23 34 34 35 31 20 19 19 14 14 14 14 15 17 20 23 23 25 26 31 39 42 43 39 36 37 38 36 39 40 38 37 37
8 6 9 15 20 19 15 12 15 16 15 14 14 14 17 23 24 32 35 28 22 21 21 16 14 13 12 13 15 17 21 23 24 25 28 35 40 44 44 38 41 42 44 43 42 40 40 42 43
14 12 14 19 19 18 15 14 17 19 17 16 16 15 14 22 24 26 24 20 19 20 19 14 13 12 12 13 15 18 21 23 24 27 30 35 40 44 45 40 43 45 46 47 47 46 50 51 54
17 20 20 19 19 15 14 15 19 21 18 18 17 17 15 17 22 22 20 16 17 17 15 14 13 12 13 14 16 18 21 23 26 28 31 35 37 39 43 43 44 51 48 50 58 64 67 71 64
25 29 24 20 16 13 14 14 18 19 20 19 18 18 19 19 21 22 18 16 16 15 15 15 14 13 13 14 16 18 20 22 25 28 30 35 38 42 43 46 45 50 54 59 65 63 66 65 63
28 26 26 23 17 15 14 14 16 19 20 21 18 17 23 26 23 22 17 17 16 15 15 15 15 14 14 14 16 18 20 21 24 27 30 33 38 42 48 47 53 56 57 64 64 62 59 60 56
37 32 26 24 20 17 15 17 18 20 21 22 20 18 24 29 28 27 20 19 17 16 16 16 16 16 15 15 16 17 19 21 22 25 27 32 37 42 47 52 55 61 68 76 70 70 63 60 60
40 40 33 29 24 19 15 18 21 19 21 22 23 22 20 28 28 27 23 20 18 17 18 17 17 17 16 16 16 17 19 21 22 23 25 28 31 36 39 43 51 56 67 68 63 65 55 58 60
44 42 32 32 29 22 18 19 25 24 22 21 22 25 22 27 35 31 28 24 21 20 20 19 18 18 18 18 18 17 18 20 22 23 25 26 29 32 35 37 42 47 53 62 65 64 54 65 66
45 39 31 32 30 27 24 21 25 27 26 25 22 24 31 29 34 34 32 29 24 20 21 20 19 19 19 20 20 20 20 21 22 24 25 27 28 31 33 36 40 46 51 52 53 54 52 56 60
40 30 39 35 35 33 29 27 24 28 28 29 27 24 24 29 32 38 37 30 26 23 20 19 20 20 20 20 21 22 22 22 23 24 26 28 30 32 32 34 37 41 46 52 58 61 58 52 50
35 30 38 37 40 37 32 31 28 30 29 32 28 25 25 23 24 26 31 34 32 28 22 21 21 21 21 21 22 23 24 24 25 24 26 27 31 34 33 33 34 36 41 44 49 52 60 50 48
25 30 36 36 41 37 37 33 32 28 32 33 29 26 24 25 24 21 26 33 36 34 29 28 22 22 23 24 24 25 26 26 27 27 27 28 32 36 37 37 35 34 37 42 49 52 51 51 57
21 24 28 36 31 35 43 36 39 27 34 33 31 29 27 26 26 25 25 29 36 40 38 36 35 33 30 25 25 26 27 31 31 32 30 30 32 37 40 42 39 36 33 36 49 59 59 58 58
18 25 27 25 23 33 46 45 34 33 36 33 32 31 30 29 29 26 24 26 29 34 40 42 41 40 39 35 33 28 27 31 33 34 34 33 34 38 40 44 44 39 34 32 40 54 59 60 62
18 25 24 14 24 33 53 42 27 40 40 34 32 33 31 30 30 29 27 25 26 30 32 37 42 39 39 40 37 35 29 32 34 36 36 35 35 38 42 45 47 46 38 31 30 40 47 54 57
13 21 18 17 25 33 49 36 33 42 43 39 35 34 35 34 31 29 29 28 28 27 29 32 39 40 38 39 42 39 34 33 36 39 39 39 38 38 40 45 49 51 47 35 29 34 39 42 49
18 19 23 25 21 33 45 38 39 41 44 40 40 37 35 35 33 33 33 33 31 31 30 33 32 35 37 40 43 41 40 38 38 38 40 41 42 41 41 45 50 53 53 44 29 31 36 40 43
32 39 25 22 23 34 35 40 41 45 46 41 40 39 38 38 38 38 36 37 38 34 33 32 32 35 41 44 46 47 40 37 41 44 42 40 43 45 45 46 50 53 56 51 37 29 33 36 44
39 41 42 27 27 44 47 55 40 48 47 40 42 41 41 42 43 42 43 43 41 37 36 36 37 43 47 47 45 46 44 38 39 44 45 43 43 46 46 48 49 53 58 59 47 30 29 33 42
45 45 45 38 42 63 68 60 51 44 50 45 40 40 44 45 49 48 48 51 48 42 42 42 40 42 44 43 43 42 45 43 41 43 44 44 45 48 48 45 48 53 58 61 54 39 30 34 39
51 47 45 40 48 75 70 70 59 54 55 48 44 44 45 49 51 52 52 49 47 46 44 44 43 43 45 48 49 39 37 38 38 40 43 46 46 47 48 47 48 53 57 62 59 46 32 38 41
50 38 35 40 56 77 82 83 51 47 56 44 41 42 45 46 53 54 55 52 52 52 51 50 45 44 43 44 46 46 40 37 38 40 43 48 51 47 50 51 49 53 57 64 64 50 32 36 44
40 39 46 55 72 96 68 70 48 49 46 47 45 45 47 49 52 60 62 58 54 53 52 50 48 44 43 39 40 43 43 43 39 39 39 43 45 46 49 51 53 54 59 64 65 49 34 39 55
48 45 76 91 94 77 56 64 36 33 36 45 46 46 51 54 57 60 61 59 55 55 56 53 53 44 41 37 35 37 40 42 41 40 38 38 42 43 48 50 53 55 59 66 65 44 36 49 68
49 57 79 93 76 62 53 49 30 33 39 42 47 53 54 53 57 64 63 59 59 58 60 61 57 49 41 35 30 32 38 37 40 42 41 38 37 43 47 49 53 57 61 68 63 40 41 55 69
49 60 61 70 67 66 44 34 39 42 50 52 51 54 61 64 67 66 60 59 60 65 61 58 53 42 34 31 26 25 31 36 34 39 40 40 39 48 49 51 55 57 63 69 56 42 46 58 69
43 44 62 67 81 86 81 58 59 61 57 75 73 72 79 77 65 63 63 66 66 62 56 52 43 39 36 34 28 25 25 31 32 34 41 40 40 54 56 55 56 57 64 66 53 48 48 58 69
61 59 58 87 75 80 96 87 75 69 63 82 80 80 93 85 77 74 75 68 63 60 50 44 41 38 32 30 29 29 28 28 30 35 40 38 45 49 57 60 58 58 62 61 56 48 49 58 70
63 67 65 77 77 66 74 93 88 83 88 77 83 86 94 90 81 74 75 68 62 51 47 45 48 45 44 40 36 33 35 33 34 38 40 41 48 50 59 63 60 59 55 63 60 47 51 60 69

GFSSGP_prec_cthk_120.txt.gz
RH
7 4 5 9 12 15 14 11 9 14 14 14 18 20 19 20 21 25 26 30 32 24 22 20 19 14 14 14 15 17 19 21 23 25 28 30 34 37 36 35 35 33 31 32 33 33 33 33 36
12 9 10 13 17 18 15 12 13 15 15 16 17 19 20 24 22 22 27 30 26 18 21 20 19 13 13 13 13 15 18 20 22 25 28 30 36 38 39 38 36 36 36 37 37 35 36 37 40
15 14 15 17 21 19 15 11 14 14 15 16 17 17 19 21 22 22 25 25 19 19 20 19 17 13 12 12 13 16 19 20 22 24 26 31 38 39 41 39 38 40 40 41 40 40 43 47 48
17 17 19 25 21 15 12 12 14 15 15 16 17 19 20 19 20 21 21 19 19 19 19 14 13 13 12 12 15 17 19 21 22 24 27 34 38 41 42 37 40 44 48 48 47 51 58 63 64
19 24 27 26 21 15 13 14 17 18 17 16 18 17 21 22 22 20 17 18 18 17 15 14 13 14 13 14 15 17 20 22 23 24 27 32 36 38 38 39 42 43 49 52 59 66 66 62 62
30 29 29 28 21 16 15 14 16 18 18 18 21 17 19 23 24 22 19 17 18 16 15 14 14 14 14 14 16 18 20 22 24 26 27 31 35 37 39 39 41 42 46 50 54 60 62 63 60
34 34 32 27 21 19 16 16 16 19 19 18 20 20 21 23 24 23 21 20 19 18 15 15 15 15 14 14 16 18 20 21 23 25 28 30 31 35 39 42 44 44 49 54 61 65 66 68 61
37 36 34 31 28 24 17 16 17 20 19 20 20 22 26 22 25 24 22 21 21 19 17 15 16 16 15 15 16 18 20 21 23 24 26 29 29 32 38 41 43 44 48 54 61 60 61 55 54
37 39 35 35 32 26 25 19 19 22 21 21 23 22 22 26 26 24 23 24 23 20 18 17 16 16 16 16 17 18 19 21 22 23 25 26 28 30 33 36 40 42 42 45 52 58 63 54 57
33 36 36 34 33 30 29 27 22 24 24 23 23 23 25 27 26 26 25 23 24 24 21 19 17 17 17 18 17 18 19 20 21 22 23 25 27 30 33 35 37 40 41 44 47 49 50 51 55
27 26 33 34 34 34 32 29 29 27 26 28 27 27 28 29 31 30 27 25 22 26 24 21 19 18 18 20 19 20 20 20 22 22 24 25 27 29 32 35 36 37 38 41 44 48 55 57 54
17 19 25 29 32 33 32 33 30 30 25 32 31 30 30 30 31 31 31 27 24 23 22 24 22 18 19 21 21 21 22 23 23 23 24 26 27 30 32 34 36 37 36 36 40 44 49 55 56
17 16 15 20 22 26 34 31 35 30 30 32 35 34 38 35 33 32 28 27 25 24 25 24 23 19 20 21 22 22 24 24 25 27 27 27 28 30 33 34 36 39 38 34 35 42 50 53 53
14 15 15 16 14 19 28 29 42 23 36 35 35 36 34 37 33 32 30 27 27 28 29 30 27 22 21 21 22 23 24 25 26 26 28 29 29 31 33 35 38 40 42 37 33 34 51 58 60
12 15 12 13 14 16 26 30 29 24 37 37 38 38 37 34 32 31 30 30 29 32 34 35 33 34 32 30 30 27 25 26 26 28 30 31 31 33 34 36 38 42 45 42 36 33 40 51 55
17 17 16 7 12 15 27 26 17 28 38 38 38 39 40 37 34 34 33 30 29 33 35 36 38 38 38 37 37 35 34 28 27 29 32 34 35 35 35 38 40 43 46 47 42 32 31 35 40
19 24 19 13 11 17 24 25 14 25 38 40 39 38 40 39 36 33 33 32 30 30 31 32 36 39 38 39 40 40 37 34 33 30 33 35 36 36 37 38 41 45 47 48 49 40 30 31 34
20 24 20 19 10 18 24 28 17 26 34 35 41 41 41 41 38 36 36 35 31 30 30 31 33 36 38 42 42 45 43 40 38 36 33 37 37 39 38 40 43 46 47 49 51 51 41 31 33
37 36 38 23 16 22 23 32 21 29 34 34 36 41 43 42 40 40 38 39 37 33 31 30 33 39 40 42 42 44 48 49 46 42 40 38 40 44 42 43 45 47 49 51 53 58 54 41 35
51 53 52 37 25 26 30 34 26 29 33 35 34 35 38 42 43 42 40 40 38 38 36 34 34 35 38 40 43 50 59 62 58 51 44 44 45 47 45 46 48 48 51 53 55 58 59 53 42
70 53 50 57 33 39 59 47 35 33 34 35 39 36 38 41 45 44 44 43 42 42 42 43 40 38 40 43 49 55 65 66 59 54 51 46 47 48 48 50 51 52 54 54 57 59 62 63 48
88 72 54 57 49 66 67 78 47 38 39 41 41 35 38 41 45 47 49 50 50 50 47 50 52 50 56 59 63 62 56 50 48 47 49 47 47 48 50 53 54 54 54 56 58 61 65 68 57
76 87 54 58 47 67 65 85 60 56 48 48 41 38 39 42 49 58 56 56 54 53 52 52 55 59 60 56 56 57 60 60 52 46 46 48 48 50 52 52 52 52 53 56 58 64 67 69 62
76 77 74 67 66 74 63 84 56 58 49 49 44 47 49 53 54 61 59 59 60 60 59 60 61 61 62 59 57 56 55 55 56 53 48 45 47 51 51 55 53 52 54 55 59 66 68 71 63
73 76 85 82 83 83 66 90 52 47 45 50 54 56 54 57 61 63 62 63 65 67 66 64 65 66 65 64 63 58 53 51 50 46 49 51 52 50 51 51 50 48 54 60 60 65 69 73 62
69 63 54 66 72 69 65 70 41 40 45 46 53 65 63 70 64 64 65 65 68 69 67 64 66 65 65 63 60 56 52 47 42 38 39 44 45 45 47 44 41 46 56 62 61 66 69 74 60
50 48 43 67 82 67 58 46 45 43 43 45 54 63 70 72 77 70 70 67 69 72 71 68 66 62 56 56 55 48 41 36 33 32 33 37 43 41 43 37 39 44 52 61 61 66 69 74 52
59 45 66 79 91 81 78 62 76 73 64 58 60 60 65 69 70 70 71 70 74 77 77 76 71 65 60 55 50 47 39 35 34 26 28 33 37 40 39 41 45 50 53 60 62 66 69 73 48
70 65 70 79 86 90 93 95 82 83 82 74 80 82 76 77 78 81 80 76 72 73 72 71 65 59 55 51 45 40 37 34 36 32 26 29 37 43 39 39 45 59 56 59 62 66 71 65 52
78 83 77 80 95 94 91 96 96 92 91 88 91 91 89 86 85 84 81 76 75 72 67 64 55 48 43 40 39 36 37 34 32 35 30 29 39 44 42 40 44 60 58 58 59 66 68 63 53